[[{"header":{"parameterUnit":"m.s-1","parameterCategory":1,"la1":30.6,"la2":28.766,"lo1":-90.7593,"lo2":-88.6598,"dy":0.0162,"dx":0.0183,"nx":116,"ny":114,"refTime":"2024-04-26T00:00:00:Z","depth":0,"parameterNumber":2,"parameterNumberName":"U-component_of_WINDS"},"data":[0.0,0.0,0.0,0.0,0.0,0.0,0.0,0.0,0.0,0.0,0.0,0.0,0.0,0.0,0.0,0.0,0.0,0.0,0.0,0.0,0.0,0.0,0.0,0.0,0.0,0.0,0.0,0.0,0.0,0.0,0.0,0.0,0.0,0.0,0.0,0.0,0.0,0.0,0.0,0.0,0.0,0.0,0.0,0.0,0.0,0.0,0.0,0.0,0.0,0.0,0.0,0.0,0.0,0.0,0.0,0.0,0.0,0.0,0.0,0.0,0.0,0.0,0.0,0.0,0.0,0.0,0.0,0.0,0.0,0.0,0.0,0.0,0.0,0.0,0.0,0.0,0.0,0.0,0.0,0.0,0.0,0.0,0.0,0.0,0.0,0.0,0.0,0.0,0.0,0.0,0.0,0.0,0.0,0.0,0.0,0.0,0.0,0.0,0.0,0.0,0.0,0.0,0.0,0.0,0.0,0.0,0.0,0.0,0.0,0.0,0.0,0.0,0.0,0.0,0.0,0.0,0.0,0.0,0.0,0.0,0.0,0.0,0.0,0.0,0.0,0.0,0.0,0.0,0.0,0.0,0.0,0.0,0.0,0.0,0.0,0.0,0.0,0.0,0.0,0.0,0.0,0.0,0.0,0.0,0.0,0.0,0.0,0.0,0.0,0.0,0.0,0.0,0.0,0.0,0.0,0.0,0.0,0.0,0.0,0.0,0.0,0.0,0.0,0.0,0.0,0.0,0.0,0.0,0.0,0.0,0.0,0.0,0.0,0.0,0.0,0.0,0.0,0.0,0.0,0.0,0.0,0.0,0.0,0.0,0.0,0.0,0.0,0.0,0.0,0.0,0.0,0.0,0.0,0.0,0.0,0.0,0.0,0.0,0.0,0.0,0.0,0.0,0.0,0.0,0.0,0.0,0.0,0.0,0.0,0.0,0.0,0.0,0.0,0.0,0.0,0.0,0.0,0.0,0.0,0.0,0.0,0.0,0.0,0.0,0.0,0.0,0.0,0.0,0.0,0.0,0.0,0.0,0.0,0.0,0.0,0.0,0.0,0.0,0.0,0.0,0.0,0.0,0.0,0.0,0.0,0.0,0.0,0.0,0.0,0.0,0.0,0.0,0.0,0.0,0.0,0.0,0.0,0.0,0.0,0.0,0.0,0.0,0.0,0.0,0.0,0.0,0.0,0.0,0.0,0.0,0.0,0.0,0.0,0.0,0.0,0.0,0.0,0.0,0.0,0.0,0.0,0.0,0.0,0.0,0.0,0.0,0.0,0.0,0.0,0.0,0.0,0.0,0.0,0.0,0.0,0.0,0.0,0.0,0.0,0.0,0.0,0.0,0.0,0.0,0.0,0.0,0.0,0.0,0.0,0.0,0.0,0.0,0.0,0.0,0.0,0.0,0.0,0.0,0.0,0.0,0.0,0.0,0.0,0.0,0.0,0.0,0.0,0.0,0.0,0.0,0.0,0.0,0.0,0.0,0.0,0.0,0.0,0.0,0.0,0.0,0.0,0.0,0.0,0.0,0.0,0.0,0.0,0.0,0.0,0.0,0.0,0.0,0.0,0.0,0.0,0.0,0.0,0.0,0.0,0.0,0.0,0.0,0.0,0.0,0.0,0.0,0.0,0.0,0.0,0.0,0.0,0.0,0.0,0.0,0.0,0.0,0.0,0.0,0.0,0.0,0.0,0.0,0.0,0.0,0.0,0.0,0.0,0.0,0.0,0.0,0.0,0.0,0.0,0.0,0.0,0.0,0.0,0.0,0.0,0.0,0.0,0.0,0.0,0.0,0.0,0.0,0.0,0.0,0.0,0.0,0.0,0.0,0.0,0.0,0.0,0.0,0.0,0.0,0.0,0.0,0.0,0.0,0.0,0.0,0.0,0.0,0.0,0.0,0.0,0.0,0.0,0.0,0.0,0.0,0.0,0.0,0.0,0.0,0.0,0.0,0.0,0.0,0.0,0.0,0.0,0.0,0.0,0.0,0.0,0.0,0.0,0.0,0.0,0.0,0.0,0.0,0.0,0.0,0.0,0.0,0.0,0.0,0.0,0.0,0.0,0.0,0.0,0.0,0.0,0.0,0.0,0.0,0.0,0.0,0.0,0.0,0.0,0.0,0.0,0.0,0.0,0.0,0.0,0.0,0.0,0.0,0.0,0.0,0.0,0.0,0.0,0.0,0.0,0.0,0.0,0.0,0.0,0.0,0.0,0.0,0.0,0.0,0.0,0.0,0.0,0.0,0.0,0.0,0.0,0.0,0.0,0.0,0.0,0.0,0.0,0.0,0.0,0.0,0.0,0.0,0.0,0.0,0.0,0.0,0.0,0.0,0.0,0.0,0.0,0.0,0.0,0.0,0.0,0.0,0.0,0.0,0.0,0.0,0.0,0.0,0.0,0.0,0.0,0.0,0.0,0.0,0.0,0.0,0.0,0.0,0.0,0.0,0.0,0.0,0.0,0.0,0.0,0.0,0.0,0.0,0.0,0.0,0.0,0.0,0.0,0.0,0.0,0.0,0.0,0.0,0.0,0.0,0.0,0.0,0.0,0.0,0.0,0.0,0.0,0.0,0.0,0.0,0.0,0.0,0.0,0.0,0.0,0.0,0.0,0.0,0.0,0.0,0.0,0.0,0.0,0.0,0.0,0.0,0.0,0.0,0.0,0.0,0.0,0.0,0.0,0.0,0.0,0.0,0.0,0.0,0.0,0.0,0.0,0.0,0.0,0.0,0.0,0.0,0.0,0.0,0.0,0.0,0.0,0.0,0.0,0.0,0.0,0.0,0.0,0.0,0.0,0.0,0.0,0.0,0.0,0.0,0.0,0.0,0.0,0.0,0.0,0.0,0.0,0.0,0.0,0.0,0.0,0.0,0.0,0.0,0.0,0.0,0.0,0.0,0.0,0.0,0.0,0.0,0.0,0.0,0.0,0.0,0.0,0.0,0.0,0.0,0.0,0.0,0.0,0.0,0.0,0.0,0.0,0.0,0.0,0.0,0.0,0.0,0.0,0.0,0.0,0.0,0.0,0.0,0.0,0.0,0.0,0.0,0.0,0.0,0.0,0.0,0.0,0.0,0.0,0.0,0.0,0.0,0.0,0.0,0.0,0.0,0.0,0.0,0.0,0.0,0.0,0.0,0.0,0.0,0.0,0.0,0.0,0.0,0.0,0.0,0.0,0.0,0.0,0.0,0.0,0.0,0.0,0.0,0.0,0.0,0.0,0.0,0.0,0.0,0.0,0.0,0.0,0.0,0.0,0.0,0.0,0.0,0.0,0.0,0.0,0.0,0.0,0.0,0.0,0.0,0.0,0.0,0.0,0.0,0.0,0.0,0.0,0.0,0.0,0.0,0.0,0.0,0.0,0.0,0.0,0.0,0.0,0.0,0.0,0.0,0.0,0.0,0.0,0.0,0.0,0.0,0.0,0.0,0.0,0.0,0.0,0.0,0.0,0.0,0.0,0.0,0.0,0.0,0.0,0.0,0.0,0.0,0.0,0.0,0.0,0.0,0.0,0.0,0.0,0.0,0.0,0.0,0.0,0.0,0.0,0.0,0.0,0.0,0.0,0.0,0.0,0.0,0.0,0.0,0.0,0.0,0.0,0.0,0.0,0.0,0.0,0.0,0.0,0.0,0.0,0.0,0.0,0.0,0.0,0.0,0.0,0.0,0.0,0.0,0.0,0.0,0.0,0.0,0.0,0.0,0.0,0.0,0.0,0.0,0.0,0.0,0.0,0.0,0.0,0.0,0.0,0.0,0.0,0.0,0.0,0.0,0.0,0.0,0.0,0.0,0.0,0.0,0.0,0.0,0.0,0.0,0.0,0.0,0.0,0.0,0.0,0.0,0.0,0.0,0.0,0.0,0.0,0.0,0.0,0.0,0.0,0.0,0.0,0.0,0.0,0.0,0.0,0.0,0.0,0.0,0.0,0.0,0.0,0.0,0.0,0.0,0.0,0.0,0.0,0.0,0.0,0.0,0.0,0.0,0.0,0.0,0.0,0.0,0.0,0.0,0.0,0.0,0.0,0.0,0.0,0.0,0.0,0.0,0.0,0.0,0.0,0.0,0.0,0.0,0.0,0.0,0.0,0.0,0.0,0.0,0.0,0.0,0.0,0.0,0.0,0.0,0.0,0.0,0.0,0.0,0.0,0.0,0.0,0.0,0.0,0.0,0.0,0.0,0.0,0.0,0.0,0.0,0.0,0.0,0.0,0.0,0.0,0.0,0.0,0.0,0.0,0.0,0.0,0.0,0.0,0.0,0.0,0.0,0.0,0.0,0.0,0.0,0.0,0.0,0.0,0.0,0.0,0.0,0.0,0.0,0.0,0.0,0.0,0.0,0.0,0.0,0.0,0.0,0.0,0.0,0.0,0.0,0.0,0.0,0.0,0.0,0.0,0.0,0.0,0.0,0.0,0.0,0.0,0.0,0.0,0.0,0.0,0.0,0.0,0.0,0.0,0.0,0.0,0.0,0.0,0.0,0.0,0.0,0.0,0.0,0.0,0.0,0.0,0.0,0.0,0.0,0.0,0.0,0.0,0.0,0.0,0.0,0.0,0.0,0.0,0.0,0.0,0.0,0.0,0.0,0.0,0.0,0.0,0.0,0.0,0.0,0.0,0.0,0.0,0.0,0.0,0.0,0.0,0.0,0.0,0.0,0.0,0.0,0.0,0.0,0.0,0.0,0.0,0.0,0.0,0.0,0.0,0.0,0.0,0.0,0.0,0.0,0.0,0.0,0.0,0.0,0.0,0.0,0.0,0.0,0.0,0.0,0.0,0.0,0.0,0.0,0.0,0.0,0.0,0.0,0.0,0.0,0.0,0.0,0.0,0.0,0.0,0.0,0.0,0.0,0.0,0.0,0.0,0.0,0.0,0.0,0.0,0.0,0.0,0.0,0.0,0.0,0.0,0.0,0.0,0.0,0.0,0.0,0.0,0.0,0.0,0.0,0.0,0.0,0.0,0.0,0.0,0.0,0.0,0.0,0.0,0.0,0.0,0.0,0.0,0.0,0.0,0.0,0.0,0.0,0.0,0.0,0.0,0.0,0.0,0.0,0.0,0.0,0.0,0.0,0.0,0.0,0.0,0.0,0.0,0.0,0.0,0.0,0.0,0.0,0.0,0.0,0.0,0.0,0.0,0.0,0.0,0.0,0.0,0.0,0.0,0.0,0.0,0.0,0.0,0.0,0.0,0.0,0.0,0.0,0.0,0.0,0.0,0.0,0.0,0.0,0.0,0.0,0.0,0.0,0.0,0.0,0.0,0.0,0.0,0.0,0.0,0.0,0.0,0.0,0.0,0.0,0.0,0.0,0.0,0.0,0.0,0.0,0.0,0.0,0.0,0.0,0.0,0.0,0.0,0.0,0.0,0.0,0.0,0.0,0.0,0.0,0.0,0.0,0.0,0.0,0.0,0.0,0.0,0.0,0.0,0.0,0.0,0.0,0.0,0.0,0.0,0.0,0.0,0.0,0.0,0.0,0.0,0.0,0.0,0.0,0.0,0.0,0.0,0.0,0.0,0.0,0.0,0.0,0.0,0.0,0.0,0.0,0.0,0.0,0.0,0.0,0.0,0.0,0.0,0.0,0.0,0.0,0.0,0.0,0.0,0.0,0.0,0.0,0.0,0.0,0.0,0.0,0.0,0.0,0.0,0.0,0.0,0.0,0.0,0.0,0.0,0.0,0.0,0.0,0.0,0.0,0.0,0.0,0.0,0.0,0.0,0.0,0.0,0.0,0.0,0.0,0.0,0.0,0.0,0.0,0.0,0.0,0.0,0.0,0.0,0.0,0.0,0.0,0.0,0.0,0.0,0.0,0.0,0.0,0.0,0.0,0.0,0.0,0.0,0.0,0.0,0.0,0.0,0.0,0.0,0.0,0.0,0.0,0.0,0.0,0.0,0.0,0.0,0.0,0.0,0.0,0.0,0.0,0.0,0.0,0.0,0.0,0.0,0.0,0.0,0.0,0.0,0.0,0.0,0.0,0.0,0.0,0.0,0.0,0.0,0.0,0.0,0.0,0.0,0.0,0.0,0.0,0.0,0.0,0.0,0.0,0.0,0.0,0.0,0.0,0.0,0.0,0.0,0.0,0.0,0.0,0.0,0.0,-5.2119,-5.1906,0.0,0.0,0.0,0.0,0.0,0.0,0.0,0.0,0.0,0.0,0.0,0.0,0.0,0.0,0.0,0.0,0.0,0.0,0.0,0.0,0.0,0.0,0.0,-4.9054,-4.9642,-4.9873,-4.9849,-4.9674,-4.9381,-4.926,0.0,0.0,0.0,0.0,-4.7029,-4.6595,-4.6318,-4.6192,-4.549,-4.4992,-4.4601,-4.5387,-4.6714,-4.8413,0.0,0.0,0.0,0.0,0.0,0.0,0.0,0.0,0.0,0.0,0.0,0.0,0.0,0.0,0.0,0.0,0.0,0.0,0.0,0.0,0.0,0.0,0.0,0.0,0.0,0.0,0.0,0.0,0.0,0.0,0.0,0.0,0.0,0.0,0.0,0.0,0.0,0.0,0.0,0.0,0.0,0.0,0.0,0.0,0.0,0.0,0.0,0.0,0.0,0.0,0.0,0.0,0.0,0.0,0.0,0.0,0.0,0.0,0.0,0.0,0.0,0.0,0.0,0.0,0.0,0.0,0.0,0.0,0.0,0.0,-5.247,-5.1922,0.0,0.0,0.0,0.0,0.0,0.0,0.0,0.0,0.0,0.0,0.0,0.0,0.0,0.0,0.0,0.0,0.0,0.0,0.0,0.0,0.0,-4.6164,-4.7147,-4.7928,-4.8616,-4.9372,-4.9441,-4.935,-4.9138,-4.9002,-4.8636,-4.7875,-4.7484,-4.6864,-4.5985,-4.5268,-4.4854,-4.4733,-4.3163,-4.2196,-4.187,-4.2097,-4.3727,-4.6389,-4.7241,0.0,0.0,0.0,0.0,0.0,0.0,0.0,0.0,0.0,0.0,0.0,0.0,0.0,0.0,0.0,0.0,0.0,0.0,0.0,0.0,0.0,0.0,0.0,0.0,0.0,0.0,0.0,0.0,0.0,0.0,0.0,0.0,0.0,0.0,0.0,0.0,0.0,0.0,0.0,0.0,0.0,0.0,0.0,0.0,0.0,0.0,0.0,0.0,0.0,0.0,0.0,0.0,0.0,0.0,0.0,0.0,0.0,0.0,0.0,0.0,0.0,0.0,0.0,-5.4844,-5.5132,-5.5132,-5.5132,-5.5341,-5.5621,-5.3668,-5.2606,-5.2202,-5.1524,0.0,0.0,0.0,0.0,0.0,0.0,0.0,0.0,0.0,0.0,0.0,0.0,0.0,0.0,0.0,0.0,0.0,0.0,0.0,-4.5673,-4.6143,-4.6848,-4.7584,-4.8321,-4.842,-4.8515,-4.8832,-4.8192,-4.7787,-4.772,-4.6324,-4.5287,-4.4731,-4.3847,-4.2997,-4.2209,-4.113,-4.0614,-4.0637,-4.0741,-4.1443,-4.2723,-4.4738,-4.6035,-4.6698,0.0,0.0,0.0,0.0,0.0,0.0,0.0,0.0,0.0,0.0,0.0,0.0,0.0,0.0,0.0,0.0,0.0,0.0,0.0,0.0,0.0,0.0,0.0,0.0,0.0,0.0,0.0,0.0,0.0,0.0,0.0,0.0,0.0,0.0,0.0,0.0,0.0,0.0,0.0,0.0,0.0,-5.2121,-5.2221,0.0,0.0,0.0,0.0,0.0,0.0,0.0,0.0,0.0,0.0,0.0,0.0,0.0,-5.3468,-5.4613,-5.5031,-5.5862,-5.7009,-5.7415,-5.7611,-5.7611,-5.7611,-5.7671,-5.7648,-5.6792,0.0,-5.3567,-5.2915,0.0,0.0,0.0,0.0,0.0,0.0,0.0,0.0,0.0,0.0,0.0,0.0,0.0,0.0,0.0,0.0,0.0,0.0,0.0,0.0,0.0,-4.6078,-4.6613,-4.7638,-4.7869,-4.8,-4.8163,-4.756,-4.7022,-4.6622,-4.5341,-4.4181,-4.3292,-4.2298,-4.0935,-3.9299,-3.8758,-3.8473,-3.8444,-3.863,-3.9234,-4.0275,-4.1637,-4.3208,-4.4837,-4.5503,0.0,0.0,0.0,0.0,0.0,0.0,0.0,0.0,0.0,0.0,0.0,0.0,0.0,0.0,0.0,0.0,0.0,0.0,0.0,0.0,0.0,0.0,0.0,0.0,0.0,0.0,0.0,0.0,0.0,0.0,0.0,0.0,0.0,0.0,0.0,0.0,0.0,0.0,0.0,-5.3074,-5.4191,-5.3889,-5.3734,-5.3156,0.0,0.0,0.0,0.0,0.0,0.0,0.0,0.0,0.0,-5.4764,-5.5519,-5.6264,-5.6838,-5.7685,-5.8391,-5.8961,-5.9542,-5.9817,-5.9817,-5.9817,-5.9817,-5.9787,-5.9488,-5.8368,-5.6654,-5.4488,-5.2748,-5.1272,0.0,0.0,0.0,0.0,-4.923,-4.9174,0.0,0.0,0.0,0.0,0.0,0.0,0.0,0.0,0.0,0.0,0.0,0.0,-4.5173,-4.5113,-4.5538,-4.6867,-4.71,-4.727,-4.7438,-4.675,-4.6122,-4.5626,-4.4326,-4.3135,-4.1981,-4.0557,-3.8907,-3.7097,-3.6853,-3.6735,-3.6734,-3.7026,-3.7656,-3.8549,-3.9121,-4.0675,-4.3011,-4.3736,-4.3778,-4.3443,0.0,0.0,0.0,0.0,0.0,0.0,0.0,0.0,0.0,0.0,0.0,0.0,0.0,0.0,0.0,0.0,0.0,0.0,0.0,0.0,0.0,0.0,0.0,0.0,0.0,0.0,0.0,0.0,0.0,0.0,0.0,0.0,0.0,0.0,0.0,0.0,0.0,-5.48,-5.603,-5.6167,-5.5858,-5.5197,0.0,0.0,0.0,0.0,0.0,0.0,-5.6453,-5.6777,-5.7174,-5.7655,-5.8434,-5.889,-5.889,-6.0027,-6.0595,-6.0595,-6.1283,-6.1613,-6.1613,-6.1613,-6.1613,-6.1583,-6.1253,-6.0535,-5.9398,-5.6436,-5.4221,-5.2606,-5.1626,-5.0757,-5.0035,-5.0185,-5.005,-4.9764,0.0,0.0,0.0,0.0,0.0,0.0,0.0,0.0,0.0,0.0,0.0,-4.3542,-4.4131,-4.3886,-4.4285,-4.5642,-4.5805,-4.6092,-4.6793,-4.5566,-4.4854,-4.5049,-4.3235,-4.1851,-4.106,-3.8649,-3.7007,-3.6273,-3.5922,-3.5967,-3.6334,-3.6616,-3.7036,-3.7598,-3.7821,-3.921,-4.1449,-4.2082,-4.2515,-4.2849,-4.2948,0.0,0.0,0.0,0.0,0.0,0.0,0.0,0.0,0.0,0.0,0.0,0.0,0.0,0.0,0.0,0.0,0.0,0.0,0.0,0.0,0.0,0.0,0.0,0.0,0.0,0.0,0.0,0.0,0.0,0.0,0.0,0.0,0.0,0.0,0.0,0.0,0.0,0.0,-5.9425,-5.8262,0.0,0.0,0.0,0.0,-5.7739,-5.8101,-5.8783,-6.0138,-6.0611,-6.0835,-6.0864,-6.0924,-6.0954,-6.0954,-6.1642,-6.2002,-6.2002,-6.266,-6.2989,-6.2989,-6.2989,-6.2989,-6.2899,-6.1642,-6.1074,-6.0864,-5.877,-5.6406,-5.4042,-5.3324,-5.2247,-5.1109,-5.1109,-5.072,-5.0182,0.0,0.0,0.0,0.0,0.0,-4.771,-4.7472,-4.6672,-4.5784,-4.492,-4.3939,-4.348,-4.3928,-4.3573,-4.3751,-4.4868,-4.5073,-4.5295,-4.5765,-4.4573,-4.3883,-4.3952,-4.2115,-4.0347,-3.8789,-3.7098,-3.6185,-3.6068,-3.5561,-3.5678,-3.6362,-3.6445,-3.6687,-3.7041,-3.7493,-3.8277,-3.9419,-4.0356,-4.1194,-4.1917,-4.2102,-4.245,0.0,0.0,0.0,0.0,0.0,0.0,0.0,0.0,0.0,0.0,0.0,0.0,0.0,0.0,0.0,0.0,0.0,0.0,0.0,0.0,0.0,0.0,0.0,0.0,0.0,0.0,0.0,0.0,0.0,0.0,0.0,0.0,0.0,0.0,0.0,0.0,0.0,-6.1215,-6.0496,0.0,-6.108,-6.0039,-5.9871,-6.1443,-6.1834,-6.2445,-6.3344,-6.3498,-6.3617,-6.3617,-6.3199,-6.2959,-6.2959,-6.281,-6.272,-6.272,-6.2959,-6.3079,-6.3079,-6.3079,-6.3079,-6.3019,-6.2121,-6.1493,-6.1014,-5.9877,-5.7842,-5.5418,-5.473,-5.3653,-5.2486,-5.2486,-5.2336,-5.2067,0.0,0.0,0.0,0.0,0.0,-4.785,-4.7536,-4.6812,-4.5935,-4.4947,-4.3818,-4.3261,-4.3553,-4.3047,-4.3131,-4.4213,-4.4381,-4.4486,-4.4645,-4.3666,-4.2989,-4.2771,-4.0746,-3.8782,-3.7011,-3.6115,-3.5721,-3.5815,-3.5488,-3.5709,-3.6405,-3.6405,-3.6452,-3.6593,-3.7045,-3.7617,-3.8354,-3.8964,-4.0018,-4.1267,-4.1612,-4.1991,-4.2477,0.0,0.0,0.0,0.0,0.0,0.0,0.0,0.0,0.0,0.0,0.0,0.0,0.0,0.0,0.0,0.0,0.0,0.0,0.0,0.0,0.0,0.0,0.0,0.0,0.0,0.0,0.0,0.0,0.0,0.0,0.0,0.0,0.0,0.0,-5.9265,-6.1225,-6.3715,-6.3376,-6.3512,-6.4916,-6.3993,-6.388,-6.5201,-6.5353,-6.5533,-6.6011,-6.6011,-6.5802,-6.5383,-6.4695,-6.4246,-6.4006,-6.3378,-6.3079,-6.3079,-6.3079,-6.3079,-6.3079,-6.3079,-6.3079,-6.3019,-6.2151,-6.1523,-6.1044,-6.0116,-5.8471,-5.6436,-5.5987,-5.5149,-5.4162,-5.3952,-5.3563,-5.3054,0.0,0.0,0.0,0.0,0.0,-4.8048,-4.7557,-4.6949,-4.6074,-4.477,-4.3551,-4.288,-4.2997,-4.2364,-4.2395,-4.3563,-4.3675,-4.3615,-4.355,-4.2873,-4.213,-4.1423,-3.9099,-3.7232,-3.5976,-3.5702,-3.553,-3.5398,-3.5734,-3.6063,-3.6405,-3.6405,-3.6405,-3.6405,-3.6455,-3.7155,-3.8383,-3.8117,-3.9076,-4.0935,-4.1369,-4.1725,-4.2053,0.0,0.0,0.0,0.0,0.0,0.0,0.0,0.0,0.0,0.0,0.0,0.0,0.0,0.0,0.0,0.0,0.0,0.0,0.0,0.0,0.0,0.0,0.0,0.0,0.0,0.0,0.0,0.0,0.0,0.0,0.0,0.0,0.0,-5.9358,-6.1089,-6.3573,-6.6988,-6.6852,-6.7336,-6.9323,-6.8053,-6.7657,-6.9004,-6.8465,-6.8046,-6.8016,-6.8016,-6.7418,-6.6071,-6.5383,-6.4695,-6.4036,-6.3408,-6.3079,-6.3079,-6.3079,-6.3079,-6.3079,-6.3079,-6.3079,-6.3019,-6.1672,-6.1104,-6.1014,-5.9668,-5.8321,-5.7124,-5.7094,-5.6705,-5.6128,-5.5418,-5.4341,-5.2995,0.0,0.0,0.0,-4.8306,-4.8265,-4.8068,-4.7699,-4.7151,-4.6341,-4.5127,-4.4073,-4.351,-4.3622,-4.2976,-4.2769,-4.3358,-4.3144,-4.2833,-4.2437,-4.1656,-4.0558,-3.9173,-3.7853,-3.657,-3.5386,-3.5184,-3.5141,-3.5175,-3.5461,-3.5877,-3.6405,-3.6405,-3.6405,-3.643,-3.7186,-3.7762,-3.8139,-3.9094,-3.98,-4.035,-4.0723,-4.1241,-4.1779,0.0,0.0,0.0,0.0,0.0,0.0,0.0,0.0,0.0,0.0,0.0,0.0,0.0,0.0,0.0,0.0,0.0,0.0,0.0,0.0,0.0,0.0,0.0,0.0,0.0,0.0,0.0,0.0,0.0,0.0,0.0,-5.9228,-6.1123,-6.2028,-6.3503,-6.5677,-6.881,-6.9043,-6.9759,-7.1768,-7.0684,-7.0171,-7.1038,-7.047,-6.9692,-6.8764,-6.8704,-6.8106,-6.6759,-6.5622,-6.4934,-6.4755,-6.3647,-6.3079,-6.3079,-6.3079,-6.3079,-6.3079,-6.3079,-6.3079,-6.3019,-6.1672,-6.1104,-6.1014,-5.9668,-5.862,-5.7782,-5.7304,-5.6406,-5.5448,-5.5269,-5.4341,-5.3054,0.0,0.0,0.0,-4.8306,-4.8248,-4.8148,-4.7788,-4.7306,-4.659,-4.5416,-4.4445,-4.3776,-4.3647,-4.3063,-4.2785,-4.3027,-4.2755,-4.2399,-4.1839,-4.0777,-3.9549,-3.8269,-3.7299,-3.6282,-3.5127,-3.5208,-3.5197,-3.5111,-3.5596,-3.6056,-3.6405,-3.6405,-3.6405,-3.643,-3.7036,-3.7563,-3.804,-3.8843,-3.955,-4.0109,-4.0589,-4.0914,-4.1408,-4.2611,-4.3499,-4.4197,-4.5296,-4.6497,-4.7732,-4.8337,0.0,0.0,0.0,0.0,0.0,0.0,0.0,0.0,0.0,0.0,0.0,0.0,0.0,0.0,0.0,0.0,0.0,0.0,0.0,0.0,0.0,0.0,0.0,0.0,-6.1291,-6.3487,-6.5177,-6.598,-6.7542,-7.038,-7.1009,-7.1757,-7.3193,-7.2355,-7.1787,-7.1876,-7.1278,-7.035,-6.9064,-6.9004,-6.8375,-6.7029,-6.5712,-6.5024,-6.5024,-6.3737,-6.3079,-6.3079,-6.3079,-6.3079,-6.3079,-6.3079,-6.3079,-6.3019,-6.1672,-6.1104,-6.1014,-5.9668,-5.853,-5.7663,0.0,0.0,0.0,0.0,-5.3862,-5.3054,0.0,0.0,0.0,-4.8306,-4.8306,-4.819,-4.7854,-4.7436,-4.6753,-4.5699,-4.4749,-4.3968,-4.3556,-4.294,-4.2624,-4.2794,-4.254,-4.2048,-4.1392,-4.0202,-3.9142,-3.8356,-3.7459,-3.6463,-3.5396,-3.5695,-3.5653,-3.5232,-3.6042,-3.6405,-3.6405,-3.6405,-3.6405,-3.6452,-3.6528,-3.7132,-3.8163,-3.8213,-3.8994,-4.0262,-4.082,-4.0984,-4.1081,-4.2641,-4.3535,-4.4015,-4.564,-4.7199,-4.8755,-4.9653,0.0,0.0,0.0,0.0,0.0,0.0,0.0,0.0,0.0,0.0,0.0,0.0,0.0,0.0,0.0,0.0,0.0,0.0,0.0,0.0,0.0,0.0,0.0,0.0,-6.3224,-6.5795,-6.8239,-6.8383,-6.9123,-7.1577,-7.2415,-7.3043,-7.3732,-7.3193,-7.2535,-7.1936,-7.1278,-7.035,-6.9064,-6.9004,0.0,0.0,0.0,-6.5024,-6.5024,-6.3737,-6.3079,-6.3079,-6.3079,-6.3079,-6.3079,-6.3079,-6.3079,-6.3019,-6.1672,-6.1104,-6.1014,-5.9668,-5.8321,-5.7094,-5.6944,-5.6555,-5.5888,-5.3892,-5.3174,-5.2995,0.0,0.0,-4.8306,-4.8306,-4.8306,-4.819,-4.7854,-4.76,-4.7084,-4.6098,-4.5442,-4.4995,-4.4912,-4.3697,-4.307,-4.3525,-4.2286,-4.1124,-4.0335,-4.0233,-3.9854,-3.9053,-3.8814,-3.8196,-3.7052,-3.7006,-3.6713,-3.6063,-3.6451,-3.6546,-3.6405,-3.6405,-3.6499,-3.664,-3.7169,-3.7993,-3.8971,-3.9434,-4.015,-4.1121,-4.167,-4.1716,-4.169,-4.3116,-4.4159,-4.4956,-4.6707,-4.817,-4.9453,-5.0483,-5.1147,-5.1503,-5.1609,-5.1133,0.0,0.0,0.0,0.0,0.0,0.0,0.0,0.0,0.0,0.0,0.0,0.0,0.0,0.0,0.0,0.0,0.0,0.0,0.0,-6.3192,-6.5013,-6.6914,-6.934,-6.9666,-7.0171,-7.1697,-7.1996,-7.2355,-7.3043,-7.2475,-7.2026,-7.1906,-7.1278,-7.035,-6.9064,-6.9004,-6.8375,-6.7029,-6.5712,-6.5024,-6.5024,-6.3737,-6.3079,-6.3079,-6.3079,0.0,-6.3079,-6.3079,-6.3079,-6.3019,-6.1672,-6.1104,-6.1014,-5.9668,-5.8321,-5.7004,-5.5957,-5.5478,-5.5209,-5.3713,-5.3174,-5.2995,0.0,-4.8306,-4.8306,-4.8306,-4.8306,-4.8229,-4.8032,-4.7747,-4.7363,-4.6683,-4.6059,-4.5537,-4.5239,-4.3925,-4.3105,-4.3106,-4.1884,-4.1072,-4.1005,-4.0878,-4.0664,-4.0317,-4.011,-3.9505,-3.8503,-3.8273,-3.7819,-3.7182,-3.7215,-3.7222,-3.7083,-3.7083,-3.7129,-3.7294,-3.8028,-3.8787,-3.9599,-4.032,-4.1165,-4.2088,-4.2479,-4.3058,-4.3773,-4.4578,-4.565,-4.6982,-4.8559,-4.9921,-5.1069,-5.1876,-5.2255,-5.2471,-5.2797,-5.2208,-5.1421,0.0,0.0,0.0,0.0,0.0,0.0,0.0,0.0,0.0,0.0,0.0,0.0,0.0,0.0,-5.6631,-5.8847,0.0,-6.2902,-6.5291,-6.6822,-6.8263,-6.9816,-7.026,-7.0799,-7.1757,-7.1876,-7.2026,-7.2355,-7.2086,-7.1757,-7.1427,-7.1098,-7.035,-6.9064,-6.9004,-6.8375,-6.7029,-6.5712,-6.5024,-6.5024,-6.3737,-6.3079,-6.3079,-6.3079,-6.3079,-6.3079,-6.3079,-6.3079,-6.3019,-6.2032,-6.1433,-6.0954,-5.8919,-5.7693,-5.6974,-5.5688,-5.4999,-5.4581,-5.3563,-5.2965,-5.2546,0.0,0.0,-4.8306,-4.8306,-4.8306,-4.8267,-4.8207,-4.7947,-4.7636,-4.724,-4.6625,-4.602,-4.5451,-4.4243,-4.3176,-4.2464,-4.1638,-4.1438,-4.2066,-4.1793,-4.1626,-4.1776,-4.1586,-4.1106,-4.0289,-3.9854,-3.931,-3.8564,-3.8345,-3.8206,-3.805,-3.8155,-3.8208,-3.8326,-3.9137,-3.9934,-4.0635,-4.1355,-4.2249,-4.3273,-4.3539,-4.4648,-4.6139,-4.6316,-4.734,-4.8865,-5.0208,-5.1394,-5.2359,-5.2949,-5.3086,-5.3139,-5.376,-5.3064,-5.2062,-5.2237,-5.1359,0.0,0.0,0.0,0.0,0.0,0.0,0.0,0.0,-5.1802,-5.3637,-5.5234,-5.7544,-5.9905,-6.1964,-6.3682,-6.5353,-6.7089,-6.8405,-6.9423,-7.0081,-7.059,-7.1098,-7.1637,-7.1697,-7.1697,-7.1697,-7.1697,-7.1487,-7.0949,-7.0799,-7.0231,-6.9064,-6.8884,-6.8256,-6.7029,-6.5712,-6.5024,-6.5024,-6.3737,-6.3079,-6.3079,-6.3079,-6.3079,-6.3079,-6.3079,-6.3079,-6.3019,-6.2241,-6.1523,-6.0715,-5.8141,-5.7094,-5.6974,-5.5688,-5.47,-5.3952,-5.3384,-5.2755,-5.2097,0.0,0.0,0.0,-4.8306,-4.8306,-4.8267,-4.8207,-4.8088,-4.787,-4.7657,-4.7254,-4.6835,-4.6459,-4.5172,-4.3844,-4.2613,-4.1969,-4.185,-4.2503,-4.2751,-4.2984,-4.326,-4.3617,-4.3585,-4.3079,-4.2434,-4.1608,-4.059,-4.0133,-3.9536,-3.8774,-3.9355,-3.9707,-3.9961,-4.0602,-4.169,-4.31,-4.3184,-4.3871,-4.4897,-4.511,-4.6177,-4.7619,-4.8021,-4.8536,-4.9212,-5.0486,-5.1327,-5.1992,-5.2605,-5.3144,-5.3597,-5.3823,-5.3377,-5.2834,-5.3295,-5.2023,-5.0596,-5.1211,-5.0747,-5.0134,-5.0493,-5.0823,-5.117,0.0,-5.3901,-5.6394,-5.7974,-6.0819,-6.3407,-6.484,-6.6395,-6.7807,-6.8645,-6.9393,-7.0081,-7.0709,-7.0859,-7.0919,-7.1009,-7.1009,-7.1009,-7.1009,-7.1009,-7.0979,-7.0919,-7.038,-6.9782,-6.9034,-6.8435,-6.7747,-6.6999,-6.5712,-6.5024,-6.5024,-6.3737,-6.3079,-6.3079,-6.3079,-6.3079,-6.3079,-6.3079,-6.3079,-6.3019,-6.1762,-6.0835,-6.0027,-5.7962,-5.7094,-5.6974,-5.5688,-5.4401,-5.3294,-5.3204,-5.2755,-5.2097,0.0,0.0,0.0,-4.8306,-4.8306,-4.8287,-4.8248,-4.8187,-4.8088,-4.8008,-4.76,-4.7232,-4.6903,-4.5369,-4.4018,-4.3099,-4.2502,-4.2727,-4.4042,-4.4345,-4.489,-4.5714,-4.6481,-4.6573,-4.6012,-4.5565,-4.4908,-4.3972,-4.3407,-4.2863,-4.2367,-4.2524,-4.2638,-4.2797,-4.3543,-4.4282,-4.4953,-4.5449,-4.5962,-4.6491,-4.6521,-4.7259,-4.8447,-4.8387,-4.8804,-4.9548,-5.0716,-5.1506,0.0,0.0,-5.2258,-5.2876,-5.3226,-5.3376,-5.3369,-5.3393,-5.2745,-5.2094,-5.212,-5.1869,-5.1653,-5.1867,-5.2386,-5.2998,-5.353,-5.5508,-5.7843,-6.0202,-6.2629,-6.5032,-6.7073,-6.8683,-6.9782,-7.0051,-7.0649,-7.1038,-7.0919,-7.059,-7.038,-7.038,-7.0021,-7.0081,-7.0829,-7.0889,-7.0889,-7.0889,-7.0679,-7.0081,-6.9064,-6.8734,-6.8076,-6.7029,-6.5712,-6.5024,-6.5024,-6.3737,-6.3079,-6.3079,-6.3079,-6.3079,-6.3079,-6.3079,-6.2869,-6.245,-6.1523,-6.0715,-5.9937,-5.7932,-5.7094,-5.6974,-5.5688,-5.4371,-5.3174,-5.3174,-5.2516,-5.1588,0.0,0.0,0.0,-4.8306,-4.8306,-4.8306,-4.8306,-4.8248,-4.8226,-4.8226,-4.7927,-4.7536,-4.7084,-4.5418,-4.4225,-4.3926,-4.3177,-4.3488,-4.5365,-4.5767,-4.6543,-4.7867,-4.8825,-4.9079,-4.8582,-4.8372,-4.7861,-4.7021,-4.6414,-4.5889,-4.5423,-4.5428,-4.5352,-4.5341,-4.6154,-4.6623,-4.6768,-4.7407,-4.7789,-4.7958,-4.7831,-4.8311,-4.9121,-4.8581,-4.8857,-4.9595,-5.0199,-5.072,0.0,-5.0361,-5.0571,-5.1203,-5.1651,-5.2231,-5.2757,-5.2744,-5.3061,-5.337,-5.3198,-5.3265,-5.3464,-5.3823,-5.4483,-5.5164,-5.571,-5.7253,-5.9298,-6.1822,-6.3867,-6.5932,-6.8413,-6.9868,-7.0709,-7.0889,-7.1308,-7.1457,-7.0979,-7.038,-6.9991,-6.9991,-6.9243,-6.9153,-7.026,-7.053,-7.0649,-7.0649,-7.047,-6.9961,-6.9064,-6.8645,-6.7986,-6.7029,-6.5712,-6.5024,-6.5024,-6.3737,-6.3079,-6.3079,-6.3079,-6.3079,-6.3079,-6.2899,-6.254,-6.2061,-6.1194,-6.0535,-5.9937,-5.7932,-5.7094,-5.6974,-5.5688,-5.4491,-5.3443,-5.3264,-5.2336,-5.1229,0.0,0.0,0.0,0.0,-4.8306,-4.8306,-4.8306,-4.8287,-4.8287,-4.8287,-4.8246,-4.785,-4.7017,-4.5442,-4.4664,-4.51,-4.3946,-4.4039,-4.6042,-4.6724,-4.7728,-4.9193,-5.0125,-5.0626,-5.0592,-5.0526,-5.0057,-4.9124,-4.8699,-4.7898,-4.6749,-4.7185,-4.7282,-4.7181,-4.7843,-4.8357,-4.8831,-4.8831,-4.8953,-4.9157,-4.9116,-4.9429,-4.9811,-4.8923,-4.8887,-4.9243,-4.8621,0.0,-4.8297,-4.7638,-4.7848,-4.8461,-4.8651,-4.9469,-5.0555,-5.1392,-5.2717,-5.4055,-5.4743,-5.5147,-5.5619,-5.6946,-5.7433,-5.7663,-5.8049,-5.939,-6.1048,-6.2628,-6.4312,-6.6187,-6.8478,-6.9541,-7.0201,-7.0799,-7.0919,-7.0919,-7.0889,-7.038,-6.9991,-6.9991,-6.8794,-6.8286,-6.9004,-6.9632,-7.0021,-7.0021,-6.9423,-6.9034,-6.9004,-6.7777,-6.7029,-6.6999,-6.5712,-6.5024,-6.5024,-6.3737,-6.3079,-6.3079,-6.3079,-6.3079,-6.3049,-6.2421,-6.2121,-6.2032,-6.0685,-6.0116,-5.9937,-5.7932,-5.7094,-5.6974,-5.5688,-5.479,-5.4102,-5.3443,-5.2336,-5.1229,0.0,0.0,0.0,0.0,0.0,-4.8306,-4.8306,-4.8306,-4.8306,-4.8306,-4.8092,0.0,0.0,0.0,0.0,0.0,-4.4749,-4.5116,-4.6763,-4.7484,-4.8802,-5.0929,-5.1996,-5.2769,-5.3281,-5.341,-5.3122,-5.247,-5.2034,-5.1486,-5.0775,-5.0819,-5.0654,-5.0387,-5.0606,-5.0735,-5.0767,-5.0767,-5.0805,-5.0843,-5.0538,-5.0256,-4.9878,-4.8914,-4.7978,-4.7009,0.0,0.0,-4.6323,-4.5076,-4.5394,-4.6376,-4.6785,-4.7932,-4.9583,-5.1582,-5.3275,-5.4763,-5.6174,-5.6981,-5.7632,-5.8428,-5.8774,-5.9058,-5.9339,-6.0383,-6.1691,-6.3051,-6.4301,-6.5591,-6.7027,-6.8419,-6.9243,-6.9004,-7.0051,-7.059,-6.9752,-6.9453,-6.9004,-6.8106,-6.7208,-6.658,-6.64,-6.7747,-6.8854,-6.9303,-6.9123,-6.8794,-6.8345,-6.7897,-6.7238,-6.637,-6.5473,-6.4814,-6.4366,-6.3498,-6.3079,-6.3079,-6.3079,-6.3079,-6.3049,-6.2391,-6.1852,-6.1403,-6.0475,-5.9847,-5.9308,-5.7752,-5.7094,-5.6974,-5.5688,-5.4521,-5.3503,-5.3264,-5.2336,-5.1169,0.0,0.0,0.0,0.0,0.0,0.0,0.0,0.0,0.0,0.0,0.0,0.0,0.0,0.0,0.0,0.0,0.0,-4.5726,-4.7045,-4.8189,-4.9614,-5.1488,-5.2881,-5.3853,-5.4343,-5.4805,-5.4828,-5.4374,-5.4247,-5.3939,-5.3448,-5.3112,-5.267,-5.2159,-5.2089,-5.1816,-5.1374,-5.1374,-5.1303,-5.1194,-5.0943,-5.0468,-4.9794,-4.8728,-4.7378,0.0,0.0,-4.3883,-4.4255,-4.3298,-4.3539,-4.4398,-4.5243,-4.7068,-4.9456,-5.1919,-5.3934,-5.5804,-5.7802,-5.8893,-5.9571,-6.0287,-6.0693,-6.0887,-6.0748,-6.1243,-6.1998,-6.2818,-6.3235,-6.3771,-6.4871,-6.6246,-6.7238,-6.7268,-6.8944,-7.0021,-6.9423,-6.9153,-6.8675,-6.7807,-6.67,-6.5922,-6.5742,-6.667,-6.7537,-6.8226,-6.8495,-6.8435,-6.7986,-6.7747,-6.7119,-6.6041,-6.5383,-6.4695,-6.4006,-6.3378,-6.3079,-6.3079,-6.3079,-6.3079,-6.3049,-6.2151,-6.1523,-6.1074,-6.0146,-5.9368,-5.868,-5.7543,-5.6974,-5.6645,-5.5598,-5.4521,-5.3533,-5.3264,-5.2486,-5.1439,0.0,0.0,0.0,0.0,0.0,0.0,0.0,0.0,0.0,0.0,0.0,0.0,0.0,0.0,0.0,0.0,0.0,0.0,-4.6917,-4.8636,-5.0005,-5.0947,-5.2785,-5.3813,-5.3885,-5.4766,-5.508,-5.4775,-5.5199,-5.5114,-5.456,-5.4129,-5.3365,-5.2422,-5.2294,-5.1727,-5.089,-5.089,-5.0659,-5.0326,-5.0292,-5.0056,-4.9548,-4.8337,0.0,0.0,0.0,-4.2498,-4.2199,-4.2273,-4.2381,-4.2779,-4.4298,-4.7025,-5.0088,-5.2349,-5.4677,-5.7107,-5.9657,-6.0746,-6.1429,-6.2581,-6.3084,-6.3076,-6.2096,-6.1941,-6.195,-6.1967,-6.1195,-6.0862,-6.2139,-6.3116,-6.4246,-6.5622,-6.7567,-6.9123,-6.9782,-6.9393,-6.9004,-6.8914,-6.7238,-6.6311,-6.6849,-6.637,-6.6311,-6.6879,-6.7537,-6.7926,-6.7926,-6.7328,-6.667,-6.5981,-6.5353,-6.4695,-6.3947,-6.3378,-6.3079,-6.3079,-6.3079,-6.3079,-6.3019,-6.1702,-6.1104,-6.1044,-5.9697,-5.874,-5.8082,-5.7393,-5.6735,-5.6158,-5.5418,-5.473,-5.4072,-5.3384,-5.2725,-5.1977,0.0,0.0,0.0,0.0,0.0,0.0,0.0,0.0,0.0,0.0,0.0,0.0,0.0,0.0,0.0,0.0,0.0,0.0,-4.7072,-4.7849,-4.8987,-5.0624,-5.1382,-5.2378,-5.3797,-5.4038,-5.4387,-5.4817,-5.4804,-5.4563,-5.406,-5.3949,-5.3506,-5.2869,-5.281,-5.2502,-5.2001,-5.1843,-5.1287,-5.0498,0.0,-4.9381,-4.8122,0.0,0.0,0.0,-4.4197,-4.3231,-4.2145,-4.122,-4.2308,-4.4389,-4.6433,-4.8672,-5.1089,-5.3692,-5.6272,-5.8772,-6.1035,-6.2553,-6.3473,-6.3603,-6.3436,-6.3072,-6.2226,-6.1453,-6.0696,-6.0011,-5.9294,-5.8817,-5.9145,-6.0271,-6.1702,-6.3528,-6.5892,-6.7717,-6.8405,-6.9213,-6.9183,-6.7687,-6.7478,-6.6969,-6.5652,-6.6251,-6.661,-6.6281,-6.6879,-6.7238,-6.7238,-6.7089,-6.646,-6.5323,-6.5114,-6.4485,-6.3318,-6.3169,-6.3079,-6.3079,-6.3079,-6.3079,-6.3019,-6.1702,-6.1104,-6.1044,-5.9697,-5.874,-5.8082,-5.7393,-5.6735,-5.6047,-5.491,-5.4042,-5.3354,-5.2695,-5.2037,-5.1349,0.0,0.0,0.0,0.0,0.0,0.0,0.0,0.0,0.0,0.0,0.0,0.0,0.0,0.0,0.0,0.0,0.0,0.0,0.0,-4.7459,-4.8473,-4.9695,-5.0389,-5.1252,-5.236,-5.2761,-5.3117,-5.3485,-5.3626,0.0,-5.3336,-5.3175,-5.2733,-5.2102,-5.2085,-5.1635,-5.1002,-5.0809,0.0,0.0,0.0,0.0,0.0,0.0,0.0,-4.5472,-4.4846,-4.3977,-4.3039,-4.3094,-4.4509,-4.6563,-4.8464,-5.0526,-5.2745,-5.5561,-5.7915,-6.0211,-6.2802,-6.4365,-6.5204,-6.4811,-6.4427,-6.3648,-6.2052,-6.0595,-5.9229,-5.8068,-5.6825,-5.5957,-5.5957,-5.7274,-5.9099,-6.1403,-6.4455,-6.6999,-6.8256,-6.9333,-6.9572,-6.8435,-6.8375,-6.7986,-6.6879,-6.7178,-6.7268,-6.6909,-6.6939,-6.6999,-6.6999,-6.6999,-6.64,-6.5054,-6.5024,-6.4395,-6.3079,-6.3079,-6.3079,-6.3079,-6.3079,-6.2929,-6.26,-6.1583,-6.0954,-6.0595,-5.9548,-5.856,-5.7633,-5.7244,-5.6555,-5.5658,-5.461,-5.3773,-5.3114,-5.2456,-5.1798,-5.1169,0.0,0.0,0.0,0.0,0.0,0.0,0.0,0.0,0.0,0.0,-4.8375,0.0,0.0,0.0,0.0,0.0,0.0,0.0,0.0,0.0,0.0,-4.8518,-4.9531,-5.0164,-5.0419,-5.1114,-5.159,-5.1831,-5.2287,-5.2518,0.0,0.0,0.0,0.0,0.0,0.0,0.0,0.0,0.0,0.0,0.0,0.0,0.0,0.0,0.0,0.0,-4.5447,-4.4773,-4.4613,-4.6241,-4.7585,-4.882,-5.0456,-5.251,-5.4873,-5.7611,-5.961,-6.1567,-6.4574,-6.5975,-6.6514,-6.6002,-6.5357,-6.4176,-6.1659,-5.9479,-5.7547,-5.6062,-5.4181,-5.2815,-5.2905,-5.4491,-5.6675,-5.9398,-6.3079,-6.6311,-6.8315,-6.9393,-6.9961,-6.9871,-6.9482,-6.9183,-6.9004,-6.8465,-6.8076,-6.7986,-6.7358,-6.6999,-6.6999,-6.6999,-6.64,-6.5054,-6.4874,-6.4216,-6.3079,-6.3079,-6.3079,-6.3079,-6.3079,-6.272,-6.2061,-6.1403,-6.0745,-6.0057,-5.9398,-5.8381,-5.7214,-5.7124,-5.6406,-5.5239,-5.4401,-5.3713,-5.3084,-5.2336,-5.1708,-5.1199,0.0,0.0,0.0,0.0,0.0,0.0,0.0,0.0,0.0,0.0,-4.9167,-4.8229,0.0,0.0,0.0,0.0,0.0,0.0,0.0,0.0,0.0,0.0,-4.8125,-4.8732,-4.9594,-4.974,-5.0533,-5.1956,-5.2061,-5.205,-5.1944,-5.1864,0.0,0.0,0.0,0.0,0.0,0.0,0.0,0.0,0.0,0.0,0.0,0.0,0.0,0.0,-4.5853,-4.5915,-4.6559,-4.7629,-4.884,-5.0212,-5.2115,-5.4649,-5.7302,-5.9378,-6.1215,-6.3046,-6.5287,-6.6493,-6.6971,-6.6469,-6.5245,-6.3497,-6.0994,-5.808,-5.5402,-5.361,-5.191,-5.0853,-5.1468,-5.2725,-5.476,-5.7932,-6.1343,-6.4276,-6.6251,-6.8525,-6.9782,-6.9243,-6.9991,-7.0171,-6.9093,-6.8884,-6.8585,-6.8016,-6.7358,-6.6999,-6.6999,-6.6999,-6.64,-6.5054,-6.3977,-6.3318,-6.3079,-6.3079,-6.3079,-6.3079,-6.3079,-6.272,-6.2061,-6.1403,-6.0745,-6.0057,-5.9398,-5.865,-5.7902,-5.7334,-5.6675,-5.5888,-5.4042,-5.3294,-5.3025,-5.1828,-5.1319,-5.1139,0.0,0.0,0.0,0.0,0.0,0.0,0.0,-4.9978,-5.0508,-5.1316,-5.1096,-5.0321,-4.8956,-4.8603,-4.8048,0.0,0.0,0.0,0.0,0.0,0.0,0.0,0.0,0.0,-4.8656,-4.9135,-4.9838,-5.0749,0.0,-5.1332,-5.1271,-5.0831,-5.0367,-4.9862,-4.9403,-4.904,-4.8743,-4.8457,-4.7784,-4.685,-4.7055,-4.6914,0.0,0.0,0.0,0.0,0.0,-4.6907,-4.7589,-4.8155,-4.9726,-5.1728,-5.3423,-5.5471,-5.7715,-5.988,-6.162,-6.3381,-6.5689,-6.7051,-6.7698,-6.6884,-6.524,-6.3042,-5.9945,-5.6606,-5.3592,-5.1469,-5.0095,-4.9314,-4.9643,-5.105,-5.3144,-5.6107,-5.9368,-6.2331,-6.4635,-6.6969,-6.8555,-6.8944,-6.9542,-6.9812,-6.9542,-6.8884,-6.8315,-6.7986,-6.7358,-6.6999,-6.6999,-6.634,-6.5503,-6.4515,-6.3558,-6.3079,-6.3079,-6.3079,-6.3079,-6.3079,-6.272,-6.2211,-6.1553,-6.0894,-6.0206,-5.9548,-5.9249,-5.874,-5.8082,-5.7393,-5.6735,-5.6008,-5.4001,-5.3174,-5.3025,-5.1708,-5.1229,-5.1109,0.0,0.0,0.0,0.0,0.0,0.0,0.0,-5.0692,-5.161,-5.2417,-5.3225,-5.2889,-5.0717,-4.9836,-4.8886,0.0,0.0,0.0,0.0,0.0,0.0,0.0,0.0,0.0,0.0,0.0,0.0,-5.0085,-5.0729,0.0,0.0,0.0,0.0,0.0,-4.8893,-4.8373,-4.7972,-4.7663,-4.7272,0.0,0.0,-4.7162,0.0,0.0,0.0,0.0,0.0,-4.7634,-4.8169,-4.8618,-5.0278,-5.2418,-5.3725,-5.556,-5.7611,-5.962,-6.1416,-6.3255,-6.5586,-6.7298,-6.816,-6.7129,-6.5318,-6.2709,-5.9106,-5.5453,-5.226,-4.991,-4.8757,-4.8117,-4.8267,-4.9673,-5.1618,-5.4132,-5.7184,-6.0116,-6.26,-6.4904,-6.6849,-6.8196,-6.8615,-6.9034,-6.9722,-6.8675,-6.7956,-6.7956,-6.7238,-6.6789,-6.6789,-6.5533,-6.4545,-6.4006,-6.3408,-6.3079,-6.3079,-6.3079,-6.3019,-6.2869,-6.2331,-6.1672,-6.0864,-6.0326,-5.9727,-5.9099,-5.9099,-5.874,-5.8082,-5.7393,-5.6735,-5.6008,-5.4001,-5.3174,-5.3025,-5.1708,-5.1229,-5.1109,0.0,0.0,0.0,0.0,0.0,0.0,0.0,-5.2013,-5.3261,-5.4069,-5.4876,-5.5023,-5.4047,-5.1852,-4.994,0.0,0.0,0.0,0.0,0.0,0.0,0.0,0.0,0.0,0.0,0.0,0.0,-5.159,-5.1789,0.0,0.0,0.0,0.0,0.0,0.0,-4.8942,-4.7992,-4.7783,0.0,0.0,0.0,0.0,0.0,0.0,0.0,0.0,0.0,-4.7964,-4.8291,-4.9466,-5.0299,-5.1089,-5.2278,-5.488,-5.7639,-5.8737,-6.0685,-6.2872,-6.4757,-6.6639,-6.7929,-6.7016,-6.524,-6.2745,-5.8944,-5.5039,-5.1593,-4.9504,-4.8196,-4.7578,-4.8177,-4.897,-5.0122,-5.2157,-5.476,-5.7244,-5.9279,-6.2271,-6.4784,-6.6131,-6.7328,-6.8345,-6.9034,-6.8405,-6.7956,-6.7956,-6.6819,-6.6101,-6.6101,-6.4814,-6.4066,-6.4006,-6.3408,-6.3079,-6.3079,-6.3079,-6.278,-6.2181,-6.2121,-6.1433,-6.0176,-6.0116,-5.9727,-5.9099,-5.9099,-5.874,-5.8082,-5.7393,-5.6735,-5.6008,-5.4001,-5.3174,-5.3025,-5.1708,-5.1229,-5.105,0.0,0.0,0.0,0.0,0.0,0.0,-5.0692,-5.2601,-5.4216,-5.5023,-5.6675,-5.7299,-5.5978,-5.4503,-5.2513,-4.9785,0.0,0.0,0.0,0.0,0.0,0.0,0.0,0.0,0.0,0.0,-5.0744,-5.1667,-5.2307,0.0,0.0,0.0,0.0,0.0,0.0,-4.9984,-4.943,-4.9112,0.0,0.0,0.0,0.0,0.0,0.0,0.0,0.0,0.0,0.0,-4.8891,-4.9278,-4.9856,-5.041,-5.0675,-5.209,-5.4112,-5.6362,-5.8307,-6.0272,-6.296,-6.4989,-6.6161,-6.5627,-6.3923,-6.1368,-5.7472,-5.3942,-5.0851,-4.8804,-4.7804,-4.7399,-4.7638,-4.8237,-4.9194,-5.078,-5.2576,-5.461,-5.7004,-5.9488,-6.1702,-6.3438,-6.4784,-6.6011,-6.7089,-6.6939,-6.6789,-6.6789,-6.5951,-6.5233,-6.4814,-6.4306,-6.3827,-6.3468,-6.3199,-6.3079,-6.3079,-6.3079,-6.275,-6.2091,-6.1702,-6.1014,-6.0086,-5.9668,-5.9338,-5.9099,-5.9099,-5.874,-5.8082,-5.7393,-5.6735,-5.6008,-5.4001,-5.3174,-5.3025,-5.1708,-5.1229,-5.1079,0.0,0.0,0.0,0.0,0.0,-4.9867,-5.0692,-5.2637,-5.4436,-5.5486,-5.7299,-5.8143,-5.7262,-5.6455,-5.4686,-5.1492,-4.9469,0.0,0.0,0.0,0.0,0.0,0.0,0.0,0.0,0.0,-5.1197,-5.1777,-5.2558,-5.3017,0.0,0.0,-5.2234,-5.1977,0.0,0.0,0.0,0.0,0.0,0.0,0.0,0.0,0.0,0.0,0.0,0.0,0.0,0.0,0.0,0.0,0.0,-4.9883,-4.9677,-4.9949,0.0,-5.3973,-5.6028,-5.7963,-6.0739,-6.2736,-6.4023,-6.3704,-6.2154,-5.9703,-5.6086,-5.3013,-5.0321,-4.8323,-4.7538,-4.7309,-4.7309,-4.7698,-4.8416,-4.9733,-5.09,-5.2486,-5.494,-5.6974,-5.8979,-6.0984,-6.254,-6.3947,-6.5293,-6.5592,-6.5802,-6.6011,-6.5203,-6.4515,-6.4036,-6.3827,-6.3528,-6.3079,-6.3079,-6.3079,-6.3079,-6.2869,-6.245,-6.1792,-6.1134,-6.0446,-5.9787,-5.9308,-5.9009,-5.88,-5.88,-5.8321,-5.7513,-5.7034,-5.6466,-5.5688,-5.3892,-5.3174,-5.3025,-5.1708,-5.1229,-5.1109,0.0,0.0,0.0,0.0,0.0,0.0,-5.0692,-5.216,-5.3812,-5.539,-5.6308,-5.7116,-5.7886,-5.7262,-5.599,-5.4041,-5.0557,0.0,0.0,0.0,0.0,0.0,0.0,0.0,0.0,0.0,-5.1047,-5.2208,-5.259,-5.2872,-5.298,-5.3124,-5.2747,-5.1977,0.0,0.0,0.0,0.0,0.0,0.0,0.0,0.0,0.0,0.0,0.0,0.0,0.0,0.0,0.0,0.0,0.0,0.0,0.0,-4.9174,-4.9239,-5.176,-5.4168,-5.6382,-5.7992,-6.002,-6.1615,-6.1481,-6.0074,-5.7992,-5.5171,-5.2567,-5.0095,-4.8024,-4.7409,-4.7309,-4.7309,-4.7309,-4.7758,-4.912,-4.9823,0.0,-5.2935,-5.494,-5.6944,-5.889,-6.0894,-6.263,-6.3887,-6.4635,-6.5323,-6.5951,-6.4755,-6.4006,-6.4006,-6.3408,-6.3079,-6.3079,-6.3079,-6.3079,-6.3079,-6.2421,-6.1762,-6.1104,-6.0416,-5.9757,-5.9129,-5.9099,-5.874,-5.8141,-5.8141,-5.7393,-5.6248,-5.6248,-5.5777,-5.5059,-5.3713,-5.3174,-5.3025,-5.1708,-5.1229,-5.1109,0.0,0.0,0.0,0.0,0.0,0.0,0.0,-5.216,-5.3592,-5.462,-5.5978,-5.6712,-5.6381,-5.6124,-5.5251,-5.3441,-5.1933,0.0,0.0,0.0,0.0,0.0,0.0,0.0,0.0,-4.9811,-5.1383,-5.2772,-5.3157,-5.3809,-5.4627,-5.4796,-5.4399,-5.3628,-5.3628,-5.3023,0.0,0.0,0.0,0.0,0.0,0.0,-4.9107,0.0,0.0,0.0,0.0,0.0,0.0,0.0,0.0,0.0,0.0,0.0,0.0,-4.8596,-5.0703,-5.3174,-5.5232,-5.7079,-5.8435,-5.8279,-5.7152,-5.5439,-5.31,-5.1023,-4.9157,-4.7847,-4.7409,-4.7309,-4.7309,-4.7309,-4.7728,-4.909,-4.9434,-5.0421,-5.2845,-5.4521,-5.6047,-5.7543,-6.0326,-6.26,-6.3887,-6.4635,-6.4934,-6.4665,-6.4246,-6.3827,-6.3378,-6.3169,-6.3079,-6.3079,-6.3079,-6.3079,-6.3079,-6.2421,-6.1762,-6.1104,-6.0416,-5.9727,-5.9099,-5.9099,-5.874,-5.8112,-5.8112,-5.7393,-5.6218,-5.6218,-5.5508,-5.4431,-5.3533,-5.2905,-5.2396,-5.1528,-5.1229,-5.1199,0.0,0.0,0.0,0.0,0.0,0.0,0.0,-5.1646,-5.2821,-5.4216,-5.528,-5.5831,-5.5611,-5.5596,-5.5016,-5.3566,-5.304,0.0,0.0,0.0,0.0,0.0,0.0,0.0,-4.8086,-4.9987,-5.1552,-5.2676,-5.3742,-5.4725,-5.5696,-5.588,-5.575,-5.528,-5.4656,-5.3997,0.0,0.0,0.0,0.0,0.0,0.0,-4.9607,0.0,0.0,0.0,0.0,0.0,0.0,0.0,0.0,0.0,0.0,0.0,0.0,0.0,-4.7865,-4.9839,-5.2104,-5.3663,-5.4643,-5.4891,-5.4174,-5.2947,-5.1325,-4.9857,-4.8611,-4.7688,-4.7396,-4.7309,-4.7309,-4.7309,-4.7728,-4.909,-4.9299,-5.0138,-5.2486,-5.4192,-5.6047,-5.8351,-6.0685,-6.26,-6.3887,-6.4186,-6.4216,-6.4006,-6.3767,-6.3498,-6.3109,-6.3079,-6.3079,-6.3079,-6.3079,-6.2959,-6.272,-6.2061,-6.1403,-6.0715,-6.0027,-5.9368,-5.874,-5.874,-5.8231,-5.7393,-5.7393,-5.6795,0.0,-5.5807,-5.5179,-5.4132,-5.3443,-5.2785,-5.2127,-5.1468,-5.1229,-5.1229,0.0,0.0,0.0,0.0,0.0,0.0,0.0,-5.0875,-5.172,-5.3995,-5.4326,-5.4583,-5.5354,-5.5449,-5.5089,-5.421,0.0,0.0,0.0,0.0,0.0,0.0,0.0,0.0,-4.8377,-5.0257,-5.1603,-5.2259,-5.4349,-5.5713,-5.637,-5.6645,-5.6795,-5.6799,-5.528,-5.4459,0.0,0.0,0.0,0.0,-5.1232,-5.0724,0.0,0.0,0.0,0.0,0.0,0.0,0.0,0.0,0.0,0.0,0.0,0.0,0.0,0.0,0.0,0.0,0.0,-4.9854,-5.0653,-5.1531,-5.1243,-5.053,-4.9702,-4.895,0.0,-4.7412,-4.7279,-4.7309,-4.7309,-4.7309,-4.7728,-4.909,-4.9299,-5.0018,-5.1977,-5.4072,-5.6825,-6.0655,-6.1702,-6.257,-6.3827,-6.3408,-6.3318,-6.3887,-6.3408,-6.3079,-6.3079,-6.3079,-6.3049,-6.3019,-6.3019,-6.272,-6.2091,-6.1403,-6.0715,-6.0086,-5.9368,-5.871,-5.8112,-5.8082,-5.7363,-5.6218,-5.6218,-5.5807,-5.5179,-5.5149,-5.473,-5.4072,-5.3384,-5.2725,-5.2067,-5.1439,-5.1229,-5.1229,0.0,0.0,0.0,0.0,0.0,0.0,0.0,0.0,0.0,0.0,-5.3482,-5.3555,-5.3739,-5.3775,-5.368,0.0,0.0,0.0,0.0,0.0,0.0,0.0,0.0,0.0,-4.8167,-4.9992,-5.1528,-5.2755,-5.4859,-5.6537,-5.7738,-5.8116,-5.8044,-5.7541,-5.663,-5.5725,0.0,0.0,0.0,0.0,-5.1697,-5.0926,0.0,0.0,0.0,0.0,-4.9018,-4.9018,0.0,0.0,0.0,0.0,0.0,0.0,0.0,0.0,-4.4795,-4.4646,-4.5391,0.0,-4.8909,-4.9104,-4.8653,-4.8143,0.0,-4.7336,-4.6783,-4.6591,-4.695,-4.7309,-4.7309,-4.7309,-4.7728,-4.909,-4.9299,-5.0168,-5.2606,-5.5538,-5.8351,-6.0835,-6.1702,-6.2421,-6.3199,-6.3169,-6.3139,-6.3288,-6.3169,-6.3079,-6.3079,-6.3079,-6.2839,-6.2331,-6.2331,-6.2241,-6.2091,-6.0924,-6.0236,-6.0086,-5.8919,-5.8261,-5.8112,-5.7573,-5.6915,-5.6218,-5.6218,-5.5807,-5.5149,-5.464,-5.4042,-5.3354,-5.2695,-5.2037,-5.1439,-5.1289,-5.1229,-5.1229,0.0,0.0,0.0,0.0,0.0,0.0,0.0,0.0,0.0,0.0,0.0,-5.3203,-5.3203,-5.3203,0.0,0.0,0.0,0.0,0.0,0.0,0.0,0.0,0.0,-4.8501,-4.8497,-5.0233,-5.1588,-5.2566,-5.5361,-5.7313,-5.8448,-5.921,-5.9292,-5.8775,-5.7391,-5.6164,-5.5036,-5.458,-5.4239,-5.3894,-5.2434,0.0,0.0,0.0,0.0,0.0,-4.9018,-4.9018,0.0,-4.9018,-4.8767,-4.842,0.0,0.0,0.0,0.0,-4.4427,-4.4031,-4.4258,-4.5364,-4.6531,-4.683,-4.6651,-4.6381,-4.6381,-4.6112,-4.5933,-4.6262,-4.6621,-4.695,-4.7249,-4.7549,-4.8087,-4.9149,-4.9763,-5.1289,-5.4521,-5.7304,-5.9668,-6.1373,-6.2151,-6.269,-6.3049,-6.3079,-6.3079,-6.3079,-6.3079,-6.2959,-6.266,-6.263,-6.2331,-6.1672,-6.1343,-6.1164,-6.1164,-6.0446,-5.9787,-5.9189,-5.8471,-5.7812,-5.7214,-5.6825,-5.6316,-5.5718,-5.5718,-5.5538,-5.5149,-5.4491,-5.3803,-5.3114,-5.2456,-5.1798,-5.1229,-5.1229,-5.1229,-5.1229,0.0,0.0,0.0,0.0,0.0,0.0,0.0,0.0,0.0,0.0,0.0,0.0,0.0,0.0,0.0,0.0,0.0,0.0,0.0,0.0,0.0,0.0,-4.9539,-4.9206,-4.9154,-5.0697,-5.1828,-5.2467,-5.5935,-5.8022,-5.8937,-6.0044,-6.0295,-5.9684,-5.7774,-5.6397,-5.559,-5.5751,-5.548,-5.4811,-5.3212,0.0,0.0,0.0,0.0,0.0,0.0,0.0,0.0,-4.9018,-4.8767,-4.842,-4.7869,0.0,0.0,0.0,0.0,0.0,-4.4138,-4.4167,-4.4377,-4.5244,-4.5364,-4.5304,-4.5304,-4.5214,-4.5304,-4.5903,-4.613,-4.6531,-4.7189,-4.7848,-4.8566,-4.9479,-5.084,-5.3054,-5.6585,-5.883,-6.0535,-6.1792,-6.26,-6.3079,-6.3079,-6.3079,-6.3079,-6.3079,-6.2989,-6.269,-6.2121,-6.2002,-6.1642,-6.0984,-6.0296,-5.9877,-5.9787,-5.9787,-5.9159,-5.7962,-5.7872,-5.7244,-5.6218,-5.6077,-5.5718,-5.5179,-5.5179,-5.5179,-5.5119,-5.4371,-5.3713,-5.3114,-5.2336,-5.1708,-5.1229,-5.1229,-5.1229,-5.1229,0.0,0.0,0.0,0.0,0.0,0.0,0.0,0.0,0.0,0.0,0.0,0.0,0.0,0.0,0.0,0.0,0.0,0.0,0.0,0.0,0.0,-5.1107,-4.9872,-4.9443,-4.9898,-5.0968,-5.2213,-5.3736,-5.666,-5.8671,-5.9808,-6.0498,-6.0092,-5.8758,-5.7764,-5.7292,-5.7158,-5.6321,-5.6011,-5.5889,-5.388,0.0,0.0,0.0,0.0,0.0,0.0,0.0,0.0,-4.9018,-4.8767,-4.842,-4.7869,0.0,0.0,0.0,0.0,0.0,-4.3528,-4.3439,-4.3888,-4.5681,-4.5723,-4.5304,-4.5304,-4.4855,-4.4496,-4.4616,-4.5502,-4.6531,-4.7189,-4.7848,-4.8865,-5.0631,-5.2995,-5.5179,-5.6855,-5.883,-6.0386,-6.1164,-6.2331,-6.3079,-6.3079,-6.3079,-6.3079,-6.3079,-6.257,-6.2211,-6.2091,-6.1553,-6.0954,-6.0266,-5.9608,-5.8979,-5.8441,-5.8441,-5.8022,-5.7244,-5.6735,-5.6376,-5.6188,-5.5598,-5.5299,-5.5179,-5.5179,-5.5179,-5.5089,-5.3862,-5.3264,-5.3054,-5.1858,-5.1319,-5.1229,-5.1229,-5.1229,-5.1229,0.0,0.0,0.0,0.0,0.0,0.0,0.0,0.0,0.0,0.0,0.0,0.0,0.0,0.0,0.0,0.0,0.0,0.0,0.0,0.0,-5.2653,-5.2276,-5.1262,-5.0683,-5.0676,-5.1925,-5.3175,-5.4429,-5.7089,-5.9011,-6.0243,-6.0622,-6.023,-5.9213,-5.8228,-5.7587,-5.7227,-5.6751,-5.6453,-5.6114,0.0,0.0,0.0,0.0,0.0,0.0,0.0,0.0,0.0,0.0,-4.8675,-4.826,-4.7737,0.0,0.0,0.0,0.0,0.0,-4.3858,-4.3828,-4.4127,-4.5454,-4.5005,-4.4227,-4.4227,-4.4287,-4.4407,-4.4766,-4.5633,-4.6621,-4.7638,-4.8656,-5.0331,-5.3384,-5.5508,-5.7214,-5.853,-6.0116,-6.1283,-6.1613,-6.248,-6.3079,-6.3079,-6.275,-6.254,-6.254,-6.1942,-6.1403,-6.1044,-6.0715,-6.0086,-5.9069,-5.874,-5.8082,-5.7064,-5.7064,-5.6915,-5.6585,-5.6316,-5.5987,-5.5628,-5.5329,-5.5179,-5.5179,-5.5179,-5.5179,-5.5089,-5.3743,-5.3174,-5.3054,-5.1738,-5.1229,-5.1229,-5.1229,-5.1229,-5.1229,0.0,0.0,0.0,0.0,0.0,0.0,0.0,0.0,0.0,0.0,0.0,0.0,0.0,0.0,0.0,0.0,0.0,0.0,0.0,-5.3446,-5.3264,-5.3359,-5.2904,-5.2364,-5.179,-5.3078,-5.4432,-5.579,-5.8109,-5.9764,-6.0878,-6.0706,-6.0154,-5.926,-5.8208,-5.7415,-5.6829,-5.6829,-5.6617,-5.6095,0.0,0.0,0.0,0.0,0.0,0.0,0.0,0.0,0.0,0.0,0.0,0.0,0.0,0.0,0.0,-4.4775,-4.4136,-4.368,-4.3618,-4.3629,-4.3778,-4.4436,-4.4077,-4.3559,-4.3708,-4.4037,-4.4556,-4.5364,-4.6082,-4.695,-4.8267,-4.9972,-5.2306,-5.5837,-5.7483,-5.883,-6.0146,-6.1343,-6.2091,-6.2091,-6.254,-6.2839,-6.2839,-6.2241,-6.1882,-6.1882,-6.1253,-6.0565,-5.9877,-5.9697,-5.9099,-5.7932,-5.7752,-5.7184,-5.6248,-5.6017,-5.6008,-5.6008,-5.6008,-5.5688,-5.5179,-5.5179,-5.5179,-5.5179,-5.5179,-5.5089,-5.485,-5.3683,-5.3084,-5.2845,-5.1678,-5.1229,-5.1229,-5.1229,-5.1229,-5.1229,0.0,0.0,0.0,0.0,0.0,0.0,0.0,0.0,0.0,0.0,0.0,0.0,0.0,0.0,0.0,0.0,0.0,0.0,0.0,-5.4231,-5.4373,-5.4132,-5.437,-5.4193,-5.3547,-5.4195,-5.5886,-5.8693,-6.0476,-6.1705,-6.2218,-6.1017,-5.9511,-5.7816,-5.7032,-5.6544,-5.6339,-5.6339,-5.6257,-5.5991,-5.4861,0.0,0.0,0.0,0.0,0.0,0.0,0.0,0.0,0.0,0.0,0.0,0.0,0.0,-4.5462,-4.4099,-4.3274,-4.2612,-4.182,-4.1594,-4.1782,-4.244,-4.3419,-4.4407,-4.5005,-4.4706,-4.4676,-4.595,-4.677,-4.7638,-4.9,-5.1798,-5.461,-5.6675,-5.8171,-5.9518,-6.0864,-6.1642,-6.2091,-6.2091,-6.2121,-6.2181,-6.2181,-6.1583,-6.1194,-6.1194,-6.0535,-5.9877,-5.9219,-5.859,-5.7932,-5.7184,-5.6615,-5.6308,-5.6218,-5.5568,-5.5269,-5.5269,-5.5269,-5.5239,-5.5179,-5.5179,-5.5179,-5.5179,-5.5179,-5.485,-5.4221,-5.3473,-5.2815,-5.2187,-5.1498,-5.1229,-5.1229,-5.1229,-5.1229,-5.1229,0.0,0.0,0.0,0.0,0.0,0.0,0.0,0.0,0.0,0.0,0.0,0.0,0.0,0.0,0.0,0.0,0.0,0.0,0.0,-5.4459,-5.4701,-5.4737,-5.4922,-5.5161,-5.5414,-5.579,-5.7205,-5.9674,-6.1864,-6.2842,-6.2522,-6.0868,-5.9185,-5.7588,-5.6631,-5.5959,-5.5607,-5.5722,-5.578,-5.5773,-5.4681,-5.3445,0.0,0.0,0.0,0.0,0.0,0.0,0.0,0.0,-4.6586,-4.6247,-4.5962,-4.5541,-4.4984,-4.4403,-4.3594,-4.2735,-4.2188,-4.1722,-4.1482,-4.1722,-4.2354,-4.32,-4.4396,-4.5001,-4.556,-4.6453,-4.7274,-4.8217,-4.9545,-5.2407,-5.5245,-5.7183,-5.908,-6.0805,-6.2151,-6.2181,-6.2091,-6.2091,-6.1732,-6.1493,-6.1493,-6.0864,-6.0475,-6.0475,-5.9488,-5.877,-5.8501,-5.7842,-5.7184,-5.6526,-5.6286,-5.5987,-5.5568,-5.5329,-5.5179,-5.5179,-5.5179,-5.5179,-5.5179,-5.5179,-5.5179,-5.5179,-5.476,-5.4431,-5.4132,-5.3025,-5.2426,-5.2127,-5.1468,-5.1229,-5.1229,-5.1229,-5.1229,-5.1229,0.0,0.0,0.0,0.0,0.0,0.0,0.0,0.0,0.0,0.0,0.0,0.0,0.0,0.0,0.0,0.0,0.0,0.0,-5.4224,-5.4381,-5.4567,-5.4821,-5.486,-5.5201,-5.5816,-5.6507,-5.809,-6.0486,-6.2402,-6.2848,-6.1868,-5.985,-5.8115,-5.6645,-5.5642,-5.5101,-5.4892,-5.4765,-5.4984,-5.5184,-5.3997,-5.2904,0.0,0.0,0.0,0.0,0.0,0.0,0.0,0.0,-4.5787,-4.552,-4.5505,-4.5122,-4.4571,-4.4124,-4.3318,-4.241,-4.1648,-4.1115,-4.0876,-4.1265,-4.156,-4.2179,-4.3983,-4.5065,-4.5945,-4.6963,-4.7758,-4.8788,-5.0193,-5.2432,-5.482,-5.703,-5.9224,-6.1052,-6.2157,-6.2184,-6.2032,-6.1822,-6.1194,-6.0715,-6.0505,-5.9877,-5.9368,-5.9159,-5.8291,-5.7723,-5.7513,-5.7064,-5.6526,-5.5867,-5.5867,-5.5538,-5.488,-5.488,-5.476,-5.4551,-5.4551,-5.479,-5.5179,-5.5179,-5.5089,-5.485,-5.4401,-5.3982,-5.3503,-5.2576,-5.2067,-5.1858,-5.1379,-5.1229,-5.1229,-5.1229,-5.1229,-5.1229,0.0,0.0,0.0,0.0,0.0,0.0,0.0,0.0,-5.7997,-5.7997,-5.7997,0.0,0.0,0.0,0.0,0.0,0.0,0.0,-5.4224,-5.3941,-5.3929,-5.4189,-5.4217,-5.4271,-5.4397,-5.6167,-5.847,-6.1298,-6.2009,-6.1569,-6.0047,-5.7814,-5.6093,-5.4771,-5.4023,-5.3881,-5.4168,-5.357,-5.3736,-5.4356,-5.2804,-5.2001,-5.1589,0.0,0.0,0.0,0.0,0.0,0.0,0.0,-4.5169,-4.4912,-4.4885,-4.4773,-4.4319,-4.2978,-4.2175,-4.1354,-3.9805,-3.9439,-3.9738,-4.1055,-4.1232,-4.1685,-4.4057,-4.492,-4.5653,-4.7346,-4.8278,-4.9245,-5.0896,-5.1953,-5.3512,-5.6347,-5.8423,-5.9882,-6.0535,-6.1416,-6.1822,-6.1164,-6.0475,-5.9817,-5.9159,-5.8501,-5.7842,-5.7154,-5.7094,-5.6795,-5.6248,-5.6188,-5.5837,-5.5179,-5.5179,-5.485,-5.4221,-5.4192,-5.3862,-5.3174,-5.3174,-5.3892,-5.5179,-5.5179,-5.482,-5.4192,-5.4192,-5.3443,-5.2187,-5.2187,-5.1798,-5.1229,-5.1229,-5.1229,-5.1229,-5.1229,-5.1229,-5.1229,0.0,0.0,0.0,0.0,0.0,0.0,0.0,0.0,-5.7997,-5.7997,-5.7997,0.0,0.0,0.0,0.0,0.0,0.0,0.0,-5.4393,-5.418,-5.3958,-5.365,-5.442,-5.4768,-5.4551,-5.6576,-5.8869,-6.1298,-6.096,-6.0283,-5.9302,-5.707,-5.5548,-5.4635,-5.389,-5.3651,-5.3814,-5.3096,-5.3022,-5.3286,-5.2323,-5.148,-5.0785,0.0,0.0,0.0,0.0,0.0,0.0,0.0,0.0,0.0,-4.4511,-4.4205,-4.3669,-4.3235,-4.2278,-4.1267,-4.0547,-3.9877,-3.9619,-4.0487,-4.0761,-4.1332,-4.3277,-4.4225,-4.5051,-4.6189,-4.7108,-4.7838,-4.8279,-5.0048,-5.2177,-5.4533,-5.6696,-5.8622,-6.0137,-6.036,-6.0224,-5.9732,-5.9099,-5.8441,-5.7752,-5.7513,-5.7304,-5.7094,-5.6256,-5.5688,-5.5508,-5.4581,-5.3982,-5.3773,-5.3773,-5.3683,-5.3503,-5.3503,-5.3384,-5.3174,-5.3174,-5.3384,-5.3773,-5.3773,-5.3683,-5.3473,-5.2995,-5.2576,-5.2157,-5.1708,-5.1379,-5.1229,-5.1229,-5.1229,-5.1229,-5.1229,-5.1229,-5.1229,0.0,0.0,0.0,0.0,0.0,0.0,0.0,0.0,-5.7997,-5.7997,-5.7997,-5.7997,0.0,0.0,0.0,0.0,0.0,0.0,-5.4436,-5.3997,-5.3658,-5.3484,-5.42,-5.467,-5.4871,-5.5996,-5.7408,-5.9099,-5.9167,-5.8693,-5.7679,-5.6021,-5.4871,-5.4126,-5.3687,-5.3382,-5.3108,-5.2329,-5.2089,-5.2149,-5.1094,-5.0521,-5.0258,0.0,0.0,0.0,0.0,0.0,0.0,0.0,0.0,0.0,-4.4948,-4.4392,-4.3524,-4.3242,-4.2361,-4.1352,-4.0612,-4.0142,-4.0057,-4.0673,-4.1207,-4.196,-4.3226,-4.3951,-4.4564,-4.5302,-4.5673,-4.6137,-4.6948,-4.8491,-5.0406,-5.2631,-5.5053,-5.7131,-5.851,-5.907,-5.913,-5.8746,-5.8112,-5.7453,-5.6795,-5.6735,-5.6526,-5.5987,-5.5239,-5.467,-5.4401,-5.3623,-5.3174,-5.3174,-5.3174,-5.3054,-5.2785,-5.2785,-5.2665,-5.2396,-5.2396,-5.2396,-5.2426,-5.2935,-5.3025,-5.2755,-5.2097,-5.1798,-5.1768,-5.1379,-5.105,-5.0794,-5.1109,-5.105,-5.0823,-5.1109,-5.1229,-5.1229,0.0,0.0,-5.7152,-5.7886,0.0,0.0,0.0,0.0,-5.7997,-5.7997,-5.7997,-5.7997,0.0,0.0,0.0,0.0,0.0,0.0,0.0,-5.3616,-5.3265,-5.359,-5.3806,-5.4352,-5.5302,-5.4873,-5.4939,-5.5513,-5.69,-5.69,-5.5546,-5.4837,-5.4126,-5.3518,-5.3518,-5.3044,-5.2266,-5.1522,-5.1151,-5.098,-4.956,-4.939,-4.9932,-4.9255,0.0,0.0,0.0,0.0,0.0,0.0,0.0,0.0,-4.5818,-4.4997,-4.3748,-4.3102,-4.2367,-4.1519,-4.0375,-4.0395,-4.0842,-4.1318,-4.2246,-4.3137,-4.3592,-4.3787,-4.4004,-4.438,-4.4098,-4.441,-4.6254,-4.7152,-4.8376,-5.0726,-5.3303,-5.525,-5.6092,-5.7445,-5.8248,-5.7915,-5.7281,-5.6675,-5.6047,-5.5978,-5.5418,-5.4192,-5.4072,-5.3743,-5.3114,-5.3025,-5.2995,-5.2995,-5.2995,-5.2725,-5.2127,-5.2127,-5.1798,-5.1229,-5.1229,-5.1229,-5.1259,-5.2456,-5.2665,-5.2067,-5.1468,-5.1199,-5.1139,-5.1139,-5.0704,-5.0166,-5.0823,-5.0734,-5.0255,-5.0913,-5.1229,-5.1229,0.0,0.0,-5.7813,-5.796,0.0,0.0,0.0,0.0,0.0,-5.7997,0.0,0.0,0.0,0.0,0.0,0.0,0.0,0.0,0.0,-5.4194,-5.3983,-5.3766,-5.3993,-5.4565,-5.5499,-5.5007,-5.45,-5.3991,-5.4871,-5.5141,-5.4803,-5.4093,-5.3653,-5.3518,-5.3518,-5.3044,-5.2266,-5.1522,-5.0879,-5.027,-4.9357,-4.9086,-4.9221,-4.9052,-4.9018,0.0,0.0,0.0,0.0,0.0,0.0,0.0,-4.5547,-4.4693,-4.3523,-4.3,-4.2237,-4.1478,-4.0811,-4.072,-4.0958,-4.1498,-4.2446,-4.3148,-4.2842,-4.2583,-4.2442,-4.2596,-4.2969,-4.3421,-4.4134,-4.5093,-4.6567,-4.8935,-5.0363,-5.2044,-5.4259,-5.5267,-5.5888,-5.6146,-5.5678,-5.5104,-5.47,-5.4132,-5.3713,-5.3414,-5.2935,-5.2576,-5.2426,-5.1917,-5.1648,-5.1648,-5.1648,-5.1558,-5.1439,-5.1439,-5.1349,-5.1229,-5.1229,-5.1229,-5.1229,-5.1498,-5.1558,-5.1439,-5.1289,-5.0883,-5.0405,-5.0405,-5.0062,-4.9523,-5.0182,-5.0315,-5.0255,-5.0913,-5.1229,-5.1229,0.0,0.0,0.0,0.0,0.0,0.0,0.0,0.0,0.0,0.0,0.0,0.0,0.0,0.0,0.0,0.0,-5.55,0.0,0.0,0.0,-5.4509,-5.4725,-5.4756,-5.4925,-5.5173,-5.4218,-5.3482,-5.2942,-5.2976,-5.3145,-5.3484,-5.3112,-5.3145,-5.3518,-5.3518,-5.2875,-5.1758,-5.1386,-5.0574,-4.9526,-4.9154,-4.9018,-4.9018,-4.9018,-4.9018,-4.9018,-4.9018,0.0,0.0,0.0,0.0,0.0,0.0,0.0,-4.3743,-4.3235,-4.2585,-4.1948,-4.1357,-4.1492,-4.2035,-4.2886,-4.3208,-4.3251,-4.3081,-4.2332,-4.1565,-4.1315,-4.1621,-4.222,-4.3118,-4.3883,-4.5051,-4.7043,-4.8459,-4.9963,-5.2097,-5.2975,-5.3719,-5.4495,-5.4158,-5.3803,-5.3743,-5.3384,-5.3054,-5.2725,-5.2396,-5.2067,-5.1738,-5.1409,-5.1229,-5.1229,-5.0853,-5.0704,-5.0704,-5.0451,-5.0451,-5.0704,-5.0704,-5.0853,-5.1229,-5.1229,-5.1003,-5.0704,-5.0704,-5.0361,-4.9763,-4.9763,-4.9374,-4.8895,-4.9853,-4.9986,-4.9883,-5.087,-5.1229,-5.1229,0.0,0.0,0.0,0.0,0.0,0.0,0.0,0.0,0.0,0.0,0.0,0.0,0.0,0.0,-5.6418,0.0,0.0,0.0,0.0,0.0,0.0,-5.5757,-5.5636,-5.5214,-5.4503,-5.332,-5.2427,-5.1928,-5.1454,-5.1522,-5.2131,-5.2232,-5.2739,-5.3518,-5.3518,-5.2638,-5.1185,-5.1185,-5.0371,-4.9018,-4.9018,-4.9018,-4.9018,-4.9018,-4.9018,-4.9018,-4.9018,-4.9018,-4.8883,-4.8142,0.0,0.0,0.0,0.0,-4.4068,-4.3658,-4.3143,-4.2585,-4.198,-4.2294,-4.3106,-4.4364,-4.3983,-4.3328,-4.3502,-4.2435,-4.1242,-4.0361,-4.0527,-4.1147,-4.2267,-4.2861,-4.3674,-4.5304,-4.6694,-4.8101,-4.9774,-5.0688,-5.1637,-5.2799,-5.2673,-5.2634,-5.2927,-5.2815,-5.2456,-5.1917,-5.1768,-5.1468,-5.09,-5.087,-5.087,-5.087,-5.0315,-5.0016,-5.0016,-4.9523,-4.9523,-5.0016,-5.0016,-5.0361,-5.087,-5.087,-5.0661,-5.0196,-5.0076,-4.9703,-4.9149,-4.9149,-4.8716,-4.8237,-4.9553,-4.9733,-4.9479,-5.075,-5.1229,-5.1229,0.0,0.0,0.0,0.0,0.0,0.0,0.0,0.0,0.0,0.0,-5.7997,-5.7703,0.0,0.0,0.0,-5.4693,-5.4473,-5.4106,-5.3408,0.0,0.0,-5.5794,-5.6054,-5.5433,-5.3801,-5.3297,-5.2172,-5.0371,-5.0947,-5.1219,-5.1386,-5.1995,-5.2739,-5.3518,-5.3518,-5.2638,-5.1185,-5.1185,-5.0371,-4.9018,-4.9018,-4.9018,-4.9018,-4.9018,-4.9018,-4.9018,-4.9018,-4.9018,-4.8883,-4.8142,-4.7428,0.0,0.0,0.0,-4.427,-4.4068,-4.3687,-4.3174,-4.2617,-4.2635,-4.3142,-4.4491,-4.4068,-4.3267,-4.3089,-4.2424,-4.1463,-4.004,-4.0174,-4.044,-4.0463,-4.1087,-4.2095,-4.3593,-4.4185,-4.5291,-4.7508,-4.8572,-4.9618,-5.0978,-5.117,-5.1464,-5.1951,-5.1178,-5.0554,-5.0465,-4.9972,-4.9659,-4.9569,-4.9569,-4.9569,-4.9569,-4.9479,-4.9449,-4.9449,-4.9359,-4.9359,-4.9449,-4.9449,-4.9479,-4.9569,-4.9569,-4.9793,-5.0166,-4.9643,-4.9015,-4.8416,-4.8416,-4.8027,-4.7578,-4.8895,-4.9389,-4.9479,-5.075,-5.1229,-5.1229,0.0,0.0,0.0,0.0,0.0,0.0,0.0,0.0,0.0,0.0,0.0,-5.7227,0.0,0.0,0.0,-5.3864,-5.3739,-5.3775,-5.3885,-5.44,-5.508,-5.5894,-5.53,-5.4591,-5.3744,-5.2459,-5.1247,-5.0101,-5.0405,-5.0811,-5.1251,-5.2435,-5.3179,-5.3518,-5.3518,-5.2875,-5.1792,-5.1386,-5.0608,-4.9593,-4.9187,-4.9018,-4.9018,-4.9018,-4.9018,-4.9018,-4.9018,-4.9018,-4.8883,-4.8142,-4.7428,-4.665,-4.594,0.0,0.0,0.0,-4.401,-4.3694,-4.326,-4.319,-4.3395,-4.411,-4.3866,-4.3389,-4.3083,-4.2357,-4.1511,-4.047,-4.0126,-4.0024,-4.0084,-4.0255,-4.0883,-4.2316,-4.2936,-4.3785,-4.5419,-4.6544,-4.7553,-4.8613,-4.9157,-4.9601,-4.9917,-4.9634,-4.9536,-4.9703,-4.9434,-4.9299,-4.9299,-4.9299,-4.9299,-4.9299,-4.897,-4.876,-4.876,-4.8356,-4.8356,-4.8716,-4.9149,-4.9299,-4.9299,-4.894,-4.8865,-4.9134,-4.8835,-4.8356,-4.7728,-4.7728,-4.7578,-4.7429,-4.879,-4.9299,-4.9479,-5.075,-5.1229,-5.1229,0.0,0.0,0.0,0.0,0.0,0.0,0.0,0.0,0.0,0.0,0.0,0.0,0.0,0.0,0.0,0.0,-5.306,-5.3338,-5.3989,-5.4181,-5.4602,-5.5426,-5.4532,-5.3806,-5.3358,-5.1716,-5.0556,-4.9859,-5.0031,-5.0473,-5.1219,-5.257,-5.3315,-5.3518,-5.3687,-5.3247,-5.2266,-5.1522,-5.0777,-4.9999,-4.9086,-4.8714,-4.8714,-4.8511,-4.8443,-4.8477,-4.8646,-4.8714,-4.8646,-4.8075,-4.7428,-4.665,-4.594,-4.5196,0.0,0.0,0.0,-4.3789,-4.3578,-4.3426,-4.3458,-4.3898,-4.385,-4.3559,-4.323,-4.242,-4.1484,-4.0802,-4.0062,-3.9566,-3.9734,-3.9525,-3.9801,-4.1174,-4.1653,-4.2276,-4.3492,-4.4573,-4.5491,-4.6278,-4.7263,-4.799,-4.8295,-4.8531,-4.876,-4.9015,-4.891,-4.882,-4.882,-4.882,-4.882,-4.882,-4.8297,-4.8027,-4.8027,-4.7549,-4.7549,-4.8027,-4.8536,-4.882,-4.8745,-4.8267,-4.8027,-4.8027,-4.8027,-4.7758,-4.7309,-4.7309,-4.7309,-4.7429,-4.8566,-4.9179,-4.9449,-5.0541,-5.1079,-5.1229,0.0,0.0,0.0,0.0,0.0,0.0,0.0,0.0,0.0,0.0,0.0,0.0,-5.4832,-5.4774,-5.4241,-5.2758,-5.2635,-5.2761,-5.3054,-5.3894,-5.4261,-5.3948,-5.4217,0.0,-5.213,-5.1437,-5.0463,-4.9267,-4.9791,-5.0473,-5.1219,-5.1995,-5.2773,-5.3551,-5.4228,-5.3721,-5.2266,-5.1522,-5.0777,-4.9965,-4.8545,-4.7939,-4.7872,-4.7192,-4.6921,-4.6989,-4.7733,-4.7939,-4.7939,-4.7906,-4.7428,-4.665,-4.594,-4.5196,-4.4615,0.0,0.0,0.0,-4.3284,-4.2932,-4.288,-4.4218,-4.4179,-4.3771,-4.3611,-4.2624,-4.1466,-4.0576,-3.969,-3.8988,-3.8872,-3.8683,-3.8841,-4.0032,-4.0029,-4.0356,-4.1709,-4.2656,-4.3465,-4.4361,-4.5783,-4.6976,-4.7782,-4.792,-4.803,-4.8327,-4.7758,-4.7399,-4.7399,-4.7399,-4.7399,-4.7399,-4.7369,-4.7369,-4.7369,-4.7309,-4.7309,-4.7369,-4.7399,-4.7399,-4.7399,-4.7369,-4.7369,-4.7369,-4.7369,-4.7339,-4.7309,-4.7309,-4.7309,-4.7369,-4.8057,-4.876,-4.9389,-5.0032,-5.0644,-5.1229,0.0,0.0,0.0,0.0,0.0,0.0,0.0,0.0,0.0,0.0,0.0,0.0,0.0,-5.4189,-5.372,-5.2446,-5.2568,-5.2806,-5.298,-5.3418,-5.3676,-5.3803,-5.3267,-5.2691,-5.2017,-5.0996,-5.0037,-4.9199,-4.9822,-5.0236,-5.0541,-5.2266,-5.2942,-5.2773,-5.3551,-5.3585,-5.301,-5.2232,-5.1488,-5.0744,-4.9729,-4.8748,-4.7872,-4.7631,-4.753,-4.7564,-4.7804,-4.8176,-4.8612,-4.8612,-4.78,-4.6752,-4.6481,-4.5568,-4.4513,-4.3978,-4.3501,-4.3009,-4.2465,-4.266,-4.3061,-4.3202,-4.3778,-4.4086,-4.3242,-4.2766,-4.2154,-4.1038,-4.0049,-3.9294,-3.8809,-3.8682,-3.8759,-3.9213,-3.9652,-4.0158,-4.0641,-4.1773,-4.2632,-4.3061,-4.4211,-4.5196,-4.5749,-4.6392,-4.6948,-4.7376,-4.7342,-4.7309,-4.7309,-4.7309,-4.7309,-4.7309,-4.7309,-4.7309,-4.7309,-4.7309,-4.7309,-4.7309,-4.7309,-4.7309,-4.7309,-4.7309,-4.7309,-4.7309,-4.7309,-4.7309,-4.7309,-4.7309,-4.7309,-4.7429,-4.8506,-4.912,-4.9449,-5.0481,-5.0973,-5.1229,0.0,0.0,0.0,-5.6965,0.0,-5.6077,-5.5786,-5.5549,-5.5402,-5.5437,0.0,0.0,0.0,0.0,-5.3016,-5.1882,-5.2221,-5.2545,-5.2702,-5.2893,-5.3127,-5.3436,-5.2627,-5.205,-5.1865,-5.0718,-4.9878,-4.9381,-4.9616,-4.9864,-5.0135,-5.1657,-5.2198,-5.1961,-5.2503,-5.3044,-5.345,-5.2605,-5.193,-5.139,-5.0013,-4.8904,-4.7931,-4.7365,-4.7197,-4.7292,-4.7527,-4.8023,-4.8554,-4.8824,-4.8176,-4.7124,-4.6887,-4.5799,-4.4445,-4.3639,-4.3354,-4.3075,-4.2137,-4.2532,-4.3149,-4.2833,-4.3556,-4.4138,-4.3357,-4.2875,-4.2291,-4.1272,-4.0465,-3.9663,-3.8951,-3.8846,-3.8743,-3.8584,-3.8981,-3.9448,-3.9753,-4.0593,-4.1415,-4.1897,-4.2873,-4.3836,-4.448,-4.5492,-4.6284,-4.6887,-4.7149,-4.7309,-4.7309,-4.7309,-4.7309,-4.7309,-4.7309,-4.7309,-4.7309,-4.7309,-4.7309,-4.7309,-4.7309,-4.7309,-4.7309,-4.7309,-4.7309,-4.7309,-4.7309,-4.7309,-4.7309,-4.7309,-4.7429,-4.7728,-4.864,-4.9224,-4.9703,-5.0571,-5.0973,-5.1229,-5.9838,-5.9303,-5.8633,-5.7298,-5.6287,-5.5496,-5.5053,-5.4961,-5.4838,-5.4526,0.0,0.0,0.0,0.0,0.0,-5.114,-5.151,-5.1933,-5.2197,-5.2454,-5.2635,-5.2783,-5.2327,-5.1945,-5.1601,-5.0632,-4.9994,-4.9708,-4.9229,-4.9357,-5.0067,-5.0067,-5.0473,-5.1183,-5.1217,-5.2029,-5.3382,-5.2472,-5.2102,-5.1833,-4.9324,-4.8262,-4.7996,-4.6378,-4.5846,-4.6101,-4.683,-4.7316,-4.7729,-4.8534,-4.8391,-4.777,-4.7022,-4.5799,-4.4479,-4.3639,-4.3375,-4.3213,0.0,0.0,0.0,-4.3248,-4.3606,-4.3913,-4.3896,-4.2937,-4.1883,-4.1321,-4.0746,-4.0085,-3.9255,-3.9047,-3.8852,-3.8193,-3.7987,-3.8216,-3.9043,-3.9246,-3.9675,-4.0742,-4.1716,-4.284,-4.4125,-4.5173,-4.6061,-4.6814,-4.7106,-4.7309,-4.7309,-4.7309,-4.7309,-4.7309,-4.7309,-4.7309,-4.7309,-4.7309,-4.7309,-4.7309,-4.7309,-4.7309,-4.7309,-4.7309,-4.7309,-4.7309,-4.7309,-4.7309,-4.7309,-4.7339,-4.7698,-4.8297,-4.8327,-4.9134,-5.0196,-5.0226,-5.0614,-5.1229,-5.9618,-5.8801,-5.7919,-5.6796,-5.5602,-5.4745,-5.446,-5.4333,-5.4239,0.0,0.0,0.0,-5.3272,-5.2844,-5.2509,-5.2319,-5.2334,-5.2468,-5.262,-5.2414,-5.2338,-5.2384,-5.2186,-5.1896,-5.1475,-5.0721,-5.0114,-4.9708,-4.9229,-4.912,-4.9323,-4.983,-5.0202,-5.0439,-5.098,-5.1454,-5.1827,-5.2034,-5.1732,-5.1062,-5.0726,-4.946,-4.7704,-4.7276,-4.6716,-4.6256,-4.6615,-4.7206,-4.7863,-4.8257,-4.8077,-4.7484,-4.6355,-4.5737,-4.5128,-4.3781,-4.3375,-4.324,-4.2436,0.0,0.0,0.0,0.0,0.0,-4.3296,-4.3105,-4.2842,-4.1734,-4.1134,-4.062,-4.0015,-3.9758,-3.9412,-3.8645,-3.8243,-3.8158,-3.8482,-3.8936,-3.9422,-3.99,-4.0911,-4.2039,-4.3129,-4.4312,-4.5401,-4.6329,-4.68,-4.7106,-4.7309,-4.7309,-4.7309,-4.7309,-4.7309,-4.7309,-4.7309,-4.7309,-4.7309,-4.7309,-4.7309,-4.7309,-4.7309,-4.7309,-4.7309,-4.7309,-4.7309,-4.7309,-4.7339,-4.7818,-4.8117,-4.8386,-4.9314,-4.9867,-5.0255,-5.0734,-5.105,-5.1229,-5.9321,-5.843,-5.7535,-5.6276,-5.5349,-5.4585,-5.4045,-5.4187,-5.419,0.0,0.0,0.0,-5.2825,-5.2663,-5.2528,-5.2369,-5.2352,-5.2388,-5.2351,-5.2222,-5.2097,-5.2018,-5.1969,-5.1797,-5.15,-5.0776,-5.02,-4.9796,-4.926,-4.9018,-4.9018,-4.9424,-4.9627,-4.9661,-5.0101,-5.0304,-5.0306,-5.0888,-5.1095,-5.0994,-5.0716,-4.9575,-4.805,-4.7584,-4.6862,-4.6178,-4.6314,-4.681,-4.7472,-4.7671,-4.7632,-4.7399,-4.6709,-4.6355,-4.594,-4.4722,-4.4384,-4.4147,-4.3064,-4.328,-4.3676,-4.32,0.0,0.0,-4.2996,-4.2949,-4.2771,-4.1436,-4.1215,-4.1016,-4.0318,-4.0292,-4.013,-3.9547,-3.9175,-3.888,-3.8536,-3.9003,-3.9413,-3.9743,-4.0683,-4.167,-4.255,-4.3701,-4.4805,-4.5866,-4.6447,-4.6931,-4.7266,-4.7309,-4.7309,-4.7309,-4.7309,-4.7309,-4.7309,-4.7309,-4.7309,-4.7309,-4.7309,-4.7309,-4.7309,-4.7309,-4.7309,-4.7309,-4.7309,-4.7309,-4.7369,-4.8327,-4.873,-4.8805,-4.9823,-5.0375,-5.0644,-5.1079,-5.1229,-5.1229,0.0,-5.8072,-5.7188,-5.5902,-5.5341,-5.4804,-5.4057,-5.4465,-5.4602,0.0,-5.3687,-5.3315,-5.2536,-5.2633,-5.2492,-5.197,-5.2111,-5.2097,-5.1743,-5.1913,-5.1927,-5.1712,-5.1672,-5.1597,-5.1525,-5.0776,-5.02,-4.9884,-4.929,-4.9018,-4.9018,-4.9018,-4.9018,-4.9018,-4.9018,-4.9018,-4.9052,-4.9506,-5.0291,-5.1156,-4.9899,-4.9141,-4.8582,-4.7572,-4.6689,-4.5981,-4.5949,-4.6269,-4.6724,-4.6999,-4.7243,-4.745,-4.7536,-4.7218,-4.6727,-4.5983,-4.5781,-4.5476,-4.4063,-4.422,-4.4463,-4.3648,-4.3889,0.0,-4.3113,-4.2808,-4.2344,-4.1092,-4.1276,-4.1363,-4.0451,-4.0697,-4.0919,-4.0563,-4.0479,-4.0101,-3.9054,-3.927,-3.9651,-3.9881,-4.0679,-4.1492,-4.2177,-4.3273,-4.4322,-4.5321,-4.618,-4.68,-4.7266,-4.7309,-4.7309,-4.7309,-4.7309,-4.7309,-4.7309,-4.7309,-4.7309,-4.7309,-4.7309,-4.7309,-4.7309,-4.7309,-4.7309,-4.7309,-4.7309,-4.7309,-4.7399,-4.876,-4.9299,-4.9389,-5.0062,-5.0674,-5.1229,-5.1229,-5.1229,-5.1229,-5.8588,-5.7289,-5.6299,-5.6329,-5.5417,-5.4839,-5.5244,-5.5413,-5.5481,-5.531,-5.4769,-5.4093,-5.3348,-5.3414,-5.3445,-5.3308,-5.3085,-5.2619,-5.1985,-5.1743,-5.1417,-5.1026,-5.1132,-5.1184,-5.1114,-5.0495,-5.0022,-4.9737,-4.9229,-4.9018,-4.9018,-4.9018,-4.9018,-4.9018,-4.9018,-4.9018,-4.9018,-4.8998,-4.9284,-4.9726,-4.992,-4.9237,-4.8117,-4.7705,-4.6865,-4.5828,-4.5651,-4.5728,-4.6056,-4.6828,-4.734,-4.7604,-4.7263,-4.7216,-4.7136,-4.6401,-4.6166,-4.6133,-4.5831,-4.5484,-4.5197,-4.5033,-4.4749,0.0,-4.4068,-4.3977,-4.3628,-4.2518,-4.2315,-4.2012,-4.1096,-4.1164,-4.1214,-4.0669,-4.1492,-4.1618,-3.9899,-3.9847,-3.9872,-3.9561,-4.0132,-4.0788,-4.1373,-4.2403,-4.3539,-4.4759,-4.6106,-4.6975,-4.7266,-4.7309,-4.7309,-4.7309,-4.7309,-4.7309,-4.7309,-4.7309,-4.7309,-4.7309,-4.7309,-4.7309,-4.7309,-4.7309,-4.7309,-4.7309,-4.7309,-4.7309,-4.7399,-4.876,-4.9299,-4.9419,-5.0571,-5.1063,-5.1229,-5.1229,-5.1229,-5.1229,-5.7534,-5.6443,-5.563,-5.5174,-5.5145,-5.5141,-5.5141,-5.5784,-5.6122,-5.5749,-5.5074,-5.4465,-5.4093,-5.3754,-5.3618,-5.3618,-5.3411,-5.2859,-5.1794,-5.1657,-5.1262,-5.0516,-5.0647,-5.0757,-5.0803,-5.0272,-4.9907,-4.9708,-4.9229,-4.9018,-4.9018,-4.9018,-4.9018,-4.9018,-4.8925,-4.8894,-4.8894,-4.8738,-4.8686,-4.8795,-4.9157,-4.8637,-4.7673,-4.7244,-4.636,-4.5315,-4.4986,-4.5316,-4.5902,-4.653,-4.7168,-4.7623,-4.7535,-4.7539,-4.7402,-4.6543,-4.6439,-4.6433,-4.5974,-4.5701,-4.5524,-4.5524,-4.5139,0.0,0.0,-4.391,-4.3368,-4.2033,-4.2044,-4.1994,-4.0978,-4.1185,-4.1484,-4.1328,-4.198,-4.2334,-4.1648,-4.1417,-4.1046,-4.0331,-4.0595,-4.0983,-4.1331,-4.2174,-4.3443,-4.5098,-4.6195,-4.6887,-4.7266,-4.7309,-4.7309,-4.7309,-4.7309,-4.7309,-4.7309,-4.7309,-4.7309,-4.7309,-4.7309,-4.7309,-4.7309,-4.7309,-4.7309,-4.7309,-4.7309,-4.7309,-4.7399,-4.876,-4.9299,-4.9449,-5.069,-5.1229,-5.1229,-5.1229,-5.1229,-5.1229,-5.6408,-5.562,-5.4993,-5.4056,-5.4771,-5.5344,-5.4871,-5.5818,-5.6393,-5.5784,-5.5175,-5.4769,-5.46,-5.3923,-5.3518,-5.3518,-5.3518,-5.2975,-5.1747,-5.1636,-5.1234,-5.0339,-5.0241,-5.0313,-5.0418,-5.0022,-4.9732,-4.9619,-4.9199,-4.9018,-4.9018,-4.9018,-4.8987,-4.8956,-4.8801,-4.8707,-4.8675,-4.8452,-4.826,-4.8132,-4.816,-4.7872,-4.7305,-4.685,-4.599,-4.4949,-4.4458,-4.4887,-4.575,-4.6102,-4.674,-4.7397,-4.7609,-4.7547,-4.7273,-4.6518,-4.6487,-4.6552,-4.5799,-4.5666,-4.5728,-4.5728,-4.5355,-4.4809,0.0,0.0,0.0,-4.1573,-4.1849,-4.2011,-4.0836,-4.1321,-4.1915,-4.1976,-4.2439,-4.2944,-4.3303,-4.3031,-4.2466,-4.1538,-4.1497,-4.1535,-4.1544,-4.2378,-4.3684,-4.547,-4.6226,-4.6829,-4.7266,-4.7309,-4.7309,-4.7309,-4.7309,-4.7309,-4.7309,-4.7309,-4.7309,-4.7309,-4.7309,-4.7309,-4.7309,-4.7309,-4.7309,-4.7309,-4.7309,-4.7369,-4.7578,-4.882,-4.9389,-4.9583,-5.075,-5.1229,-5.1229,-5.1229,-5.1229,-5.1229,-5.5726,-5.4853,-5.4288,-5.4601,-5.4703,-5.4905,-5.5513,-5.5716,-5.5818,-5.5681,-5.5649,-5.5344,-5.4668,-5.3923,-5.3518,-5.3518,-5.3518,-5.3112,-5.2265,-5.1783,-5.1225,-5.0591,-5.0056,-4.9796,-4.9796,-4.9619,-4.9441,-4.926,-4.9077,-4.9018,-4.9018,-4.9018,-4.8956,-4.8801,-4.861,-4.842,-4.826,-4.7935,-4.777,-4.7704,-4.7232,-4.716,-4.7225,-4.7209,-4.6475,-4.5321,-4.4572,-4.4616,-4.5087,-4.5487,-4.6026,-4.6591,-4.6777,-4.6666,-4.6445,-4.6346,-4.6349,-4.6317,-4.6252,-4.5943,-4.5695,-4.5695,-4.5506,-4.5199,-4.466,0.0,-4.4528,-4.32,0.0,-4.2807,-4.1396,0.0,0.0,-4.1944,-4.3227,-4.422,-4.3879,-4.38,-4.3557,-4.2792,-4.246,-4.2166,-4.1815,-4.2902,-4.406,-4.4951,-4.5991,-4.6829,-4.7266,-4.7309,-4.7309,-4.7309,-4.7309,-4.7309,-4.7309,-4.7309,-4.7309,-4.7309,-4.7309,-4.7309,-4.7309,-4.7309,-4.7309,-4.7309,-4.7309,-4.7638,-4.8237,-4.9,-4.9613,-5.0166,-5.093,-5.1229,-5.1229,-5.1229,-5.1229,-5.1229,-5.4523,-5.4153,-5.3885,-5.4025,-5.4364,-5.4702,-5.5006,-5.5446,-5.5681,-5.5681,-5.5681,-5.5581,-5.5277,-5.4972,-5.46,-5.416,-5.4126,-5.3619,-5.2367,-5.2094,-5.1545,-5.0546,-5.0233,-4.9949,-4.959,-4.9411,-4.929,-4.9199,-4.9046,-4.9018,-4.9018,0.0,-4.8925,-4.8769,-4.8452,-4.8163,-4.7869,-4.7437,-4.7235,-4.7201,-4.6617,-4.6442,-4.6474,-4.619,-4.5391,-4.4381,-4.4065,-4.4334,-4.48,-4.4999,-4.5362,-4.5789,-4.5866,-4.5672,-4.5405,-4.5326,-4.5442,-4.5588,-4.5478,-4.5403,-4.5362,-4.5362,-4.5138,-4.4941,-4.4949,-4.4719,-4.4327,-4.3685,0.0,0.0,0.0,0.0,0.0,0.0,-4.3265,-4.3964,-4.4403,-4.439,-4.3971,-4.3015,-4.2805,-4.2809,-4.3015,-4.3618,-4.4255,-4.4889,-4.5752,-4.6397,-4.6698,-4.71,-4.7309,-4.7309,-4.7309,-4.7309,-4.7309,-4.7309,-4.7309,-4.7309,-4.7309,-4.7309,-4.7309,-4.7309,-4.7309,-4.7309,-4.7309,-4.7668,-4.8327,-4.903,-4.9643,-5.0255,-5.096,-5.1229,-5.1229,-5.1229,-5.1229,-5.1229,-5.3651,-5.3651,-5.3584,-5.3551,-5.3923,-5.4296,-5.4296,-5.5108,-5.5681,-5.5681,-5.5886,-5.6021,-5.6021,-5.5817,-5.548,-5.4938,-5.4702,-5.4126,-5.301,-5.2536,-5.1891,-5.0968,-5.0527,-5.0113,-4.9657,-4.9301,-4.9138,-4.9138,-4.9046,-4.9018,-4.9018,0.0,0.0,-4.8707,-4.8325,-4.7902,-4.7437,-4.6927,-4.6746,-4.6802,-4.6076,-4.5692,-4.551,-4.5142,-4.458,-4.3946,-4.3765,-4.4057,-4.4589,-4.4589,-4.48,-4.5117,-4.5117,-4.4863,-4.4579,-4.4458,-4.4579,-4.4768,-4.4617,-4.473,-4.488,-4.488,-4.4809,-4.4835,-4.4967,-4.4782,-4.4426,-4.4062,-4.3818,0.0,0.0,0.0,-4.2949,-4.3204,0.0,-4.3833,-4.4645,-4.463,-4.4255,-4.3556,-4.3402,-4.3495,-4.3828,-4.418,-4.4519,-4.4798,-4.5412,-4.593,-4.6279,-4.677,-4.713,-4.7309,-4.7309,-4.7309,-4.7309,-4.7309,-4.7309,-4.7309,-4.7309,-4.7309,-4.7309,-4.7309,-4.7309,-4.7309,-4.7309,-4.7788,-4.8596,-4.912,-4.9763,-5.0495,-5.0973,-5.1229,-5.1229,-5.1229,-5.1229,-5.1229,-5.3517,-5.3518,-5.3518,-5.3518,-5.3518,-5.3551,-5.3551,-5.4769,-5.5681,-5.5681,-5.6325,-5.6765,-5.6765,-5.6156,-5.5716,-5.5683,-5.5006,-5.4566,-5.4532,-5.3112,-5.2266,-5.2232,-5.0845,-5.0098,-5.0098,-4.9357,-4.9018,-4.9018,-4.9018,-4.9018,-4.9018,0.0,0.0,0.0,-4.8164,-4.7605,-4.6892,-4.6333,-4.6389,-4.6708,-4.564,-4.4867,-4.4343,-4.4534,-4.4655,-4.4549,-4.3916,-4.3978,-4.4317,-4.4317,-4.4479,-4.4609,-4.4609,-4.4346,-4.4026,-4.4026,-4.4026,-4.4026,-4.4026,-4.4181,-4.4305,-4.4305,-4.4761,-4.5102,-4.4705,-4.5147,-4.5438,-4.455,-4.4655,-4.449,-4.3368,-4.3755,-4.4047,0.0,-4.4045,0.0,0.0,-4.4298,-4.4456,-4.4821,-4.449,-4.4117,-4.3741,-4.4442,-4.48,-4.4599,-4.5057,-4.5622,-4.6249,-4.6309,-4.6651,-4.7279,-4.7309,-4.7309,-4.7309,-4.7309,-4.7309,-4.7309,-4.7309,-4.7309,-4.7309,-4.7309,-4.7309,-4.7309,-4.7309,-4.8027,-4.9269,-4.9299,-5.0032,-5.1199,-5.1199,-5.1229,-5.1229,-5.1229,-5.1229,-5.1229,-5.3518,-5.3518,-5.3518,-5.3518,-5.3518,-5.3518,-5.3518,-5.4329,-5.5141,-5.5649,-5.6765,-5.7712,-5.822,-5.849,-5.822,-5.7239,-5.6494,-5.5649,-5.4668,-5.3653,-5.2875,-5.2334,-5.1352,-5.0608,-5.0101,-4.939,-4.9018,-4.9018,-4.9018,-4.9018,0.0,0.0,0.0,0.0,-4.8164,-4.7571,-4.6858,-4.6191,-4.6097,-4.6354,-4.5572,-4.4733,-4.397,-4.463,-4.4425,-4.3738,-4.3498,-4.3519,-4.3618,-4.3618,-4.3698,-4.3738,-4.3738,-4.3628,-4.3527,-4.3527,-4.3527,-4.3527,-4.3527,-4.3566,-4.3645,-4.3645,-4.3918,-4.4312,-4.4527,-4.4606,-4.4703,-4.5043,-4.4658,-4.4216,-4.4145,-4.4144,-4.4112,0.0,0.0,-4.4587,0.0,-4.4384,-4.4351,-4.4497,-4.4593,-4.4769,-4.4868,-4.5107,-4.5115,-4.4834,-4.4938,-4.5062,-4.518,-4.5885,-4.6369,-4.6651,-4.707,-4.7309,-4.7309,-4.7309,-4.7309,-4.7309,-4.7309,-4.7309,-4.7309,-4.7309,-4.7309,-4.7339,-4.7758,-4.8446,-4.9329,-4.9733,-5.0421,-5.1229,-5.1229,-5.1229,-5.1229,-5.1229,-5.1229,-5.1289,-5.3551,-5.3518,-5.3518,-5.3518,-5.3518,-5.3585,-5.3856,-5.4735,-5.5649,-5.6393,-5.778,-5.8863,-5.9336,-5.981,-5.9607,-5.8389,-5.7611,-5.6562,-5.5074,-5.4296,-5.3551,-5.2773,-5.1995,-5.1386,-5.0879,-4.9898,-4.939,-4.939,-4.912,-4.9018,0.0,0.0,0.0,0.0,-4.8261,-4.7638,-4.6858,-4.6411,-4.6259,-4.6299,-4.6036,-4.5141,-4.4067,-4.4648,-4.4248,-4.329,-4.329,-4.329,-4.329,-4.329,-4.329,-4.329,-4.329,-4.329,-4.329,-4.329,-4.329,-4.329,-4.329,-4.329,-4.329,-4.329,-4.3518,-4.3832,-4.4266,-4.4278,-4.4393,-4.496,-4.4645,-4.4367,-4.465,-4.4426,-4.426,0.0,0.0,-4.4497,0.0,-4.4468,-4.4412,-4.4412,-4.4683,-4.4949,-4.508,-4.5341,-4.5313,-4.473,-4.4742,-4.4725,-4.4609,-4.5417,-4.6082,-4.6279,-4.695,-4.7309,-4.7309,-4.7309,-4.7309,-4.7309,-4.7309,-4.7309,-4.7309,-4.7309,-4.7309,-4.7339,-4.7997,-4.87,-4.9359,-4.9972,-5.0584,-5.1229,-5.1229,-5.1229,-5.1229,-5.1229,-5.1379,-5.1708,-5.3653,-5.3518,-5.3518,-5.3518,-5.3518,-5.3754,-5.4465,-5.5852,-5.707,-5.7848,-5.9235,-6.0182,-6.0216,-6.0182,-5.9877,-5.9133,-5.8355,-5.7273,-5.5818,-5.5006,-5.4262,-5.3551,-5.2739,-5.2266,-5.2266,-5.0845,-5.0067,-5.0033,-4.9357,-4.9018,0.0,0.0,0.0,0.0,-4.8356,-4.7704,-4.6825,-4.6901,-4.6818,-4.6564,-4.6823,-4.599,-4.4569,-4.4609,-4.4098,-4.329,-4.329,-4.329,-4.329,-4.329,-4.329,-4.329,-4.329,-4.329,-4.329,-4.329,-4.329,-4.329,-4.329,-4.329,-4.329,-4.329,-4.3518,-4.3714,-4.3949,-4.4297,-4.45,-4.4341,-4.4615,-4.4849,-4.4851,-4.4623,-4.4476,0.0,0.0,0.0,-4.4559,-4.4615,-4.4615,-4.4615,-4.4758,-4.4776,-4.4474,-4.518,-4.5319,-4.4441,-4.4514,-4.4588,-4.4589,-4.5038,-4.5603,-4.6219,-4.695,-4.7309,-4.7309,-4.7309,-4.7309,-4.7309,-4.7309,-4.7309,-4.7309,-4.7309,-4.7309,-4.7399,-4.8057,-4.8716,-4.9419,-5.0002,-5.0614,-5.1229,-5.1229,-5.1229,-5.1259,-5.1259,-5.1708,-5.2486,-5.3653,-5.3518,-5.3518,-5.3518,-5.3518,-5.3754,-5.4465,-5.5852,-5.7273,-5.8558,-6.0047,-6.1197,-6.1738,-6.1332,-6.0689,-5.9911,-5.8626,-5.7273,-5.5818,-5.5006,-5.4262,-5.3551,-5.2739,-5.2063,-5.1488,-5.0574,-4.983,-4.9289,-4.9086,-4.9018,-4.9018,0.0,0.0,0.0,-4.8356,-4.7836,-4.7202,-4.6673,-4.617,-4.5651,-4.592,-4.5352,-4.4338,-4.3858,-4.3519,-4.329,-4.329,-4.329,-4.329,-4.329,-4.329,-4.329,-4.329,-4.329,-4.329,-4.329,-4.329,-4.329,-4.329,-4.329,-4.329,-4.329,-4.3329,-4.3478,-4.3714,-4.3871,-4.4004,-4.4281,-4.4192,-4.4158,-4.4401,-4.4417,-4.4334,-4.4197,-4.4149,-4.4212,-4.4355,-4.4497,-4.4615,-4.4615,-4.4671,-4.4745,-4.4893,-4.5298,-4.5439,-4.5213,-4.4701,-4.4378,-4.4364,-4.5122,-4.553,-4.5544,-4.6711,-4.7309,-4.7309,-4.7309,-4.7309,-4.7309,-4.7309,-4.7309,-4.7309,-4.7309,-4.7578,-4.8057,-4.876,-4.9404,-5.0032,-5.0644,-5.1033,-5.1229,-5.1229,-5.1498,-5.1947,-5.1947,-5.2695,-5.3743,-5.3721,-5.3518,-5.3619,-5.3923,-5.4262,-5.4702,-5.5446,-5.6799,-5.8321,-5.981,-6.1028,-6.1941,-6.2347,-6.1738,-6.0994,-6.0182,-5.9066,-5.7611,-5.5817,-5.531,-5.46,-5.3551,-5.3078,-5.2469,-5.1725,-5.098,-5.0202,-4.9492,-4.9154,-4.9018,-4.9018,0.0,0.0,0.0,-4.8612,-4.8163,-4.7538,-4.6696,-4.6291,-4.6211,-4.5475,-4.503,0.0,-4.3648,-4.329,-4.329,-4.329,-4.329,-4.329,-4.329,-4.329,-4.329,-4.329,-4.329,-4.329,-4.329,-4.329,-4.329,-4.329,-4.329,-4.329,-4.329,-4.329,-4.3329,-4.3518,-4.3518,-4.3636,-4.3988,-4.3953,-4.3987,-4.4365,-4.4386,-4.4347,-4.4334,-4.4543,-4.4697,-4.4658,-4.4827,-4.484,-4.4502,-4.4468,-4.4524,-4.4666,-4.5009,-4.5239,-4.5239,-4.4811,-4.4575,-4.4579,-4.5282,-4.5645,-4.544,-4.6634,-4.7309,-4.7309,-4.7309,-4.7309,-4.7309,-4.7309,-4.7309,-4.7309,-4.7309,-4.7668,-4.8327,-4.903,-4.9643,-5.0255,-5.0913,-5.1229,-5.1259,-5.1528,-5.2067,-5.2665,-5.2965,-5.3563,-5.4251,-5.4059,-5.3788,-5.3991,-5.4634,-5.5446,-5.6292,-5.7103,-5.8321,-5.9674,-6.1129,-6.1941,-6.2381,-6.2381,-6.1637,-6.0858,-6.0148,-5.9268,-5.7881,-5.5817,-5.5615,-5.4938,-5.3551,-5.3518,-5.3078,-5.2198,-5.1555,-5.0811,-4.9965,-4.9323,-4.9018,0.0,0.0,0.0,0.0,0.0,-4.842,-4.777,-4.6933,-4.6826,-4.7138,-4.5414,-4.489,-4.5035,-4.3768,-4.329,-4.329,-4.329,-4.329,-4.329,-4.329,-4.329,-4.329,-4.329,-4.329,-4.329,-4.329,-4.329,-4.329,-4.329,-4.329,-4.329,-4.329,-4.329,-4.329,-4.329,-4.329,-4.3369,-4.3596,-4.3793,-4.4065,-4.4419,-4.4359,-4.4362,-4.4783,-4.5179,-4.5362,-4.519,-4.5391,-4.5274,-4.4529,-4.4428,0.0,-4.4097,-4.4519,-4.4856,-4.4951,-4.4937,-4.4911,-4.4962,-4.5598,-4.589,-4.5604,-4.6719,-4.7309,-4.7309,-4.7309,-4.7309,-4.7309,-4.7309,-4.7309,-4.7309,-4.7399,-4.7788,-4.8446,-4.9105,-4.9763,-5.0375,-5.0943,-5.1259,-5.1409,-5.2067,-5.2725,-5.3384,-5.4072,-5.4341,-5.4431,-5.5378,-5.531,-5.5378,-5.5513,-5.663,-5.7949,-5.9336,-5.9742,-6.025,-6.1197,-6.1941,-6.2381,-6.2381,-6.1163,-6.025,-6.0114,-5.8321,-5.6765,-5.5749,-5.5141,-5.4397,-5.3551,-5.3518,-5.2841,-5.142,-5.1252,-5.0541,-4.9187,-4.9052,-4.9018,0.0,0.0,0.0,0.0,0.0,-4.8292,-4.7471,-4.7429,-4.6866,-4.6059,-4.5445,-4.49,-4.4407,-4.3589,-4.329,-4.329,-4.329,-4.329,-4.329,-4.329,-4.329,-4.329,-4.329,-4.329,-4.329,-4.329,-4.329,-4.329,-4.329,-4.329,-4.329,-4.329,-4.329,-4.329,-4.329,-4.329,-4.329,-4.3369,-4.3557,-4.3754,-4.3832,-4.3867,-4.4081,-4.4566,-4.4879,-4.5145,-4.5549,-4.6009,-4.6043,-4.5274,-4.5202,-4.4908,-4.4164,-4.4169,-4.4567,-4.5336,-4.5082,-4.5028,-4.5306,-4.6028,-4.6133,-4.5604,-4.6719,-4.7309,-4.7309,-4.7309,-4.7309,-4.7309,-4.7309,-4.7309,-4.7339,-4.7878,-4.8476,-4.9179,-4.9793,-5.0451,-5.1003,-5.1169,-5.1528,-5.2097,-5.2755,-5.3414,-5.4102,-5.479,-5.5029,-5.5029,-5.5681,-5.5681,-5.5953,-5.6697,-5.7746,-5.8998,-6.0486,-6.1061,-6.1569,-6.2347,-6.2415,-6.2381,-6.2381,-6.1028,-6.0114,-6.0114,-5.8084,-5.6494,-5.5749,-5.5006,-5.4262,-5.3551,-5.3518,-5.2773,-5.1219,-5.1185,-5.0507,-4.9018,-4.9018,-4.8987,-4.8894,-4.8894,0.0,-4.8736,0.0,-4.813,-4.7538,-4.7112,-4.6539,-4.588,-4.4955,-4.4497,-4.4257,-4.3559,-4.329,-4.329,-4.329,-4.329,-4.329,-4.329,-4.329,-4.329,-4.329,-4.329,-4.329,-4.329,-4.329,-4.329,-4.329,-4.329,-4.329,-4.329,-4.329,-4.329,-4.329,-4.329,-4.329,-4.329,-4.3369,-4.3557,-4.3675,-4.3791,-4.4079,-4.4642,-4.5084,-4.5425,-4.5669,-4.6089,-4.6173,-4.5535,-4.51,-4.4704,-4.4314,-4.3975,-4.4344,-4.5559,-4.5635,-4.5659,-4.5706,-4.5964,-4.6006,-4.5768,-4.6431,-4.695,-4.7309,-4.7309,-4.7309,-4.7309,-4.7309,-4.7309,-4.7339,-4.7997,-4.87,-4.9329,-4.9942,-5.0554,-5.1259,-5.1588,-5.1917,-5.2306,-5.3324,-5.3922,-5.4281,-5.494,-5.5179,-5.5179,-5.6393,-5.6528,-5.707,-5.8389,-5.9235,-6.0182,-6.1569,-6.2245,-6.2787,-6.3226,-6.2753,-6.2381,-6.2381,-6.1028,-6.0114,-6.0114,-5.7949,-5.6325,-5.575,-5.4871,-5.4093,-5.3518,-5.3518,-5.2841,-5.1488,-5.1285,-5.0574,-4.9221,-4.9086,-4.8925,-4.8801,-4.8801,-4.8707,-4.8483,-4.8292,-4.81,-4.7801,-4.6948,-4.638,-4.5957,-4.4772,-4.4216,-4.4047,-4.3499,-4.329,-4.329,-4.329,-4.329,-4.329,-4.329,-4.329,-4.329,-4.329,-4.329,-4.329,-4.329,-4.329,-4.329,-4.329,-4.329,-4.329,-4.329,-4.329,-4.329,-4.329,-4.329,-4.329,-4.329,-4.329,-4.3369,-4.3596,-4.3793,-4.4173,-4.4871,-4.5434,-4.5868,-4.6194,-4.6478,-4.6453,-4.5961,-4.5237,-4.471,-4.4414,-4.4172,-4.4464,-4.5654,-4.5993,-4.6089,-4.606,-4.5953,-4.5873,-4.589,-4.6172,-4.6651,-4.7309,-4.7309,-4.7309,-4.7309,-4.7309,-4.7369,-4.7549,-4.8207,-4.8865,-4.9523,-5.0152,-5.0764,-5.1468,-5.1977,-5.2366,-5.2725,-5.3803,-5.4311,-5.4491,-5.4999,-5.5179,-5.5179,-5.8558,-5.9235,-5.9945,-6.0825,-6.1603,-6.2347,-6.3193,-6.3362,-6.3193,-6.2584,-6.2415,-6.2381,-6.2381,-6.1028,-6.0114,-6.0114,-5.7476,-5.5749,-5.5681,-5.4397,-5.3585,-5.3518,-5.3518,-5.3078,-5.2232,-5.1555,-5.0811,-4.9999,-4.9323,-4.8925,-4.8801,-4.8801,-4.8707,-4.8483,-4.8292,-4.8266,-4.8351,-4.7726,-4.6892,-4.5897,-4.537,-4.4455,-4.3379,-4.3319,-4.329,-4.329,-4.329,-4.329,-4.329,-4.329,-4.329,-4.329,-4.329,-4.329,-4.329,-4.329,-4.329,-4.329,-4.329,-4.329,-4.329,-4.329,-4.329,-4.329,-4.329,-4.329,-4.329,-4.329,-4.329,-4.329,-4.3329,-4.3557,-4.4083,-4.5092,-4.5734,-4.6536,-4.785,-4.7874,-4.7615,-4.7272,-4.6585,-4.5667,-4.4512,-4.497,-4.5365,-4.5497,-4.5564,-4.5767,-4.624,-4.6139,-4.6028,-4.589,-4.6172,-4.6651,-4.7309,-4.7309,-4.7309,-4.7309,-4.7309,-4.7608,-4.8207,-4.891,-4.9523,-5.0136,-5.084,-5.1498,-5.2127,-5.2187,-5.2935,-5.4042,-5.4162,-5.4581,-5.5089,-5.5179,-5.5179,-5.5179,-6.025,-6.0622,-6.1197,-6.2415,-6.2482,-6.2651,-6.3396,-6.3125,-6.2719,-6.2415,-6.2381,-6.2381,-6.2381,-6.1028,-6.0114,-6.0114,-5.7814,-5.619,-5.5715,-5.4735,-5.3957,-5.3518,-5.3518,-5.3112,-5.2334,-5.1589,-5.0845,-5.0101,-4.9357,-4.8894,-4.861,-4.861,-4.8356,-4.7869,-4.7965,-4.7948,-4.7748,-4.7442,-4.6917,-4.622,-4.527,-4.4459,-4.3858,-4.3439,-4.329,-4.329,-4.329,-4.329,-4.329,-4.329,-4.329,-4.329,-4.329,-4.329,-4.329,-4.329,-4.329,-4.329,-4.329,-4.329,-4.329,-4.329,-4.329,-4.329,-4.329,-4.329,-4.329,-4.329,-4.329,-4.329,-4.329,-4.3369,-4.3767,-4.4719,-4.5166,-4.5811,-4.7037,-4.6881,-4.6682,-4.6793,-4.5949,-4.5227,-4.4914,-4.4886,-4.5114,-4.5636,-4.58,-4.5958,-4.6131,-4.562,-4.5511,-4.589,-4.5781,-4.6232,-4.7309,-4.7309,-4.7309,-4.7309,-4.7309,-4.7638,-4.8297,-4.9,-4.9823,-5.0823,-5.1528,-5.1947,-5.2247,-5.3084,-5.3713,-5.4251,-5.464,-5.497,-5.5239,-5.5628,-5.5777,-5.5837,-6.1806,-6.211,-6.2618,-6.3666,-6.3396,-6.3159,-6.3463,-6.3057,-6.2651,-6.2415,-6.2381,-6.2313,-6.211,-6.0892,-6.0013,-5.981,-5.7949,-5.6494,-5.5749,-5.5006,-5.4262,-5.3551,-5.3518,-5.3247,-5.2672,-5.1725,-5.0947,-5.0405,-4.9458,-4.8861,-4.8578,-4.8718,-4.8497,-4.8026,-4.8167,-4.8027,-4.7702,-4.7456,-4.7088,-4.6609,-4.5385,-4.4699,-4.4257,-4.3559,-4.329,-4.329,-4.329,-4.329,-4.329,-4.329,-4.329,-4.329,-4.329,-4.329,-4.329,-4.329,-4.329,-4.329,-4.329,-4.329,-4.329,-4.329,-4.329,-4.329,-4.329,-4.329,-4.329,-4.329,-4.329,-4.329,-4.329,-4.329,-4.3579,-4.4479,-4.4911,-4.5424,-4.6312,-4.6172,-4.6044,-4.6316,-4.5437,-4.4938,-4.5104,-4.4795,-4.4836,-4.5488,-4.5554,-4.5704,-4.5881,-4.5409,-4.5341,-4.589,-4.5691,-4.6142,-4.7309,-4.7309,-4.7309,-4.7309,-4.7489,-4.7938,-4.8596,-4.9464,-5.0451,-5.1528,-5.2007,-5.2426,-5.2875,-5.3832,-5.4311,-5.4551,-5.4999,-5.5299,-5.5538,-5.6068,-5.6286,-5.6496,-6.3328,-6.4072,-6.458,-6.458,-6.458,-6.4343,-6.3632,-6.3497,-6.3226,-6.2482,-6.2381,-6.211,-6.14,-6.0588,-5.981,-5.9099,-5.7679,-5.6494,-5.5749,-5.5006,-5.4262,-5.3551,-5.3518,-5.3518,-5.3484,-5.1995,-5.1185,-5.1217,-4.9729,-4.8925,-4.8803,-4.9123,-4.9358,-4.9567,-4.9141,-4.8909,-4.8709,-4.8151,-4.7548,-4.6902,-4.6029,-4.512,-4.4257,-4.3559,-4.329,-4.329,-4.329,-4.329,-4.329,-4.329,-4.329,-4.329,-4.329,-4.329,-4.329,-4.329,-4.329,-4.329,-4.329,-4.329,-4.329,-4.329,-4.329,-4.329,-4.329,-4.329,-4.329,-4.329,-4.329,-4.329,-4.329,-4.329,-4.3609,-4.4579,-4.5253,-4.5839,-4.6244,-4.6284,-4.6247,-4.6188,-4.5616,-4.5118,-4.4929,-4.4791,-4.4756,-4.49,-4.4615,-4.4787,-4.5665,-4.5734,-4.5795,-4.589,-4.6172,-4.6621,-4.7309,-4.7309,-4.7309,-4.7309,-4.7967,-4.8626,-4.9329,-5.0601,-5.1558,-5.2187,-5.2187,-5.2965,-5.4192,-5.4192,-5.4581,-5.5179,-5.5179,-5.5598,-5.6218,-5.6218,-5.6555,-5.7094,-6.4208,-6.4444,-6.4613,-6.4613,-6.4174,-6.3768,-6.3565,-6.3091,-6.2651,-6.2415,-6.1941,-6.1366,-6.0554,-6.025,-5.981,-5.9066,-5.7645,-5.6494,-5.5749,-5.5006,-5.4262,-5.3551,-5.3518,-5.3247,-5.2706,-5.1725,-5.0947,-5.0439,-4.9492,-4.9099,-4.9318,-4.9194,-4.9255,-4.9388,-4.9365,-4.9088,-4.8647,-4.8285,-4.7965,-4.7539,-4.6045,-4.5267,-4.4855,-4.3708,-4.329,-4.329,-4.329,-4.329,-4.329,-4.329,-4.329,-4.329,-4.329,-4.329,-4.329,-4.329,-4.329,-4.329,-4.329,-4.329,-4.329,-4.329,-4.329,-4.329,-4.329,-4.329,-4.329,-4.329,-4.329,-4.329,-4.329,-4.329,-4.3539,-4.4308,-4.4618,-4.4959,-4.5533,-4.5242,-4.5002,-4.5078,-4.4664,-4.4403,-4.4458,-4.457,-4.4645,-4.4682,-4.4607,-4.4993,-4.6016,-4.5665,-4.5834,-4.6587,-4.6413,-4.6651,-4.7309,-4.7309,-4.7519,-4.7967,-4.8177,-4.8865,-4.9942,-5.084,-5.1588,-5.2217,-5.2665,-5.3384,-5.4251,-5.47,-5.4999,-5.5179,-5.5179,-5.5598,-5.6278,-5.6645,-5.7214,-5.7872,-6.4884,-6.4783,-6.4512,-6.4241,-6.3835,-6.3429,-6.3125,-6.2685,-6.2381,-6.2381,-6.2009,-6.1298,-6.0216,-6.0114,-5.9708,-5.8693,-5.7509,-5.6494,-5.5749,-5.5006,-5.4262,-5.3551,-5.3518,-5.3281,-5.2773,-5.1758,-5.098,-5.0507,-4.9492,-4.9369,-5.0122,-4.9892,-4.9987,-5.0314,-5.0223,-4.9777,-4.9103,-4.8789,-4.8315,-4.7604,-4.6221,-4.5443,-4.4918,-4.3868,-4.3369,-4.329,-4.329,-4.329,-4.329,-4.329,-4.329,-4.329,-4.329,-4.329,-4.329,-4.329,-4.329,-4.329,-4.329,-4.329,-4.329,-4.329,-4.329,-4.329,-4.329,-4.329,-4.329,-4.329,-4.329,-4.329,-4.329,-4.329,-4.3439,-4.3858,-4.4167,-4.4377,-4.4526,-4.4407,-4.4308,-4.4268,-4.4246,-4.4313,-4.4547,-4.4878,-4.5108,-4.5108,-4.5108,-4.5493,-4.6445,-4.5874,-4.592,-4.6838,-4.6731,-4.689,-4.7309,-4.7549,-4.7878,-4.8297,-4.8775,-4.9583,-5.0584,-5.1289,-5.1947,-5.2606,-5.3264,-5.3952,-5.461,-5.5029,-5.5179,-5.5209,-5.5478,-5.5957,-5.6585,-5.7244,-5.7902,-5.856,-6.529,-6.4986,-6.4309,-6.3565,-6.3429,-6.3193,-6.2482,-6.2381,-6.2381,-6.2381,-6.2347,-6.1738,-6.025,-6.0047,-5.9438,-5.8017,-5.7171,-5.6427,-5.575,-5.4972,-5.4228,-5.3551,-5.3518,-5.3484,-5.3416,-5.2029,-5.1251,-5.115,-4.9695,-4.9668,-5.089,-5.0957,-5.1329,-5.1957,-5.159,-5.0914,-4.9986,-4.9541,-4.8602,-4.7416,-4.664,-4.5687,-4.465,-4.4046,-4.3617,-4.3419,-4.3409,-4.3439,-4.3439,-4.3439,-4.3439,-4.3439,-4.3439,-4.3439,-4.3409,-4.3319,-4.329,-4.329,-4.329,-4.329,-4.329,-4.329,-4.329,-4.329,-4.329,-4.329,-4.329,-4.329,-4.329,-4.329,-4.329,-4.329,-4.329,-4.329,-4.3798,-4.3977,-4.3379,-4.3828,-4.4098,-4.3726,-4.4208,-4.468,-4.495,-4.5486,-4.5839,-4.5839,-4.5839,-4.6183,-4.691,-4.6273,-4.6161,-4.6647,-4.7066,-4.7339,-4.7369,-4.7967,-4.8327,-4.8446,-4.9763,-5.0644,-5.1319,-5.1977,-5.2636,-5.3294,-5.3922,-5.4581,-5.5179,-5.5179,-5.5179,-5.5269,-5.5927,-5.6555,-5.7184,-5.7872,-5.853,-5.9099,-6.4072,-6.3903,-6.3531,-6.2787,-6.2651,-6.2584,-6.2415,-6.2381,-6.2381,-6.2381,-6.1907,-6.1197,-6.0216,-5.9607,-5.8896,-5.7983,-5.6697,-5.5919,-5.5681,-5.4499,-5.3687,-5.3518,-5.3518,-5.3213,-5.2604,-5.2232,-5.1488,-5.0371,-4.9458,-4.9364,-5.0083,-5.0722,-5.1229,-5.1617,-5.1792,-5.1586,-5.1027,-5.0299,-4.9726,-4.9125,-4.7424,-4.648,-4.6027,-4.4999,-4.4478,-4.4339,-4.4687,-4.4825,-4.4825,-4.4825,-4.4825,-4.4825,-4.4825,-4.4825,-4.4646,-4.3589,-4.329,-4.329,-4.329,-4.329,-4.329,-4.329,-4.329,-4.329,-4.329,-4.329,-4.329,-4.329,-4.329,-4.329,-4.329,-4.329,-4.329,-4.329,-4.3409,-4.3469,-4.3319,-4.3439,-4.3509,-4.3399,-4.3968,-4.4398,-4.4438,-4.5079,-4.547,-4.547,-4.547,-4.5728,-4.6419,-4.6299,-4.6551,-4.734,-4.7306,-4.7549,-4.8057,-4.8207,-4.8775,-4.9747,-5.1109,-5.1828,-5.2007,-5.2665,-5.3324,-5.3982,-5.4132,-5.4581,-5.5179,-5.5179,-5.5179,-5.5269,-5.5927,-5.6555,-5.7184,-5.7872,-5.853,-5.9099,-6.3531,-6.3226,-6.2854,-6.2448,-6.2381,-6.2381,-6.2381,-6.2381,-6.2381,-6.2381,-6.2042,-6.1366,-6.0216,-5.9742,-5.9066,-5.7983,-5.6562,-5.5681,-5.5681,-5.4329,-5.3518,-5.3518,-5.3518,-5.3315,-5.2875,-5.2503,-5.1758,-5.0608,-5.0202,-5.0308,-5.0954,-5.1391,-5.1833,-5.2266,-5.2389,-5.22,-5.1769,-5.1252,-5.0606,-4.9873,-4.8688,-4.7753,-4.6975,-4.6142,-4.5624,-4.5364,-4.5473,-4.547,-4.547,-4.5346,-4.5304,-4.5304,-4.5304,-4.5304,-4.5155,-4.4436,-4.4018,-4.3678,-4.3379,-4.329,-4.329,-4.329,-4.329,-4.329,-4.329,-4.329,-4.329,-4.329,-4.329,-4.329,-4.329,-4.329,-4.329,-4.329,-4.329,-4.329,-4.329,-4.329,-4.329,-4.329,-4.4167,-4.4766,-4.4766,-4.5633,-4.6202,-4.6202,-4.6202,-4.6381,-4.6741,-4.677,-4.6963,-4.7452,-4.7622,-4.7938,-4.8297,-4.8895,-4.9823,-5.1139,-5.1858,-5.2366,-5.2665,-5.3354,-5.3862,-5.4221,-5.4521,-5.485,-5.5179,-5.5179,-5.5359,-5.5718,-5.6346,-5.7004,-5.7633,-5.8321,-5.88,-5.9099,-6.3226,-6.2821,-6.2381,-6.2381,-6.2381,-6.2381,-6.2381,-6.2381,-6.2381,-6.2381,-6.2381,-6.1806,-6.0283,-6.0114,-5.9505,-5.8017,-5.6664,-5.5818,-5.5716,-5.4329,-5.3518,-5.3518,-5.3518,-5.3518,-5.3518,-5.2706,-5.1995,-5.1386,-5.1219,-5.1522,-5.2131,-5.2266,-5.2572,-5.3044,-5.3008,-5.2764,-5.2414,-5.2167,-5.1445,-5.0453,-5.0098,-4.9122,-4.7927,-4.7364,-4.6885,-4.6477,-4.6111,-4.6007,-4.5966,-4.5687,-4.5603,-4.5603,-4.5603,-4.5603,-4.5574,-4.5484,-4.5065,-4.4466,-4.3768,-4.3589,-4.3589,-4.3589,-4.3529,-4.3439,-4.3439,-4.3349,-4.329,-4.329,-4.3379,-4.3409,-4.3319,-4.3379,-4.3409,-4.3319,-4.329,-4.329,-4.329,-4.329,-4.329,-4.329,-4.4496,-4.5304,-4.5304,-4.6501,-4.7309,-4.7309,-4.7309,-4.7309,-4.7309,-4.7309,-4.7369,-4.7459,-4.7997,-4.8386,-4.8566,-4.9747,-5.0943,-5.2187,-5.2306,-5.2695,-5.3354,-5.4042,-5.4371,-5.4401,-5.494,-5.5179,-5.5209,-5.5299,-5.5658,-5.6308,-5.6974,-5.7603,-5.8201,-5.886,-5.9099,-5.9099,-6.255,-6.2482,-6.2381,-6.2381,-6.2381,-6.2381,-6.2381,-6.2381,-6.2381,-6.2381,-6.2381,-6.1806,-6.0283,-6.0114,-5.9505,-5.8017,-5.7137,-5.6359,-5.575,-5.4329,-5.3518,-5.3518,-5.3518,-5.3518,-5.3518,-5.2706,-5.2232,-5.2131,-5.1522,-5.1285,-5.1386,-5.2029,-5.2367,-5.247,-5.2943,-5.311,-5.3041,-5.2661,-5.2418,-5.2111,-5.1021,-5.0221,-4.9608,-4.8597,-4.8003,-4.7608,-4.7406,-4.7322,-4.728,-4.7066,-4.701,-4.701,-4.701,-4.701,-4.689,-4.6322,-4.6082,-4.5831,-4.5185,-4.4975,-4.4975,-4.4975,-4.4556,-4.4127,-4.4127,-4.3708,-4.329,-4.329,-4.3738,-4.3947,-4.3379,-4.3738,-4.3947,-4.3379,-4.329,-4.329,-4.329,-4.329,-4.329,-4.329,-4.4496,-4.5304,-4.5304,-4.6501,-4.7309,-4.7309,-4.7309,-4.7309,-4.7309,-4.7309,-4.7549,-4.8117,-4.8237,-4.8805,-4.9867,-5.0644,-5.1439,-5.2217,-5.2755,-5.3384,-5.4072,-5.473,-5.5029,-5.5029,-5.5149,-5.5179,-5.5239,-5.5777,-5.6128,-5.6338,-5.7483,-5.8022,-5.8201,-5.886,-5.9099,-5.9099,-6.2381,-6.2381,-6.2381,-6.2381,-6.2381,-6.2381,-6.2381,-6.2381,-6.2381,-6.2381,-6.2381,-6.1806,-6.0283,-6.0114,-5.9505,-5.8017,-5.7239,-5.6494,-5.5749,-5.4702,-5.3923,-5.3518,-5.3518,-5.3518,-5.3518,-5.3145,-5.2942,-5.2942,-5.2604,-5.2435,-5.2469,-5.2807,-5.2942,-5.2976,-5.3247,-5.3348,-5.3348,-5.3144,-5.3041,-5.2836,-5.2049,-5.1457,-5.1023,-5.0095,-4.9511,-4.9062,-4.8481,-4.8175,-4.7922,-4.7581,-4.7396,-4.7309,-4.7309,-4.7309,-4.7249,-4.695,-4.6352,-4.5693,-4.5394,-4.5304,-4.5304,-4.5304,-4.5065,-4.4736,-4.4407,-4.4077,-4.3828,-4.3828,-4.4067,-4.4317,-4.4377,-4.4646,-4.4616,-4.3917,-4.3828,-4.3708,-4.3349,-4.329,-4.3409,-4.3798,-4.4706,-4.5454,-4.5813,-4.6741,-4.7309,-4.7309,-4.7309,-4.7309,-4.7309,-4.7309,-4.7758,-4.882,-4.9164,-4.9793,-5.0704,-5.1409,-5.2067,-5.2725,-5.3414,-5.4072,-5.476,-5.5059,-5.5179,-5.5209,-5.5568,-5.5718,-5.5777,-5.6406,-5.6885,-5.7274,-5.7872,-5.8351,-5.868,-5.9009,-5.9099,-5.9099,-6.2381,-6.2381,-6.2381,-6.2381,-6.2381,-6.2381,-6.2381,-6.2381,-6.2381,-6.2381,-6.2381,-6.1806,-6.0283,-6.0114,-5.9505,-5.8017,-5.7374,-5.6731,-5.6021,-5.5277,-5.4431,-5.3551,-5.3518,-5.3518,-5.3518,-5.3518,-5.3518,-5.3518,-5.3518,-5.3518,-5.3518,-5.3518,-5.3518,-5.3518,-5.3518,-5.3518,-5.3518,-5.3518,-5.3416,-5.3213,-5.287,-5.252,-5.2059,-5.129,-5.0685,-5.0143,-4.9269,-4.8687,-4.826,-4.7752,-4.7482,-4.7309,-4.7309,-4.7309,-4.7309,-4.7309,-4.6561,-4.5753,-4.5753,-4.5753,-4.5753,-4.5753,-4.5633,-4.5394,-4.4885,-4.4646,-4.4556,-4.4556,-4.4676,-4.4885,-4.5214,-4.5424,-4.5304,-4.4646,-4.4407,-4.4137,-4.3589,-4.3529,-4.3708,-4.4257,-4.5035,-4.5753,-4.6219,-4.692,-4.7309,-4.7309,-4.7309,-4.7309,-4.7309,-4.7459,-4.8147,-4.9464,-5.0122,-5.0734,-5.1439,-5.1947,-5.2606,-5.3414,-5.3952,-5.4551,-5.5209,-5.5359,-5.5418,-5.5448,-5.6107,-5.6376,-5.6436,-5.7064,-5.7633,-5.8141,-5.8291,-5.865,-5.9099,-5.9099,-5.9099,-5.9099,-6.2381,-6.2381,-6.2381,-6.2381,-6.2381,-6.2381,-6.2381,-6.2381,-6.2381,-6.2381,-6.2381,-6.1806,-6.0283,-6.0114,-5.9505,-5.8017,-5.7848,-5.7509,-5.6765,-5.6055,-5.5006,-5.3551,-5.3518,-5.3518,-5.3518,-5.3518,-5.3518,-5.3518,-5.3518,-5.3518,-5.3518,-5.3518,-5.3518,-5.3518,-5.3518,-5.3518,-5.3518,-5.3518,-5.3518,-5.3484,-5.3213,-5.2904,-5.2485,-5.1842,-5.114,-5.037,-4.951,-4.878,-4.826,-4.7752,-4.7482,-4.7309,-4.7309,-4.7309,-4.7309,-4.7309,-4.7249,-4.716,-4.716,-4.716,-4.716,-4.716,-4.6711,-4.619,-4.613,-4.5693,-4.5214,-4.5214,-4.5723,-4.5992,-4.5394,-4.5813,-4.6022,-4.5334,-4.4706,-4.4287,-4.4257,-4.4257,-4.4257,-4.4317,-4.5454,-4.6262,-4.6279,-4.692,-4.7309,-4.7309,-4.7309,-4.7309,-4.7309,-4.7878,-4.8805,-5.0076,-5.0764,-5.1468,-5.2127,-5.2187,-5.2845,-5.4132,-5.4192,-5.4551,-5.5209,-5.5807,-5.6158,-5.6188,-5.6765,-5.7034,-5.7094,-5.7752,-5.8082,-5.8171,-5.88,-5.9069,-5.9099,-5.9099,-5.9099,-5.9099,-6.2381,-6.2381,-6.2381,-6.2381,-6.2381,-6.2381,-6.2381,-6.2381,-6.2381,-6.2381,-6.2381,-6.2009,-6.096,-6.0385,-5.9708,-5.866,-5.8152,-5.7577,-5.6867,-5.6122,-5.504,-5.3551,-5.3518,-5.3518,-5.3518,-5.3518,-5.3518,-5.3518,-5.3518,-5.3518,-5.3518,-5.3518,-5.3518,-5.3518,-5.3518,-5.3518,-5.3518,-5.3518,-5.3518,-5.345,-5.3247,-5.311,-5.2904,-5.2449,-5.1842,-5.114,-5.0454,-4.963,-4.8883,-4.8355,-4.8007,-4.7709,-4.7568,-4.7495,-4.7452,-4.7352,-4.7309,-4.7309,-4.7309,-4.7309,-4.7309,-4.7309,-4.713,-4.683,-4.6369,-4.6112,-4.5933,-4.5933,-4.6142,-4.6381,-4.6531,-4.677,-4.6711,-4.6052,-4.5723,-4.5424,-4.4975,-4.4915,-4.5065,-4.5514,-4.598,-4.6429,-4.689,-4.716,-4.7309,-4.7309,-4.7698,-4.7908,-4.7908,-4.8925,-4.9867,-5.0764,-5.1498,-5.1947,-5.2187,-5.3025,-5.3713,-5.4221,-5.461,-5.5149,-5.5807,-5.6047,-5.6376,-5.6765,-5.7453,-5.7723,-5.7782,-5.8441,-5.874,-5.877,-5.9009,-5.9099,-5.9099,-5.9099,-5.9099,-5.9099,-6.2381,-6.2381,-6.2381,-6.2381,-6.2381,-6.2381,-6.2381,-6.2381,-6.2381,-6.2381,-6.2381,-6.2009,-6.1028,-6.0419,-5.9708,-5.8761,-5.8186,-5.7679,-5.7171,-5.6258,-5.504,-5.3551,-5.3518,-5.3518,-5.3518,-5.3518,-5.3518,-5.3518,-5.3518,-5.3518,-5.3518,-5.3518,-5.3518,-5.3518,-5.3518,-5.3518,-5.3518,-5.3518,-5.3518,-5.3518,-5.3348,-5.3247,-5.3179,-5.287,-5.2378,-5.1696,-5.1177,-5.0338,-4.9421,-4.8975,-4.851,-4.8049,-4.788,-4.7709,-4.7538,-4.7352,-4.7309,-4.7309,-4.7309,-4.7309,-4.7309,-4.7309,-4.7309,-4.7189,-4.6741,-4.6621,-4.6621,-4.6621,-4.6621,-4.677,-4.7219,-4.7309,-4.716,-4.6711,-4.6471,-4.613,-4.5693,-4.5603,-4.5783,-4.6262,-4.6501,-4.68,-4.7249,-4.7489,-4.7608,-4.7608,-4.8237,-4.8686,-4.8895,-4.9717,-5.0584,-5.1498,-5.2157,-5.2606,-5.2845,-5.3743,-5.4311,-5.4521,-5.5179,-5.5718,-5.6248,-5.6585,-5.7004,-5.7453,-5.8141,-5.8441,-5.8471,-5.8919,-5.9099,-5.9099,-5.9099,-5.9099,-5.9099,-5.9099,-5.9099,-5.9099,-6.2381,-6.2381,-6.2381,-6.2381,-6.2381,-6.2381,-6.2381,-6.2381,-6.2381,-6.2381,-6.2381,-6.1806,-6.0283,-6.0114,-5.9505,-5.8017,-5.7881,-5.7881,-5.7881,-5.6528,-5.504,-5.3585,-5.3518,-5.3518,-5.3518,-5.3518,-5.3518,-5.3518,-5.3518,-5.3518,-5.3518,-5.3518,-5.3518,-5.3518,-5.3518,-5.3518,-5.3518,-5.3518,-5.3518,-5.3518,-5.3518,-5.3382,-5.3179,-5.3179,-5.2696,-5.1951,-5.1549,-5.0761,-4.9829,-4.9461,-4.8852,-4.8343,-4.8301,-4.8007,-4.7538,-4.7352,-4.7309,-4.7309,-4.7309,-4.7309,-4.7309,-4.7309,-4.7309,-4.7309,-4.7309,-4.7309,-4.7309,-4.7309,-4.7309,-4.7309,-4.7309,-4.7309,-4.7309,-4.7309,-4.6741,-4.6279,-4.6279,-4.6279,-4.6279,-4.6279,-4.692,-4.7309,-4.7309,-4.7908,-4.8297,-4.8297,-4.894,-4.9553,-5.0166,-5.0196,-5.0794,-5.2157,-5.2845,-5.3503,-5.4221,-5.4221,-5.4551,-5.5209,-5.5867,-5.6218,-5.6278,-5.7513,-5.8112,-5.8118,-5.883,-5.9099,-5.9099,-5.9099,-5.9099,-5.9099,-5.9099,-5.9099,-5.9099,-5.9099,-5.9099,-5.9099,-6.2381,-6.2381,-6.2381,-6.2381,-6.2381,-6.2381,-6.2381,-6.2381,-6.2381,-6.2381,-6.2381,-6.2009,-6.1061,-6.0452,-5.9708,-5.8761,-5.8186,-5.7679,-5.7171,-5.6258,-5.5277,-5.4296,-5.3788,-5.3518,-5.3518,-5.3518,-5.3518,-5.3518,-5.3518,-5.3518,-5.3518,-5.3518,-5.3518,-5.3518,-5.3518,-5.3518,-5.3518,-5.3518,-5.3518,-5.3518,-5.3518,-5.345,-5.3416,-5.3416,-5.3007,-5.2414,-5.2128,-5.1475,-5.0685,-5.0454,-5.0026,-4.951,-4.8934,-4.8313,-4.7837,-4.7581,-4.7439,-4.7399,-4.7878,-4.7997,-4.7878,-4.7429,-4.7309,-4.7309,-4.7309,-4.7309,-4.7309,-4.7309,-4.7309,-4.7309,-4.7309,-4.7309,-4.7309,-4.7309,-4.713,-4.701,-4.701,-4.701,-4.701,-4.701,-4.7189,-4.7489,-4.7938,-4.8177,-4.8476,-4.9,-4.9583,-5.0242,-5.09,-5.0883,-5.1528,-5.2845,-5.3084,-5.3743,-5.488,-5.491,-5.4999,-5.5209,-5.5867,-5.6406,-5.6855,-5.7723,-5.8381,-5.883,-5.9009,-5.9099,-5.9099,-5.9099,-5.9099,-5.9099,-5.9099,-5.9099,-5.9099,-5.9099,-5.9099,-5.9099,-6.2381,-6.2381,-6.2381,-6.2381,-6.2381,-6.2381,-6.2381,-6.2381,-6.2381,-6.2381,-6.2381,-6.2009,-6.0926,-6.0385,-5.9674,-5.866,-5.8152,-5.7577,-5.6867,-5.6393,-5.5818,-5.5074,-5.4329,-5.3788,-5.3518,-5.3518,-5.3518,-5.3518,-5.3518,-5.3518,-5.3518,-5.3518,-5.3518,-5.3518,-5.3788,-5.3923,-5.3957,-5.4262,-5.4363,-5.4363,-5.4363,-5.4363,-5.4363,-5.4363,-5.4088,-5.367,-5.3456,-5.295,-5.2318,-5.2097,-5.1637,-5.1041,-5.0276,-4.9614,-4.9096,-4.8667,-4.8364,-4.8279,-4.861,-4.8686,-4.8566,-4.8177,-4.8087,-4.8027,-4.7758,-4.7698,-4.7698,-4.7698,-4.7698,-4.7788,-4.8027,-4.8087,-4.8087,-4.8087,-4.7848,-4.7698,-4.7698,-4.7459,-4.7399,-4.7668,-4.7698,-4.7967,-4.864,-4.8895,-4.9314,-5.0002,-5.0391,-5.0764,-5.1199,-5.1468,-5.2097,-5.3144,-5.3443,-5.4102,-5.5179,-5.5179,-5.5179,-5.5209,-5.6107,-5.6735,-5.7124,-5.8082,-5.874,-5.9099,-5.9099,-5.9099,-5.9099,-5.9099,-5.9099,-5.9099,-5.9099,-5.9099,-5.9099,-5.9099,-5.9099,-5.9099,-6.2381,-6.2381,-6.2381,-6.2381,-6.2381,-6.2381,-6.2381,-6.2381,-6.2381,-6.2313,-6.2279,-6.1704,-6.0182,-6.0013,-5.9438,-5.8017,-5.7881,-5.7611,-5.6934,-5.6833,-5.6494,-5.5852,-5.5108,-5.4363,-5.3721,-5.3585,-5.3518,-5.3518,-5.3585,-5.3585,-5.3585,-5.3687,-5.3721,-5.3721,-5.4397,-5.4702,-5.4735,-5.5412,-5.5681,-5.5681,-5.5681,-5.5681,-5.5681,-5.5681,-5.5611,-5.54,-5.5221,-5.4752,-5.427,-5.4048,-5.3474,-5.2717,-5.2036,-5.1455,-5.0936,-5.0245,-4.9835,-4.9568,-4.9434,-4.9389,-4.9419,-4.9479,-4.9479,-4.9299,-4.8536,-4.8386,-4.8386,-4.8386,-4.8386,-4.8566,-4.9209,-4.9299,-4.9299,-4.9299,-4.882,-4.8386,-4.8386,-4.7848,-4.7698,-4.8297,-4.8386,-4.8626,-4.9329,-4.9942,-5.0554,-5.1259,-5.1319,-5.1319,-5.1379,-5.1977,-5.2606,-5.3264,-5.3892,-5.4521,-5.5179,-5.5179,-5.5179,-5.5209,-5.6436,-5.7034,-5.7124,-5.8441,-5.9039,-5.9099,-5.9099,-5.9099,-5.9099,-5.9099,-5.9099,-5.9099,-5.9099,-5.9099,-5.9099,-5.9099,-5.9099,-5.9099,-6.2381,-6.2381,-6.2381,-6.2381,-6.2381,-6.2381,-6.2381,-6.2381,-6.2178,-6.1603,-6.1535,-6.096,-5.9438,-5.9268,-5.8896,-5.7983,-5.7881,-5.7814,-5.7679,-5.7103,-5.6731,-5.6562,-5.5852,-5.5412,-5.5243,-5.4093,-5.3518,-5.3518,-5.4093,-5.4363,-5.4363,-5.4972,-5.5243,-5.5243,-5.5412,-5.548,-5.548,-5.5614,-5.5681,-5.5681,-5.5681,-5.5681,-5.5681,-5.5681,-5.5611,-5.5366,-5.5364,-5.5152,-5.4862,-5.4645,-5.4274,-5.3776,-5.3161,-5.2322,-5.1413,-5.0765,-5.01,-4.9689,-4.9928,-5.0032,-5.0152,-5.0661,-5.081,-5.0481,-4.9314,-4.909,-4.909,-4.909,-4.909,-4.9149,-4.9269,-4.9299,-4.9299,-4.9299,-4.9179,-4.909,-4.909,-4.897,-4.894,-4.909,-4.909,-4.9314,-4.9972,-5.0631,-5.1289,-5.1947,-5.1977,-5.2217,-5.2725,-5.2875,-5.3294,-5.3952,-5.4132,-5.4521,-5.5179,-5.5179,-5.5179,-5.5209,-5.5987,-5.6615,-5.7124,-5.7962,-5.862,-5.9099,-5.9099,-5.9099,-5.9099,-5.9099,-5.9099,-5.9099,-5.9099,-5.9099,-5.9099,-5.9099,-5.9099,-5.9099,-6.2381,-6.2381,-6.2381,-6.2381,-6.2381,-6.2381,-6.2381,-6.2381,-6.2245,-6.1873,-6.1806,-6.1366,-6.0216,-5.9776,-5.9099,-5.7983,-5.7881,-5.7881,-5.7881,-5.7543,-5.7306,-5.7306,-5.663,-5.6224,-5.6224,-5.5141,-5.4566,-5.4566,-5.4938,-5.5108,-5.5141,-5.5547,-5.5681,-5.575,-5.6089,-5.6224,-5.6258,-5.6596,-5.6765,-5.6765,-5.6765,-5.6765,-5.6765,-5.6765,-5.666,-5.6588,-5.6588,-5.648,-5.6261,-5.6044,-5.5709,-5.5292,-5.4757,-5.3841,-5.2839,-5.2027,-5.1311,-5.0729,-5.0693,-5.0674,-5.0734,-5.1139,-5.1229,-5.096,-4.9942,-4.9733,-4.9733,-4.9733,-4.9733,-4.9823,-5.0152,-5.0212,-5.0212,-5.0212,-4.9942,-4.9733,-4.9733,-4.9464,-4.9419,-4.9703,-4.9733,-4.9972,-5.0614,-5.1289,-5.1828,-5.2187,-5.2486,-5.2815,-5.3174,-5.3503,-5.3832,-5.4192,-5.4521,-5.485,-5.5179,-5.5179,-5.5359,-5.5658,-5.6316,-5.6765,-5.7124,-5.8141,-5.877,-5.9099,-5.9099,-5.9099,-5.9099,-5.9099,-5.9099,-5.9099,-5.9099,-5.9099,-5.9099,-5.9099,-5.9099,-5.9099,-6.2381,-6.2381,-6.2381,-6.2381,-6.2381,-6.2381,-6.2381,-6.2381,-6.2347,-6.2212,-6.2212,-6.1907,-6.1197,-6.0385,-5.9438,-5.8186,-5.7949,-5.7881,-5.7881,-5.7881,-5.7881,-5.7881,-5.7306,-5.7002,-5.7002,-5.6393,-5.5953,-5.5681,-5.5852,-5.5919,-5.5919,-5.6021,-5.6089,-5.6122,-5.6731,-5.7002,-5.7036,-5.7645,-5.7881,-5.7881,-5.7881,-5.7881,-5.7881,-5.7881,-5.7881,-5.7881,-5.7881,-5.7772,-5.7625,-5.7439,-5.7101,-5.6719,-5.6179,-5.5295,-5.4253,-5.329,-5.2563,-5.191,-5.1369,-5.1229,-5.1259,-5.1349,-5.1379,-5.1259,-5.0794,-5.0524,-5.0375,-5.0495,-5.0524,-5.0734,-5.1439,-5.1558,-5.1558,-5.1558,-5.1109,-5.0644,-5.0554,-5.0092,-4.9972,-5.0465,-5.0614,-5.096,-5.1498,-5.2037,-5.2426,-5.2546,-5.3054,-5.3414,-5.3533,-5.4072,-5.4371,-5.4371,-5.491,-5.5239,-5.5359,-5.5359,-5.5688,-5.6346,-5.6974,-5.7274,-5.7304,-5.8411,-5.9009,-5.9099,-5.9099,-5.9099,-5.9099,-5.9099,-5.9099,-5.9099,-5.9099,-5.9099,-5.9099,-5.9099,-5.9099,-5.9099,-6.2381,-6.2381,-6.2381,-6.2381,-6.2381,-6.2381,-6.2381,-6.2381,-6.2178,-6.1535,-6.1467,-6.1163,-6.0351,-5.9607,-5.9066,-5.8896,-5.8254,-5.7881,-5.7881,-5.7881,-5.7881,-5.7881,-5.778,-5.7746,-5.7746,-5.7645,-5.6968,-5.5681,-5.6359,-5.6664,-5.6664,-5.7306,-5.7577,-5.7611,-5.7712,-5.7746,-5.7746,-5.7848,-5.7881,-5.7881,-5.7881,-5.7881,-5.7881,-5.7881,-5.7881,-5.7881,-5.7881,-5.7881,-5.7808,-5.7625,-5.7402,-5.7101,-5.6257,-5.5385,-5.4433,-5.3302,-5.2563,-5.191,-5.1369,-5.1229,-5.1349,-5.1917,-5.2067,-5.2187,-5.2665,-5.1917,-5.1259,-5.1828,-5.1947,-5.2127,-5.2785,-5.2905,-5.2905,-5.2905,-5.2845,-5.2576,-5.2007,-5.1858,-5.1828,-5.1917,-5.2426,-5.2815,-5.2905,-5.2995,-5.3294,-5.3892,-5.4012,-5.4311,-5.488,-5.4999,-5.5059,-5.5059,-5.5149,-5.5478,-5.6047,-5.6047,-5.6346,-5.6974,-5.7663,-5.7992,-5.7992,-5.8171,-5.856,-5.9099,-5.9099,-5.9099,-5.9099,-5.9099,-5.9099,-5.9099,-5.9099,-5.9099,-5.9099,-5.9099,-5.9099,-5.9099,-6.2381,-6.2381,-6.2381,-6.2381,-6.2381,-6.2381,-6.2381,-6.2381,-6.2279,-6.1941,-6.1907,-6.1772,-6.14,-6.0723,-6.0114,-5.9674,-5.9336,-5.9133,-5.9133,-5.9133,-5.8964,-5.8524,-5.8524,-5.8321,-5.7915,-5.7881,-5.7577,-5.6934,-5.7239,-5.7408,-5.7408,-5.7746,-5.7881,-5.7881,-5.7881,-5.7881,-5.7881,-5.7881,-5.7881,-5.7881,-5.7881,-5.7881,-5.7881,-5.7881,-5.7881,-5.7949,-5.8355,-5.8795,-5.9028,-5.8437,-5.8115,-5.7711,-5.6579,-5.5913,-5.5229,-5.3951,-5.3303,-5.2887,-5.2488,-5.2192,-5.2137,-5.2798,-5.2852,-5.2815,-5.3114,-5.2725,-5.2396,-5.2695,-5.2755,-5.2845,-5.3144,-5.3174,-5.3174,-5.3174,-5.3174,-5.3084,-5.2785,-5.2755,-5.2755,-5.2755,-5.2995,-5.3174,-5.3174,-5.3533,-5.3892,-5.4192,-5.4551,-5.488,-5.5179,-5.5179,-5.5359,-5.5718,-5.5748,-5.6047,-5.6675,-5.6675,-5.7004,-5.7663,-5.7992,-5.8112,-5.8141,-5.8501,-5.883,-5.9099,-5.9099,-5.9099,-5.9099,-5.9099,-5.9099,-5.9099,-5.9099,-5.9099,-5.9099,-5.9099,-5.9099,-5.9099]},{"header":{"parameterUnit":"m.s-1","parameterCategory":1,"la1":30.6,"la2":28.766,"lo1":-90.7593,"lo2":-88.6598,"dy":0.0162,"dx":0.0183,"nx":116,"ny":114,"refTime":"2024-04-26T00:00:00:Z","depth":0,"parameterNumber":3,"parameterNumberName":"V-component_of_WINDS"},"data":[0.0,0.0,0.0,0.0,0.0,0.0,0.0,0.0,0.0,0.0,0.0,0.0,0.0,0.0,0.0,0.0,0.0,0.0,0.0,0.0,0.0,0.0,0.0,0.0,0.0,0.0,0.0,0.0,0.0,0.0,0.0,0.0,0.0,0.0,0.0,0.0,0.0,0.0,0.0,0.0,0.0,0.0,0.0,0.0,0.0,0.0,0.0,0.0,0.0,0.0,0.0,0.0,0.0,0.0,0.0,0.0,0.0,0.0,0.0,0.0,0.0,0.0,0.0,0.0,0.0,0.0,0.0,0.0,0.0,0.0,0.0,0.0,0.0,0.0,0.0,0.0,0.0,0.0,0.0,0.0,0.0,0.0,0.0,0.0,0.0,0.0,0.0,0.0,0.0,0.0,0.0,0.0,0.0,0.0,0.0,0.0,0.0,0.0,0.0,0.0,0.0,0.0,0.0,0.0,0.0,0.0,0.0,0.0,0.0,0.0,0.0,0.0,0.0,0.0,0.0,0.0,0.0,0.0,0.0,0.0,0.0,0.0,0.0,0.0,0.0,0.0,0.0,0.0,0.0,0.0,0.0,0.0,0.0,0.0,0.0,0.0,0.0,0.0,0.0,0.0,0.0,0.0,0.0,0.0,0.0,0.0,0.0,0.0,0.0,0.0,0.0,0.0,0.0,0.0,0.0,0.0,0.0,0.0,0.0,0.0,0.0,0.0,0.0,0.0,0.0,0.0,0.0,0.0,0.0,0.0,0.0,0.0,0.0,0.0,0.0,0.0,0.0,0.0,0.0,0.0,0.0,0.0,0.0,0.0,0.0,0.0,0.0,0.0,0.0,0.0,0.0,0.0,0.0,0.0,0.0,0.0,0.0,0.0,0.0,0.0,0.0,0.0,0.0,0.0,0.0,0.0,0.0,0.0,0.0,0.0,0.0,0.0,0.0,0.0,0.0,0.0,0.0,0.0,0.0,0.0,0.0,0.0,0.0,0.0,0.0,0.0,0.0,0.0,0.0,0.0,0.0,0.0,0.0,0.0,0.0,0.0,0.0,0.0,0.0,0.0,0.0,0.0,0.0,0.0,0.0,0.0,0.0,0.0,0.0,0.0,0.0,0.0,0.0,0.0,0.0,0.0,0.0,0.0,0.0,0.0,0.0,0.0,0.0,0.0,0.0,0.0,0.0,0.0,0.0,0.0,0.0,0.0,0.0,0.0,0.0,0.0,0.0,0.0,0.0,0.0,0.0,0.0,0.0,0.0,0.0,0.0,0.0,0.0,0.0,0.0,0.0,0.0,0.0,0.0,0.0,0.0,0.0,0.0,0.0,0.0,0.0,0.0,0.0,0.0,0.0,0.0,0.0,0.0,0.0,0.0,0.0,0.0,0.0,0.0,0.0,0.0,0.0,0.0,0.0,0.0,0.0,0.0,0.0,0.0,0.0,0.0,0.0,0.0,0.0,0.0,0.0,0.0,0.0,0.0,0.0,0.0,0.0,0.0,0.0,0.0,0.0,0.0,0.0,0.0,0.0,0.0,0.0,0.0,0.0,0.0,0.0,0.0,0.0,0.0,0.0,0.0,0.0,0.0,0.0,0.0,0.0,0.0,0.0,0.0,0.0,0.0,0.0,0.0,0.0,0.0,0.0,0.0,0.0,0.0,0.0,0.0,0.0,0.0,0.0,0.0,0.0,0.0,0.0,0.0,0.0,0.0,0.0,0.0,0.0,0.0,0.0,0.0,0.0,0.0,0.0,0.0,0.0,0.0,0.0,0.0,0.0,0.0,0.0,0.0,0.0,0.0,0.0,0.0,0.0,0.0,0.0,0.0,0.0,0.0,0.0,0.0,0.0,0.0,0.0,0.0,0.0,0.0,0.0,0.0,0.0,0.0,0.0,0.0,0.0,0.0,0.0,0.0,0.0,0.0,0.0,0.0,0.0,0.0,0.0,0.0,0.0,0.0,0.0,0.0,0.0,0.0,0.0,0.0,0.0,0.0,0.0,0.0,0.0,0.0,0.0,0.0,0.0,0.0,0.0,0.0,0.0,0.0,0.0,0.0,0.0,0.0,0.0,0.0,0.0,0.0,0.0,0.0,0.0,0.0,0.0,0.0,0.0,0.0,0.0,0.0,0.0,0.0,0.0,0.0,0.0,0.0,0.0,0.0,0.0,0.0,0.0,0.0,0.0,0.0,0.0,0.0,0.0,0.0,0.0,0.0,0.0,0.0,0.0,0.0,0.0,0.0,0.0,0.0,0.0,0.0,0.0,0.0,0.0,0.0,0.0,0.0,0.0,0.0,0.0,0.0,0.0,0.0,0.0,0.0,0.0,0.0,0.0,0.0,0.0,0.0,0.0,0.0,0.0,0.0,0.0,0.0,0.0,0.0,0.0,0.0,0.0,0.0,0.0,0.0,0.0,0.0,0.0,0.0,0.0,0.0,0.0,0.0,0.0,0.0,0.0,0.0,0.0,0.0,0.0,0.0,0.0,0.0,0.0,0.0,0.0,0.0,0.0,0.0,0.0,0.0,0.0,0.0,0.0,0.0,0.0,0.0,0.0,0.0,0.0,0.0,0.0,0.0,0.0,0.0,0.0,0.0,0.0,0.0,0.0,0.0,0.0,0.0,0.0,0.0,0.0,0.0,0.0,0.0,0.0,0.0,0.0,0.0,0.0,0.0,0.0,0.0,0.0,0.0,0.0,0.0,0.0,0.0,0.0,0.0,0.0,0.0,0.0,0.0,0.0,0.0,0.0,0.0,0.0,0.0,0.0,0.0,0.0,0.0,0.0,0.0,0.0,0.0,0.0,0.0,0.0,0.0,0.0,0.0,0.0,0.0,0.0,0.0,0.0,0.0,0.0,0.0,0.0,0.0,0.0,0.0,0.0,0.0,0.0,0.0,0.0,0.0,0.0,0.0,0.0,0.0,0.0,0.0,0.0,0.0,0.0,0.0,0.0,0.0,0.0,0.0,0.0,0.0,0.0,0.0,0.0,0.0,0.0,0.0,0.0,0.0,0.0,0.0,0.0,0.0,0.0,0.0,0.0,0.0,0.0,0.0,0.0,0.0,0.0,0.0,0.0,0.0,0.0,0.0,0.0,0.0,0.0,0.0,0.0,0.0,0.0,0.0,0.0,0.0,0.0,0.0,0.0,0.0,0.0,0.0,0.0,0.0,0.0,0.0,0.0,0.0,0.0,0.0,0.0,0.0,0.0,0.0,0.0,0.0,0.0,0.0,0.0,0.0,0.0,0.0,0.0,0.0,0.0,0.0,0.0,0.0,0.0,0.0,0.0,0.0,0.0,0.0,0.0,0.0,0.0,0.0,0.0,0.0,0.0,0.0,0.0,0.0,0.0,0.0,0.0,0.0,0.0,0.0,0.0,0.0,0.0,0.0,0.0,0.0,0.0,0.0,0.0,0.0,0.0,0.0,0.0,0.0,0.0,0.0,0.0,0.0,0.0,0.0,0.0,0.0,0.0,0.0,0.0,0.0,0.0,0.0,0.0,0.0,0.0,0.0,0.0,0.0,0.0,0.0,0.0,0.0,0.0,0.0,0.0,0.0,0.0,0.0,0.0,0.0,0.0,0.0,0.0,0.0,0.0,0.0,0.0,0.0,0.0,0.0,0.0,0.0,0.0,0.0,0.0,0.0,0.0,0.0,0.0,0.0,0.0,0.0,0.0,0.0,0.0,0.0,0.0,0.0,0.0,0.0,0.0,0.0,0.0,0.0,0.0,0.0,0.0,0.0,0.0,0.0,0.0,0.0,0.0,0.0,0.0,0.0,0.0,0.0,0.0,0.0,0.0,0.0,0.0,0.0,0.0,0.0,0.0,0.0,0.0,0.0,0.0,0.0,0.0,0.0,0.0,0.0,0.0,0.0,0.0,0.0,0.0,0.0,0.0,0.0,0.0,0.0,0.0,0.0,0.0,0.0,0.0,0.0,0.0,0.0,0.0,0.0,0.0,0.0,0.0,0.0,0.0,0.0,0.0,0.0,0.0,0.0,0.0,0.0,0.0,0.0,0.0,0.0,0.0,0.0,0.0,0.0,0.0,0.0,0.0,0.0,0.0,0.0,0.0,0.0,0.0,0.0,0.0,0.0,0.0,0.0,0.0,0.0,0.0,0.0,0.0,0.0,0.0,0.0,0.0,0.0,0.0,0.0,0.0,0.0,0.0,0.0,0.0,0.0,0.0,0.0,0.0,0.0,0.0,0.0,0.0,0.0,0.0,0.0,0.0,0.0,0.0,0.0,0.0,0.0,0.0,0.0,0.0,0.0,0.0,0.0,0.0,0.0,0.0,0.0,0.0,0.0,0.0,0.0,0.0,0.0,0.0,0.0,0.0,0.0,0.0,0.0,0.0,0.0,0.0,0.0,0.0,0.0,0.0,0.0,0.0,0.0,0.0,0.0,0.0,0.0,0.0,0.0,0.0,0.0,0.0,0.0,0.0,0.0,0.0,0.0,0.0,0.0,0.0,0.0,0.0,0.0,0.0,0.0,0.0,0.0,0.0,0.0,0.0,0.0,0.0,0.0,0.0,0.0,0.0,0.0,0.0,0.0,0.0,0.0,0.0,0.0,0.0,0.0,0.0,0.0,0.0,0.0,0.0,0.0,0.0,0.0,0.0,0.0,0.0,0.0,0.0,0.0,0.0,0.0,0.0,0.0,0.0,0.0,0.0,0.0,0.0,0.0,0.0,0.0,0.0,0.0,0.0,0.0,0.0,0.0,0.0,0.0,0.0,0.0,0.0,0.0,0.0,0.0,0.0,0.0,0.0,0.0,0.0,0.0,0.0,0.0,0.0,0.0,0.0,0.0,0.0,0.0,0.0,0.0,0.0,0.0,0.0,0.0,0.0,0.0,0.0,0.0,0.0,0.0,0.0,0.0,0.0,0.0,0.0,0.0,0.0,0.0,0.0,0.0,0.0,0.0,0.0,0.0,0.0,0.0,0.0,0.0,0.0,0.0,0.0,0.0,0.0,0.0,0.0,0.0,0.0,0.0,0.0,0.0,0.0,0.0,0.0,0.0,0.0,0.0,0.0,0.0,0.0,0.0,0.0,0.0,0.0,0.0,0.0,0.0,0.0,0.0,0.0,0.0,0.0,0.0,0.0,0.0,0.0,0.0,0.0,0.0,0.0,0.0,0.0,0.0,0.0,0.0,0.0,0.0,0.0,0.0,0.0,0.0,0.0,0.0,0.0,0.0,0.0,0.0,0.0,0.0,0.0,0.0,0.0,0.0,0.0,0.0,0.0,0.0,0.0,0.0,0.0,0.0,0.0,0.0,0.0,0.0,0.0,0.0,0.0,0.0,0.0,0.0,0.0,0.0,0.0,0.0,0.0,0.0,0.0,0.0,0.0,0.0,0.0,0.0,0.0,0.0,0.0,0.0,0.0,0.0,0.0,0.0,0.0,0.0,0.0,0.0,0.0,0.0,0.0,0.0,0.0,0.0,0.0,0.0,0.0,0.0,0.0,0.0,0.0,0.0,0.0,0.0,0.0,0.0,0.0,0.0,0.0,0.0,0.0,0.0,0.0,0.0,0.0,0.0,0.0,0.0,0.0,0.0,0.0,0.0,0.0,0.0,0.0,0.0,0.0,0.0,0.0,0.0,0.0,0.0,0.0,0.0,0.0,0.0,0.0,0.0,0.0,0.0,0.0,0.0,0.0,0.0,0.0,0.0,0.0,0.0,0.0,0.0,0.0,0.0,0.0,0.0,0.0,0.0,0.0,0.0,0.0,0.0,0.0,0.0,0.0,0.0,0.0,0.0,0.0,0.0,0.0,0.0,0.0,0.0,0.0,0.0,0.0,0.0,0.0,0.0,0.0,0.0,0.0,0.0,0.0,0.0,0.0,0.0,0.0,0.0,0.0,0.0,0.0,0.0,0.0,0.0,0.0,0.0,0.0,0.0,0.0,0.0,0.0,0.0,0.0,0.0,0.0,0.0,0.0,0.0,0.0,0.0,0.0,0.0,0.0,0.0,0.0,0.0,0.0,0.0,0.0,0.0,0.0,0.0,0.0,0.0,0.0,0.0,0.0,0.0,0.0,0.0,0.0,0.0,0.0,0.0,0.0,0.0,0.0,0.0,0.0,0.0,0.0,0.0,3.5821,3.5093,0.0,0.0,0.0,0.0,0.0,0.0,0.0,0.0,0.0,0.0,0.0,0.0,0.0,0.0,0.0,0.0,0.0,0.0,0.0,0.0,0.0,0.0,0.0,2.5809,2.6118,2.6518,2.6645,2.6971,2.7584,2.7799,0.0,0.0,0.0,0.0,2.791,2.8554,2.9295,3.0213,3.1191,3.2241,3.3305,3.2225,3.07,2.8946,0.0,0.0,0.0,0.0,0.0,0.0,0.0,0.0,0.0,0.0,0.0,0.0,0.0,0.0,0.0,0.0,0.0,0.0,0.0,0.0,0.0,0.0,0.0,0.0,0.0,0.0,0.0,0.0,0.0,0.0,0.0,0.0,0.0,0.0,0.0,0.0,0.0,0.0,0.0,0.0,0.0,0.0,0.0,0.0,0.0,0.0,0.0,0.0,0.0,0.0,0.0,0.0,0.0,0.0,0.0,0.0,0.0,0.0,0.0,0.0,0.0,0.0,0.0,0.0,0.0,0.0,0.0,0.0,0.0,0.0,3.8826,3.7724,0.0,0.0,0.0,0.0,0.0,0.0,0.0,0.0,0.0,0.0,0.0,0.0,0.0,0.0,0.0,0.0,0.0,0.0,0.0,0.0,0.0,2.6052,2.6134,2.6499,2.6949,2.7438,2.7476,2.7638,2.8014,2.7936,2.7868,2.778,2.7831,2.7881,2.7904,2.8908,3.0041,3.1323,3.2748,3.417,3.5603,3.5638,3.4318,3.1882,3.0678,0.0,0.0,0.0,0.0,0.0,0.0,0.0,0.0,0.0,0.0,0.0,0.0,0.0,0.0,0.0,0.0,0.0,0.0,0.0,0.0,0.0,0.0,0.0,0.0,0.0,0.0,0.0,0.0,0.0,0.0,0.0,0.0,0.0,0.0,0.0,0.0,0.0,0.0,0.0,0.0,0.0,0.0,0.0,0.0,0.0,0.0,0.0,0.0,0.0,0.0,0.0,0.0,0.0,0.0,0.0,0.0,0.0,0.0,0.0,0.0,0.0,0.0,0.0,4.3625,4.3952,4.3952,4.3952,4.4317,4.4841,4.2404,4.11,4.0602,4.0074,0.0,0.0,0.0,0.0,0.0,0.0,0.0,0.0,0.0,0.0,0.0,0.0,0.0,0.0,0.0,0.0,0.0,0.0,0.0,2.6903,2.7794,2.8288,2.8733,2.925,2.9237,2.9079,2.8621,2.8246,2.8009,2.7969,2.7491,2.7548,2.8223,2.9367,3.0599,3.1807,3.5206,3.6972,3.7237,3.8158,3.7975,3.665,3.4097,3.2459,3.1498,0.0,0.0,0.0,0.0,0.0,0.0,0.0,0.0,0.0,0.0,0.0,0.0,0.0,0.0,0.0,0.0,0.0,0.0,0.0,0.0,0.0,0.0,0.0,0.0,0.0,0.0,0.0,0.0,0.0,0.0,0.0,0.0,0.0,0.0,0.0,0.0,0.0,0.0,0.0,0.0,0.0,3.2096,3.2158,0.0,0.0,0.0,0.0,0.0,0.0,0.0,0.0,0.0,0.0,0.0,0.0,0.0,4.253,4.3538,4.4762,4.5845,4.6786,4.7645,4.8021,4.8021,4.8021,4.8071,4.8159,4.7233,0.0,4.3281,4.2659,0.0,0.0,0.0,0.0,0.0,0.0,0.0,0.0,0.0,0.0,0.0,0.0,0.0,0.0,0.0,0.0,0.0,0.0,0.0,0.0,0.0,2.8723,2.934,3.0203,3.013,2.9921,2.9659,2.9073,2.8604,2.836,2.8058,2.8214,2.8722,3.0032,3.2054,3.4693,3.7184,3.881,3.955,3.9915,3.9925,3.9492,3.7821,3.6016,3.4095,3.3135,0.0,0.0,0.0,0.0,0.0,0.0,0.0,0.0,0.0,0.0,0.0,0.0,0.0,0.0,0.0,0.0,0.0,0.0,0.0,0.0,0.0,0.0,0.0,0.0,0.0,0.0,0.0,0.0,0.0,0.0,0.0,0.0,0.0,0.0,0.0,0.0,0.0,0.0,0.0,3.3812,3.5108,3.55,3.5734,3.5685,0.0,0.0,0.0,0.0,0.0,0.0,0.0,0.0,0.0,4.4347,4.5462,4.6278,4.6749,4.787,4.8671,4.9146,4.9851,5.0193,5.0193,5.0193,5.0193,5.0167,4.9916,4.876,4.691,4.5116,4.3482,4.2078,0.0,0.0,0.0,0.0,3.9511,3.9643,0.0,0.0,0.0,0.0,0.0,0.0,0.0,0.0,0.0,0.0,0.0,0.0,2.9056,2.9507,3.0141,3.1316,3.1249,3.0991,3.0733,2.9926,2.9312,2.8927,2.8855,2.9027,2.9532,3.1332,3.3896,3.7259,3.875,4.0089,4.1248,4.1302,4.1365,4.1339,4.0689,3.9023,3.6492,3.5496,3.4126,3.244,0.0,0.0,0.0,0.0,0.0,0.0,0.0,0.0,0.0,0.0,0.0,0.0,0.0,0.0,0.0,0.0,0.0,0.0,0.0,0.0,0.0,0.0,0.0,0.0,0.0,0.0,0.0,0.0,0.0,0.0,0.0,0.0,0.0,0.0,0.0,0.0,0.0,3.653,3.806,3.8965,3.9203,3.919,0.0,0.0,0.0,0.0,0.0,0.0,4.5613,4.67,4.7446,4.7845,4.8924,4.9414,4.9414,5.0368,5.0845,5.0845,5.1423,5.1699,5.1699,5.1699,5.1699,5.1674,5.1398,5.0795,4.9841,4.7355,4.5497,4.4141,4.2937,4.2027,4.1429,4.1186,4.1166,4.1205,0.0,0.0,0.0,0.0,0.0,0.0,0.0,0.0,0.0,0.0,0.0,2.8412,3.0615,3.1303,3.1954,3.3009,3.3051,3.265,3.1637,3.0662,3.0041,2.9747,2.9506,2.9783,3.08,3.3597,3.6129,3.8224,3.9721,4.0832,4.1705,4.2495,4.2699,4.231,4.2005,4.0603,3.8315,3.756,3.6231,3.4544,3.3029,0.0,0.0,0.0,0.0,0.0,0.0,0.0,0.0,0.0,0.0,0.0,0.0,0.0,0.0,0.0,0.0,0.0,0.0,0.0,0.0,0.0,0.0,0.0,0.0,0.0,0.0,0.0,0.0,0.0,0.0,0.0,0.0,0.0,0.0,0.0,0.0,0.0,0.0,4.1804,4.2622,0.0,0.0,0.0,0.0,4.6134,4.7365,4.8565,4.9685,5.0522,5.1046,5.1071,5.1122,5.1147,5.1147,5.1724,5.2026,5.2026,5.2578,5.2854,5.2854,5.2854,5.2854,5.2779,5.1724,5.1247,5.1071,4.9314,4.733,4.5347,4.4744,4.384,4.2886,4.2886,4.2559,4.2108,0.0,0.0,0.0,0.0,0.0,1.9034,1.9724,2.1454,2.3203,2.4835,2.6532,2.8507,3.0974,3.1803,3.2745,3.4119,3.4042,3.3747,3.3174,3.2088,3.1374,3.1278,3.0951,3.1665,3.3496,3.5359,3.7389,3.9535,4.0461,4.1498,4.2763,4.3051,4.305,4.2799,4.313,4.2698,4.1539,3.9744,3.8246,3.6922,3.5328,3.354,0.0,0.0,0.0,0.0,0.0,0.0,0.0,0.0,0.0,0.0,0.0,0.0,0.0,0.0,0.0,0.0,0.0,0.0,0.0,0.0,0.0,0.0,0.0,0.0,0.0,0.0,0.0,0.0,0.0,0.0,0.0,0.0,0.0,0.0,0.0,0.0,0.0,4.676,4.7053,0.0,4.8585,4.851,4.9026,5.0313,5.1312,5.2166,5.2917,5.3281,5.3381,5.3381,5.303,5.2829,5.2829,5.2703,5.2628,5.2628,5.2829,5.2929,5.2929,5.2929,5.2929,5.2879,5.2126,5.1599,5.1197,5.0243,4.8535,4.6502,4.5924,4.502,4.4041,4.4041,4.3915,4.3689,0.0,0.0,0.0,0.0,0.0,1.8788,1.9569,2.1148,2.2902,2.4786,2.6655,2.8838,3.1498,3.2512,3.3622,3.509,3.5066,3.4679,3.4025,3.3054,3.2394,3.223,3.2483,3.3564,3.5507,3.6911,3.8474,4.0393,4.1095,4.2088,4.329,4.329,4.325,4.313,4.3567,4.3849,4.3831,4.1966,4.0634,3.9591,3.7964,3.6182,3.432,0.0,0.0,0.0,0.0,0.0,0.0,0.0,0.0,0.0,0.0,0.0,0.0,0.0,0.0,0.0,0.0,0.0,0.0,0.0,0.0,0.0,0.0,0.0,0.0,0.0,0.0,0.0,0.0,0.0,0.0,0.0,0.0,0.0,0.0,4.5066,4.7834,5.0795,5.1092,5.1546,5.3038,5.2869,5.3128,5.4227,5.4595,5.4988,5.539,5.539,5.5214,5.4863,5.4285,5.3909,5.3708,5.3181,5.2929,5.2929,5.2929,5.2929,5.2929,5.2929,5.2929,5.2879,5.2151,5.1624,5.1222,5.0444,4.9063,4.7355,4.6979,4.6276,4.5447,4.5271,4.4945,4.4518,0.0,0.0,0.0,0.0,0.0,1.8384,1.9517,2.0842,2.2534,2.4944,2.7016,2.9333,3.2254,3.3397,3.4484,3.5831,3.6003,3.5398,3.4101,3.3571,3.3063,3.2509,3.3913,3.5332,3.661,3.8118,3.9547,4.0811,4.1655,4.2505,4.329,4.329,4.329,4.329,4.3349,4.3986,4.4941,4.414,4.3398,4.2575,4.0831,3.9165,3.7534,0.0,0.0,0.0,0.0,0.0,0.0,0.0,0.0,0.0,0.0,0.0,0.0,0.0,0.0,0.0,0.0,0.0,0.0,0.0,0.0,0.0,0.0,0.0,0.0,0.0,0.0,0.0,0.0,0.0,0.0,0.0,0.0,0.0,4.5137,4.7943,5.0909,5.3644,5.462,5.5631,5.7273,5.6724,5.6771,5.7901,5.7449,5.7097,5.7072,5.7072,5.657,5.544,5.4863,5.4285,5.3733,5.3206,5.2929,5.2929,5.2929,5.2929,5.2929,5.2929,5.2929,5.2879,5.1749,5.1272,5.1197,5.0067,4.8937,4.7933,4.7908,4.7581,4.6993,4.6502,4.5598,4.4468,0.0,0.0,0.0,1.7582,1.7806,1.8331,1.9272,2.038,2.1979,2.4375,2.6156,2.8391,3.1403,3.2606,3.3641,3.4721,3.5172,3.4996,3.4059,3.3658,3.3582,3.3828,3.4839,3.6016,3.7289,3.865,3.9894,4.1003,4.1888,4.2662,4.329,4.329,4.329,4.3319,4.4317,4.4904,4.5251,4.5773,4.5886,4.5508,4.3101,4.1512,4.0522,0.0,0.0,0.0,0.0,0.0,0.0,0.0,0.0,0.0,0.0,0.0,0.0,0.0,0.0,0.0,0.0,0.0,0.0,0.0,0.0,0.0,0.0,0.0,0.0,0.0,0.0,0.0,0.0,0.0,0.0,0.0,4.5243,4.7647,4.8899,5.1309,5.402,5.6975,5.755,5.8276,5.9954,5.918,5.888,5.9608,5.9131,5.8478,5.77,5.765,5.7148,5.6018,5.5064,5.4486,5.4336,5.3406,5.2929,5.2929,5.2929,5.2929,5.2929,5.2929,5.2929,5.2879,5.1749,5.1272,5.1197,5.0067,4.9188,4.8485,4.8083,4.733,4.6527,4.6376,4.5598,4.4518,0.0,0.0,0.0,1.7582,1.774,1.8122,1.8945,2.0019,2.154,2.3831,2.5596,2.7687,3.0491,3.1575,3.2534,3.3692,3.4161,3.4105,3.343,3.3316,3.3629,3.4382,3.5318,3.6362,3.7586,3.9102,4.0312,4.1109,4.2234,4.297,4.329,4.329,4.329,4.3319,4.4137,4.4766,4.5334,4.5985,4.6513,4.6755,4.498,4.3779,4.2879,4.2241,4.1099,3.9882,3.9288,3.8414,3.7376,3.659,0.0,0.0,0.0,0.0,0.0,0.0,0.0,0.0,0.0,0.0,0.0,0.0,0.0,0.0,0.0,0.0,0.0,0.0,0.0,0.0,0.0,0.0,0.0,0.0,4.8318,5.0954,5.2779,5.439,5.6299,5.9056,5.9583,6.0211,6.1416,6.0713,6.0236,6.0311,5.9809,5.9031,5.7951,5.7901,5.7374,5.6244,5.5139,5.4561,5.4561,5.3482,5.2929,5.2929,5.2929,5.2929,5.2929,5.2929,5.2929,5.2879,5.1749,5.1272,5.1197,5.0067,4.9113,4.8385,0.0,0.0,0.0,0.0,4.5196,4.4518,0.0,0.0,0.0,1.7582,1.7582,1.7898,1.867,1.9709,2.1183,2.3285,2.5061,2.701,2.931,3.0206,3.1182,3.2394,3.279,3.2851,3.2485,3.2846,3.3504,3.446,3.5547,3.6623,3.7709,3.9557,4.0744,4.116,4.2574,4.329,4.329,4.329,4.329,4.325,4.3339,4.4056,4.518,4.5239,4.5858,4.6726,4.624,4.5518,4.4637,4.4349,4.3251,4.186,4.1547,4.1029,4.028,3.9231,0.0,0.0,0.0,0.0,0.0,0.0,0.0,0.0,0.0,0.0,0.0,0.0,0.0,0.0,0.0,0.0,0.0,0.0,0.0,0.0,0.0,0.0,0.0,0.0,5.097,5.3876,5.6377,5.7,5.8001,6.006,6.0763,6.1291,6.1868,6.1416,6.0864,6.0362,5.9809,5.9031,5.7951,5.7901,0.0,0.0,0.0,5.4561,5.4561,5.3482,5.2929,5.2929,5.2929,5.2929,5.2929,5.2929,5.2929,5.2879,5.1749,5.1272,5.1197,5.0067,4.8937,4.7908,4.7782,4.7456,4.6792,4.5221,4.4618,4.4468,0.0,0.0,1.7582,1.7582,1.7582,1.7898,1.867,1.9413,2.0534,2.2484,2.3782,2.5263,2.7187,2.8174,2.8983,2.9774,3.0652,3.1556,3.2372,3.3239,3.4114,3.5087,3.6273,3.7372,3.8452,3.9946,4.0953,4.1578,4.2584,4.317,4.329,4.329,4.321,4.309,4.3615,4.4093,4.4536,4.5065,4.5581,4.5972,4.5475,4.5326,4.5298,4.5138,4.4449,4.3699,4.413,4.3468,4.2423,4.2173,4.0867,3.9075,3.7755,3.5804,0.0,0.0,0.0,0.0,0.0,0.0,0.0,0.0,0.0,0.0,0.0,0.0,0.0,0.0,0.0,0.0,0.0,0.0,0.0,5.163,5.3474,5.5405,5.7926,5.8327,5.888,6.0161,6.0412,6.0713,6.1291,6.0814,6.0437,6.0337,5.9809,5.9031,5.7951,5.7901,5.7374,5.6244,5.5139,5.4561,5.4561,5.3482,5.2929,5.2929,5.2929,0.0,5.2929,5.2929,5.2929,5.2879,5.1749,5.1272,5.1197,5.0067,4.8937,4.7832,4.6954,4.6552,4.6326,4.507,4.4618,4.4468,0.0,1.7582,1.7582,1.7582,1.7582,1.7793,1.8318,1.9049,1.9983,2.1336,2.2652,2.4022,2.5465,2.6328,2.7066,2.7793,2.8988,3.0392,3.1965,3.2881,3.382,3.4893,3.5721,3.6678,3.7672,3.9117,4.0203,4.0845,4.1971,4.2537,4.2659,4.2659,4.2618,4.2526,4.3077,4.3553,4.3979,4.4486,4.4825,4.5035,4.4666,4.449,4.4447,4.4969,4.5056,4.4975,4.5183,4.485,4.4198,4.3916,4.2789,4.1272,4.0148,3.8193,3.6005,0.0,0.0,0.0,0.0,0.0,0.0,0.0,0.0,0.0,0.0,0.0,0.0,0.0,0.0,4.773,4.916,0.0,5.1737,5.4302,5.5699,5.69,5.8453,5.8956,5.9408,6.0211,6.0311,6.0437,6.0713,6.0487,6.0211,5.9935,5.9659,5.9031,5.7951,5.7901,5.7374,5.6244,5.5139,5.4561,5.4561,5.3482,5.2929,5.2929,5.2929,5.2929,5.2929,5.2929,5.2929,5.2879,5.2051,5.1548,5.1147,4.9439,4.841,4.7807,4.6728,4.615,4.5799,4.4945,4.4443,4.4091,0.0,0.0,1.7582,1.7582,1.7582,1.7687,1.7964,1.8646,1.9428,2.0174,2.1556,2.282,2.385,2.4524,2.5369,2.647,2.7822,2.9421,3.1412,3.2287,3.3259,3.4438,3.4972,3.5654,3.6516,3.7903,3.8968,3.9761,4.0941,4.1603,4.1798,4.1914,4.1971,4.1917,4.2338,4.2824,4.3291,4.3579,4.375,4.3843,4.3634,4.34,4.3309,4.4145,4.4826,4.5369,4.5407,4.537,4.5215,4.4825,4.4053,4.3127,4.2286,4.0442,3.8261,3.6747,3.5133,0.0,0.0,0.0,0.0,0.0,0.0,0.0,0.0,4.6848,4.872,4.9515,5.0798,5.2075,5.3157,5.3911,5.4838,5.6294,5.7399,5.8252,5.8805,5.9232,5.9659,6.0111,6.0161,6.0161,6.0161,6.0161,5.9985,5.9533,5.9408,5.893,5.7951,5.7801,5.7273,5.6244,5.5139,5.4561,5.4561,5.3482,5.2929,5.2929,5.2929,5.2929,5.2929,5.2929,5.2929,5.2879,5.2226,5.1624,5.0946,4.8786,4.7908,4.7807,4.6728,4.5899,4.5271,4.4794,4.4267,4.3714,0.0,0.0,0.0,1.7582,1.7582,1.7687,1.7964,1.8279,1.8736,1.9376,2.0241,2.1097,2.1912,2.2769,2.4116,2.6305,2.732,2.8763,3.0951,3.1996,3.2982,3.4027,3.4772,3.5373,3.5987,3.6806,3.7794,3.8942,3.9525,4.0232,4.1128,4.1653,4.1751,4.1562,4.2137,4.2332,4.2078,4.216,4.2181,4.2235,4.2065,4.2407,4.297,4.2579,4.2941,4.3827,4.4863,4.4913,4.4503,4.4929,4.4593,4.3986,4.3585,4.2079,4.0358,3.9616,3.7451,3.5345,3.5692,3.6617,3.8036,4.0434,4.274,4.4974,0.0,4.9935,5.2359,5.3123,5.4522,5.5606,5.5624,5.6208,5.6897,5.76,5.8227,5.8805,5.9332,5.9458,5.9508,5.9583,5.9583,5.9583,5.9583,5.9583,5.9558,5.9508,5.9056,5.8554,5.7926,5.7424,5.6846,5.6219,5.5139,5.4561,5.4561,5.3482,5.2929,5.2929,5.2929,5.2929,5.2929,5.2929,5.2929,5.2879,5.1825,5.1046,5.0368,4.8636,4.7908,4.7807,4.6728,4.5648,4.4719,4.4644,4.4267,4.3714,0.0,0.0,0.0,1.7582,1.7582,1.7635,1.774,1.8016,1.8279,1.8489,1.9413,2.0292,2.0944,2.2374,2.3962,2.5578,2.6558,2.7946,2.9987,3.1195,3.2316,3.3442,3.3848,3.4384,3.5067,3.5519,3.6284,3.7473,3.8067,3.8679,3.9336,3.9741,3.9847,3.9734,4.0251,4.0311,4.021,4.0475,4.0485,4.0414,4.044,4.0721,4.1014,4.1145,4.1499,4.2131,4.3411,4.399,0.0,0.0,4.3947,4.3879,4.3391,4.2457,4.1136,3.9418,3.7449,3.572,3.5404,3.6319,3.796,4.0523,4.3184,4.5969,4.8837,5.1762,5.4413,5.5894,5.6888,5.7662,5.8178,5.8402,5.8554,5.878,5.9282,5.9608,5.9508,5.9232,5.9056,5.9056,5.8755,5.8805,5.9433,5.9483,5.9483,5.9483,5.9307,5.8805,5.7951,5.7675,5.7123,5.6244,5.5139,5.4561,5.4561,5.3482,5.2929,5.2929,5.2929,5.2929,5.2929,5.2929,5.2754,5.2402,5.1624,5.0946,5.0293,4.8611,4.7908,4.7807,4.6728,4.5623,4.4618,4.4618,4.4066,4.3288,0.0,0.0,0.0,1.7582,1.7582,1.7582,1.7582,1.774,1.7911,1.7911,1.8698,1.9569,2.0534,2.2275,2.3825,2.4852,2.5752,2.7043,2.8901,3.0006,3.1099,3.2211,3.2393,3.2716,3.3312,3.3479,3.4139,3.5352,3.6018,3.6747,3.7444,3.7866,3.814,3.8214,3.8642,3.869,3.8638,3.8906,3.8871,3.8662,3.8819,3.9034,3.9336,3.9692,4.0096,4.0611,4.1843,4.2559,0.0,4.2258,4.2434,4.2774,4.2294,4.1826,4.1033,3.885,3.7068,3.5576,3.5128,3.6012,3.7785,4.0928,4.3825,4.6803,5.0272,5.3156,5.566,5.765,5.814,5.8589,5.9733,5.9541,5.9332,5.9483,5.9834,5.996,5.9558,5.9056,5.873,5.873,5.8102,5.8027,5.8956,5.9182,5.9282,5.9282,5.9131,5.8704,5.7951,5.76,5.7047,5.6244,5.5139,5.4561,5.4561,5.3482,5.2929,5.2929,5.2929,5.2929,5.2929,5.2779,5.2477,5.2076,5.1348,5.0795,5.0293,4.8611,4.7908,4.7807,4.6728,4.5723,4.4844,4.4694,4.3915,4.2986,0.0,0.0,0.0,0.0,1.7582,1.7582,1.7582,1.7635,1.7635,1.7635,1.7859,1.8788,2.0688,2.2225,2.3499,2.4424,2.5054,2.6136,2.7733,2.8493,2.9248,3.0146,3.0267,3.0344,3.0324,3.0359,3.1052,3.2437,3.3003,3.4087,3.571,3.6617,3.7191,3.7445,3.8056,3.8036,3.7554,3.7554,3.7394,3.7126,3.718,3.7672,3.8394,3.8137,3.8626,3.9433,4.0259,0.0,4.0526,3.9973,4.0149,4.0573,4.0283,4.0148,3.9854,3.8639,3.6742,3.5104,3.555,3.6501,3.8315,4.2234,4.5073,4.7958,5.1583,5.4064,5.6186,5.8274,5.8289,5.8301,5.9658,5.9262,5.8905,5.9408,5.9508,5.9508,5.9483,5.9056,5.873,5.873,5.7725,5.7298,5.7901,5.8428,5.8755,5.8755,5.8252,5.7926,5.7901,5.6872,5.6244,5.6219,5.5139,5.4561,5.4561,5.3482,5.2929,5.2929,5.2929,5.2929,5.2904,5.2377,5.2126,5.2051,5.0921,5.0444,5.0293,4.8611,4.7908,4.7807,4.6728,4.5974,4.5397,4.4844,4.3915,4.2986,0.0,0.0,0.0,0.0,0.0,1.7582,1.7582,1.7582,1.7582,1.7582,1.816,0.0,0.0,0.0,0.0,0.0,2.4741,2.5525,2.6659,2.7208,2.7893,2.8814,2.8748,2.8801,2.9004,2.8849,2.9295,3.037,3.0957,3.1861,3.3053,3.3557,3.4086,3.4549,3.4781,3.4869,3.4891,3.4891,3.4836,3.4781,3.5223,3.5353,3.5414,3.6277,3.6483,3.6398,0.0,0.0,3.8441,3.774,3.809,3.8742,3.831,3.8383,3.8305,3.6455,3.5012,3.4137,3.4677,3.6039,3.8055,4.0912,4.429,4.7611,5.0456,5.3071,5.5304,5.6771,5.7014,5.7143,5.7754,5.8049,5.8102,5.7901,5.878,5.9232,5.8529,5.8278,5.7901,5.7148,5.6394,5.5867,5.5717,5.6846,5.7775,5.8152,5.8001,5.7725,5.7349,5.6972,5.642,5.5691,5.4938,5.4386,5.4009,5.3281,5.2929,5.2929,5.2929,5.2929,5.2904,5.2352,5.19,5.1523,5.0745,5.0218,4.9766,4.846,4.7908,4.7807,4.6728,4.5748,4.4895,4.4694,4.3915,4.2936,0.0,0.0,0.0,0.0,0.0,0.0,0.0,0.0,0.0,0.0,0.0,0.0,0.0,0.0,0.0,0.0,0.0,2.4827,2.5344,2.569,2.6172,2.6803,2.6654,2.6631,2.6873,2.673,2.7038,2.7855,2.8692,2.9592,3.0548,3.1129,3.1569,3.1885,3.1999,3.2143,3.2336,3.2336,3.2448,3.2693,3.3082,3.3167,3.3193,3.4199,3.4343,0.0,0.0,3.5377,3.6158,3.6091,3.6533,3.7089,3.7048,3.7273,3.7183,3.5767,3.4858,3.4533,3.5161,3.6444,3.8226,4.076,4.3995,4.725,4.9743,5.2076,5.4013,5.5211,5.5091,5.4949,5.5527,5.6081,5.642,5.6445,5.7851,5.8755,5.8252,5.8027,5.7625,5.6897,5.5968,5.5315,5.5164,5.5942,5.6671,5.7248,5.7474,5.7424,5.7047,5.6846,5.6319,5.5415,5.4863,5.4285,5.3708,5.3181,5.2929,5.2929,5.2929,5.2929,5.2904,5.2151,5.1624,5.1247,5.0469,4.9816,4.9238,4.8284,4.7807,4.7531,4.6652,4.5748,4.492,4.4694,4.4041,4.3162,0.0,0.0,0.0,0.0,0.0,0.0,0.0,0.0,0.0,0.0,0.0,0.0,0.0,0.0,0.0,0.0,0.0,0.0,2.3905,2.4051,2.4187,2.43,2.4055,2.3959,2.3991,2.4026,2.4379,2.4963,2.6181,2.7254,2.8176,2.9161,2.9581,2.9508,2.9813,3.0015,2.9976,2.9976,3.0289,3.084,3.0894,3.1202,3.1641,3.2069,0.0,0.0,0.0,3.3353,3.3793,3.5002,3.5483,3.5737,3.6598,3.6823,3.6726,3.6655,3.6362,3.6206,3.6917,3.7682,3.8946,4.1618,4.4274,4.6887,4.9504,5.106,5.2329,5.3512,5.2613,5.1981,5.3072,5.3431,5.3909,5.5064,5.6696,5.8001,5.8554,5.8227,5.7901,5.7826,5.642,5.5641,5.6093,5.5691,5.5641,5.6118,5.6671,5.6997,5.6997,5.6495,5.5942,5.5365,5.4838,5.4285,5.3658,5.3181,5.2929,5.2929,5.2929,5.2929,5.2879,5.1774,5.1272,5.1222,5.0092,4.9289,4.8736,4.8159,4.7606,4.7018,4.6502,4.5924,4.5372,4.4794,4.4242,4.3614,0.0,0.0,0.0,0.0,0.0,0.0,0.0,0.0,0.0,0.0,0.0,0.0,0.0,0.0,0.0,0.0,0.0,0.0,2.3598,2.308,2.2778,2.2672,2.2209,2.1964,2.2009,2.2039,2.232,2.2916,2.3546,2.4293,2.5208,2.5444,2.6097,2.6938,2.7053,2.7477,2.8087,2.8295,2.8576,2.8862,0.0,2.9305,2.9201,0.0,0.0,0.0,3.2406,3.3173,3.3674,3.413,3.5265,3.6673,3.7938,3.8456,3.8586,3.901,3.8675,3.8167,3.8325,3.8993,3.9952,4.0911,4.37,4.6564,4.8072,4.9432,5.0481,5.0691,5.0086,4.9682,4.996,5.0685,5.1774,5.3306,5.529,5.6821,5.7399,5.8077,5.8052,5.6796,5.662,5.6194,5.5089,5.5591,5.5892,5.5616,5.6118,5.642,5.642,5.6294,5.5767,5.4813,5.4637,5.411,5.313,5.3005,5.2929,5.2929,5.2929,5.2929,5.2879,5.1774,5.1272,5.1222,5.0092,4.9289,4.8736,4.8159,4.7606,4.7029,4.6075,4.5347,4.4769,4.4217,4.3664,4.3087,0.0,0.0,0.0,0.0,0.0,0.0,0.0,0.0,0.0,0.0,0.0,0.0,0.0,0.0,0.0,0.0,0.0,0.0,0.0,2.2447,2.1835,2.1287,2.0743,2.0383,2.023,2.0385,2.0656,2.1001,2.1598,0.0,2.2708,2.2983,2.3409,2.3951,2.4081,2.449,2.5082,2.5471,0.0,0.0,0.0,0.0,0.0,0.0,0.0,3.0169,3.1841,3.329,3.4619,3.5603,3.7017,3.864,3.9773,4.0642,4.1302,4.1868,4.1501,4.0804,4.0784,4.0808,4.0942,4.1488,4.3354,4.5505,4.7079,4.7877,4.8392,4.8509,4.7682,4.6954,4.6954,4.8058,4.959,5.1523,5.4084,5.6219,5.7273,5.8177,5.8378,5.7424,5.7374,5.7047,5.6118,5.6369,5.6445,5.6143,5.6168,5.6219,5.6219,5.6219,5.5717,5.4587,5.4561,5.4034,5.2929,5.2929,5.2929,5.2929,5.2929,5.2804,5.2528,5.1674,5.1147,5.0845,4.9967,4.9138,4.836,4.8033,4.7456,4.6702,4.5824,4.5121,4.4568,4.4016,4.3463,4.2936,0.0,0.0,0.0,0.0,0.0,0.0,0.0,0.0,0.0,0.0,1.7847,0.0,0.0,0.0,0.0,0.0,0.0,0.0,0.0,0.0,0.0,2.0159,1.9636,1.9194,1.8851,1.9111,1.9289,1.9314,2.0202,2.0687,0.0,0.0,0.0,0.0,0.0,0.0,0.0,0.0,0.0,0.0,0.0,0.0,0.0,0.0,0.0,0.0,3.1528,3.3662,3.5966,3.7864,3.9488,4.0874,4.1778,4.3094,4.4337,4.4909,4.4412,4.3713,4.3556,4.264,4.1866,4.2454,4.3157,4.421,4.6043,4.6261,4.6186,4.6523,4.5363,4.4317,4.4392,4.5723,4.7556,4.9841,5.2929,5.5641,5.7323,5.8227,5.8704,5.8629,5.8303,5.8052,5.7901,5.7449,5.7123,5.7047,5.652,5.6219,5.6219,5.6219,5.5717,5.4587,5.4436,5.3884,5.2929,5.2929,5.2929,5.2929,5.2929,5.2628,5.2076,5.1523,5.0971,5.0393,4.9841,4.8987,4.8008,4.7933,4.733,4.6351,4.5648,4.507,4.4543,4.3915,4.3388,4.2961,0.0,0.0,0.0,0.0,0.0,0.0,0.0,0.0,0.0,0.0,1.7956,1.7793,0.0,0.0,0.0,0.0,0.0,0.0,0.0,0.0,0.0,0.0,1.9261,1.889,1.8604,1.8659,1.8768,1.8975,1.9142,1.9396,1.968,1.9779,0.0,0.0,0.0,0.0,0.0,0.0,0.0,0.0,0.0,0.0,0.0,0.0,0.0,0.0,3.2107,3.4287,3.6213,3.7886,3.9993,4.2133,4.3633,4.535,4.6922,4.7337,4.676,4.5806,4.4661,4.3491,4.246,4.1939,4.2472,4.3335,4.4112,4.4365,4.4365,4.4094,4.3269,4.2766,4.3187,4.4242,4.5949,4.8611,5.1473,5.3934,5.5591,5.7499,5.8554,5.8102,5.873,5.888,5.7976,5.7801,5.7549,5.7072,5.652,5.6219,5.6219,5.6219,5.5717,5.4587,5.3683,5.313,5.2929,5.2929,5.2929,5.2929,5.2929,5.2628,5.2076,5.1523,5.0971,5.0393,4.9841,4.9213,4.8586,4.8109,4.7556,4.6792,4.5347,4.4719,4.4493,4.3489,4.3062,4.2911,0.0,0.0,0.0,0.0,0.0,0.0,0.0,1.8129,1.8384,1.8677,1.8597,1.844,1.8304,1.8901,1.9657,0.0,0.0,0.0,0.0,0.0,0.0,0.0,0.0,0.0,1.8434,1.8493,1.851,1.8408,0.0,1.8747,1.8915,1.8752,1.8769,1.8891,1.8779,1.907,1.9817,2.0506,2.1462,2.2724,2.4235,2.534,0.0,0.0,0.0,0.0,0.0,3.3458,3.5375,3.6701,3.9201,4.2076,4.4136,4.6134,4.7895,4.8706,4.8469,4.7653,4.6747,4.5333,4.3859,4.2815,4.2266,4.2123,4.2759,4.2559,4.2248,4.2146,4.1663,4.1379,4.1656,4.2836,4.4593,4.7079,4.9816,5.2302,5.4235,5.6194,5.7524,5.7851,5.8353,5.8579,5.8353,5.7801,5.7323,5.7047,5.652,5.6219,5.6219,5.5666,5.4963,5.4135,5.3331,5.2929,5.2929,5.2929,5.2929,5.2929,5.2628,5.2201,5.1649,5.1096,5.0519,4.9967,4.9715,4.9289,4.8736,4.8159,4.7606,4.6892,4.5212,4.4618,4.4493,4.3388,4.2986,4.2886,0.0,0.0,0.0,0.0,0.0,0.0,0.0,1.845,1.8784,1.9078,1.9372,1.9381,1.8836,1.9068,1.9565,0.0,0.0,0.0,0.0,0.0,0.0,0.0,0.0,0.0,0.0,0.0,0.0,1.8291,1.8464,0.0,0.0,0.0,0.0,0.0,1.7796,1.7966,1.8475,1.9257,2.0493,0.0,0.0,2.5209,0.0,0.0,0.0,0.0,0.0,3.2205,3.4042,3.5161,3.7715,4.0769,4.3022,4.5597,4.8021,4.9147,4.9291,4.8977,4.842,4.6904,4.5221,4.3803,4.2216,4.1212,4.1579,4.1033,4.0464,4.0597,4.0461,4.0375,4.0501,4.1681,4.3313,4.5422,4.7983,5.0444,5.2528,5.4461,5.6093,5.7223,5.7575,5.7926,5.8504,5.7625,5.7022,5.7022,5.642,5.6043,5.6043,5.4988,5.416,5.3708,5.3206,5.2929,5.2929,5.2929,5.2879,5.2754,5.2302,5.1749,5.1071,5.0619,5.0117,4.959,4.959,4.9289,4.8736,4.8159,4.7606,4.6892,4.5212,4.4618,4.4493,4.3388,4.2986,4.2886,0.0,0.0,0.0,0.0,0.0,0.0,0.0,1.8931,1.9386,1.9679,1.9973,2.0027,1.9738,1.9258,1.9233,0.0,0.0,0.0,0.0,0.0,0.0,0.0,0.0,0.0,0.0,0.0,0.0,1.9289,1.8978,0.0,0.0,0.0,0.0,0.0,0.0,1.8116,1.8422,1.9063,0.0,0.0,0.0,0.0,0.0,0.0,0.0,0.0,0.0,3.0999,3.242,3.368,3.563,3.7804,3.9216,4.3264,4.762,4.7883,4.8705,4.9342,4.8357,4.7096,4.5496,4.3833,4.2266,4.0942,4.0511,4.008,3.9857,3.9731,3.973,3.9923,4.0425,4.1,4.2057,4.3765,4.5949,4.8033,4.9741,5.2251,5.4361,5.5491,5.6495,5.7349,5.7926,5.7399,5.7022,5.7022,5.6068,5.5465,5.5465,5.4386,5.3758,5.3708,5.3206,5.2929,5.2929,5.2929,5.2678,5.2176,5.2126,5.1548,5.0494,5.0444,5.0117,4.959,4.959,4.9289,4.8736,4.8159,4.7606,4.6892,4.5212,4.4618,4.4493,4.3388,4.2986,4.2836,0.0,0.0,0.0,0.0,0.0,0.0,1.845,1.9145,1.9733,2.0027,2.0628,2.0855,2.0374,1.9972,1.983,2.0051,0.0,0.0,0.0,0.0,0.0,0.0,0.0,0.0,0.0,0.0,2.0181,1.9639,1.9492,0.0,0.0,0.0,0.0,0.0,0.0,1.8564,1.9036,1.9842,0.0,0.0,0.0,0.0,0.0,0.0,0.0,0.0,0.0,0.0,3.1072,3.1773,3.3312,3.5134,3.5979,3.9075,4.285,4.554,4.7111,4.8158,4.8529,4.798,4.6758,4.4579,4.2914,4.1393,3.9962,3.9462,3.9284,3.9169,3.9407,3.9772,3.9973,4.0475,4.1279,4.261,4.4116,4.5824,4.7832,4.9916,5.1774,5.3231,5.4361,5.539,5.6294,5.6168,5.6043,5.6043,5.534,5.4737,5.4386,5.3959,5.3557,5.3256,5.303,5.2929,5.2929,5.2929,5.2653,5.2101,5.1774,5.1197,5.0419,5.0067,4.9791,4.959,4.959,4.9289,4.8736,4.8159,4.7606,4.6892,4.5212,4.4618,4.4493,4.3388,4.2986,4.2861,0.0,0.0,0.0,0.0,0.0,1.8089,1.845,1.9158,1.9813,2.0127,2.0855,2.1162,2.0842,2.0548,2.0378,2.0413,2.0617,0.0,0.0,0.0,0.0,0.0,0.0,0.0,0.0,0.0,2.1141,2.033,2.0044,1.9822,0.0,0.0,1.9011,1.8918,0.0,0.0,0.0,0.0,0.0,0.0,0.0,0.0,0.0,0.0,0.0,0.0,0.0,0.0,0.0,0.0,0.0,3.2705,3.3508,3.5382,0.0,4.2836,4.527,4.6728,4.7883,4.7922,4.7051,4.5022,4.3218,4.1611,4.0098,3.9406,3.9139,3.8957,3.9362,3.9697,3.9697,4.0023,4.0626,4.1731,4.271,4.4041,4.61,4.7807,4.949,5.1172,5.2477,5.3658,5.4787,5.5039,5.5214,5.539,5.4712,5.4135,5.3733,5.3557,5.3306,5.2929,5.2929,5.2929,5.2929,5.2754,5.2402,5.185,5.1297,5.072,5.0167,4.9766,4.9515,4.9339,4.9339,4.8937,4.8259,4.7857,4.738,4.6728,4.5221,4.4618,4.4493,4.3388,4.2986,4.2886,0.0,0.0,0.0,0.0,0.0,0.0,1.845,1.8985,1.9586,2.016,2.0494,2.0788,2.1069,2.0842,2.0795,2.1083,2.0748,0.0,0.0,0.0,0.0,0.0,0.0,0.0,0.0,0.0,2.2196,2.1559,2.0716,2.0097,1.9809,1.9533,1.9199,1.8918,0.0,0.0,0.0,0.0,0.0,0.0,0.0,0.0,0.0,0.0,0.0,0.0,0.0,0.0,0.0,0.0,0.0,0.0,0.0,3.2857,3.4558,3.9896,4.3281,4.5454,4.6129,4.6264,4.5906,4.4771,4.3049,4.1461,4.0824,4.0063,3.9491,3.9325,3.9517,3.9697,3.9697,3.9697,4.0074,4.1125,4.1806,0.0,4.4418,4.61,4.7782,4.9414,5.1096,5.2553,5.3607,5.4235,5.4813,5.534,5.4336,5.3708,5.3708,5.3206,5.2929,5.2929,5.2929,5.2929,5.2929,5.2377,5.1825,5.1272,5.0695,5.0142,4.9615,4.959,4.9289,4.8786,4.8786,4.8159,4.7093,4.7093,4.6803,4.62,4.507,4.4618,4.4493,4.3388,4.2986,4.2886,0.0,0.0,0.0,0.0,0.0,0.0,0.0,1.8985,1.9506,1.988,2.0374,2.0641,2.0521,2.0428,2.0315,2.0247,2.0785,0.0,0.0,0.0,0.0,0.0,0.0,0.0,0.0,2.4227,2.3552,2.2536,2.1612,2.0925,2.0424,2.008,1.98,1.9519,1.9519,1.9693,0.0,0.0,0.0,0.0,0.0,0.0,2.8067,0.0,0.0,0.0,0.0,0.0,0.0,0.0,0.0,0.0,0.0,0.0,0.0,3.6703,3.9792,4.2772,4.4825,4.5708,4.5757,4.4618,4.3263,4.1966,4.0653,3.9953,3.9541,3.9355,3.9517,3.9697,3.9697,3.9697,4.0049,4.11,4.148,4.2308,4.4342,4.5748,4.7029,4.8284,5.0619,5.2528,5.3607,5.4235,5.4486,5.426,5.3909,5.3557,5.3181,5.3005,5.2929,5.2929,5.2929,5.2929,5.2929,5.2377,5.1825,5.1272,5.0695,5.0117,4.959,4.959,4.9289,4.8761,4.8761,4.8159,4.7068,4.7068,4.6577,4.5673,4.492,4.4392,4.3966,4.3237,4.2986,4.2961,0.0,0.0,0.0,0.0,0.0,0.0,0.0,1.8798,1.9225,1.9733,2.012,2.0321,2.0241,2.0167,2.016,2.0027,2.096,0.0,0.0,0.0,0.0,0.0,0.0,0.0,2.5635,2.5538,2.4935,2.3729,2.2951,2.2111,2.1241,2.0754,2.0429,2.012,1.9893,1.9988,0.0,0.0,0.0,0.0,0.0,0.0,2.8138,0.0,0.0,0.0,0.0,0.0,0.0,0.0,0.0,0.0,0.0,0.0,0.0,0.0,3.7397,4.0,4.2666,4.3844,4.4249,4.3565,4.2708,4.174,4.0643,4.0104,3.9717,3.9486,3.9594,3.9697,3.9697,3.9697,4.0049,4.11,4.1275,4.1978,4.4041,4.5472,4.7029,4.8962,5.0921,5.2528,5.3607,5.3858,5.3884,5.3708,5.3507,5.3281,5.2955,5.2929,5.2929,5.2929,5.2929,5.2829,5.2628,5.2076,5.1523,5.0946,5.0368,4.9816,4.9289,4.9289,4.8862,4.8159,4.8159,4.7657,0.0,4.6828,4.6301,4.5422,4.4844,4.4292,4.374,4.3187,4.2986,4.2986,0.0,0.0,0.0,0.0,0.0,0.0,0.0,1.8517,1.8824,1.9653,1.9773,1.9867,2.0147,2.0113,2.0187,2.0201,0.0,0.0,0.0,0.0,0.0,0.0,0.0,0.0,2.6816,2.6793,2.6151,2.4996,2.4483,2.3505,2.2205,2.1602,2.1094,2.0743,2.012,2.0091,0.0,0.0,0.0,0.0,2.6955,2.79,0.0,0.0,0.0,0.0,0.0,0.0,0.0,0.0,0.0,0.0,0.0,0.0,0.0,0.0,0.0,0.0,0.0,4.1097,4.1662,4.1822,4.1496,4.101,4.0789,4.0351,0.0,3.9696,3.9672,3.9697,3.9697,3.9697,4.0049,4.11,4.1275,4.1877,4.3614,4.5372,4.7682,5.0896,5.1774,5.2503,5.3557,5.3206,5.313,5.3607,5.3206,5.2929,5.2929,5.2929,5.2904,5.2879,5.2879,5.2628,5.2101,5.1523,5.0946,5.0419,4.9816,4.9264,4.8761,4.8736,4.8134,4.7068,4.7068,4.6828,4.6301,4.6276,4.5924,4.5372,4.4794,4.4242,4.3689,4.3162,4.2986,4.2986,0.0,0.0,0.0,0.0,0.0,0.0,0.0,0.0,0.0,0.0,1.9466,1.9492,1.9559,1.9573,1.9604,0.0,0.0,0.0,0.0,0.0,0.0,0.0,0.0,0.0,2.7113,2.7285,2.6895,2.5944,2.5436,2.4656,2.3621,2.2673,2.1991,2.1442,2.0752,2.0835,0.0,0.0,0.0,0.0,2.6483,2.7364,0.0,0.0,0.0,0.0,2.8301,2.8301,0.0,0.0,0.0,0.0,0.0,0.0,0.0,0.0,3.5235,3.6235,3.7667,0.0,4.0768,4.0839,4.0464,4.004,0.0,3.9544,3.9169,3.9094,3.9396,3.9697,3.9697,3.9697,4.0049,4.11,4.1275,4.2003,4.4141,4.6602,4.8962,5.1046,5.1774,5.2377,5.303,5.3005,5.298,5.3105,5.3005,5.2929,5.2929,5.2929,5.2729,5.2302,5.2302,5.2226,5.2101,5.1122,5.0544,5.0419,4.9439,4.8887,4.8761,4.8309,4.7757,4.7068,4.7068,4.6828,4.6276,4.5849,4.5347,4.4769,4.4217,4.3664,4.3162,4.3037,4.2986,4.2986,0.0,0.0,0.0,0.0,0.0,0.0,0.0,0.0,0.0,0.0,0.0,1.943,1.943,1.943,0.0,0.0,0.0,0.0,0.0,0.0,0.0,0.0,0.0,2.7791,2.7718,2.806,2.7865,2.6928,2.6927,2.627,2.496,2.4148,2.3206,2.2268,2.1173,2.0999,2.1541,2.2468,2.3866,2.5562,2.65,0.0,0.0,0.0,0.0,0.0,2.8301,2.8301,0.0,2.8301,2.8654,2.9237,0.0,0.0,0.0,0.0,3.4945,3.5815,3.6891,3.8065,3.9044,3.9295,3.9145,3.8919,3.8919,3.8693,3.8542,3.8818,3.912,3.9396,3.9647,3.9898,4.035,4.115,4.1756,4.3037,4.5748,4.8083,5.0067,5.1498,5.2151,5.2603,5.2904,5.2929,5.2929,5.2929,5.2929,5.2829,5.2578,5.2553,5.2302,5.1749,5.1473,5.1322,5.1322,5.072,5.0167,4.9665,4.9063,4.851,4.8008,4.7682,4.7255,4.6753,4.6753,4.6602,4.6276,4.5723,4.5146,4.4568,4.4016,4.3463,4.2986,4.2986,4.2986,4.2986,0.0,0.0,0.0,0.0,0.0,0.0,0.0,0.0,0.0,0.0,0.0,0.0,0.0,0.0,0.0,0.0,0.0,0.0,0.0,0.0,0.0,0.0,2.746,2.8052,2.8379,2.8829,2.8729,2.8044,2.8577,2.8065,2.6472,2.5797,2.4591,2.306,2.1601,2.1156,2.1409,2.2596,2.4051,2.5631,2.6603,0.0,0.0,0.0,0.0,0.0,0.0,0.0,0.0,2.8301,2.8654,2.9237,3.013,0.0,0.0,0.0,0.0,0.0,3.6791,3.7061,3.7236,3.7965,3.8065,3.8015,3.8015,3.7939,3.8015,3.8517,3.8793,3.9044,3.9597,4.0149,4.0752,4.1426,4.266,4.4518,4.7481,4.9364,5.0795,5.185,5.2528,5.2929,5.2929,5.2929,5.2929,5.2929,5.2854,5.2603,5.2126,5.2026,5.1724,5.1172,5.0594,5.0243,5.0167,5.0167,4.964,4.8636,4.856,4.8033,4.7068,4.7054,4.6753,4.6301,4.6301,4.6301,4.625,4.5623,4.507,4.4568,4.3915,4.3388,4.2986,4.2986,4.2986,4.2986,0.0,0.0,0.0,0.0,0.0,0.0,0.0,0.0,0.0,0.0,0.0,0.0,0.0,0.0,0.0,0.0,0.0,0.0,0.0,0.0,0.0,2.6605,2.7503,2.8188,2.8809,2.8983,2.9241,2.9557,2.981,2.9573,2.8768,2.7571,2.5585,2.3071,2.2609,2.2208,2.2012,2.2541,2.3703,2.525,2.5772,0.0,0.0,0.0,0.0,0.0,0.0,0.0,0.0,2.8301,2.8654,2.9237,3.013,0.0,0.0,0.0,0.0,0.0,3.6363,3.6531,3.6908,3.8416,3.8366,3.8015,3.8015,3.7638,3.7337,3.7437,3.8265,3.9044,3.9597,4.0149,4.1003,4.2484,4.4468,4.6301,4.7707,4.9364,5.067,5.1322,5.2302,5.2929,5.2929,5.2929,5.2929,5.2929,5.2503,5.2201,5.2101,5.1649,5.1147,5.0569,5.0017,4.949,4.9038,4.9038,4.8686,4.8033,4.7606,4.7305,4.7043,4.6652,4.6401,4.6301,4.6301,4.6301,4.6225,4.5196,4.4694,4.4518,4.3514,4.3062,4.2986,4.2986,4.2986,4.2986,0.0,0.0,0.0,0.0,0.0,0.0,0.0,0.0,0.0,0.0,0.0,0.0,0.0,0.0,0.0,0.0,0.0,0.0,0.0,0.0,2.4343,2.6206,2.74,2.8456,2.9258,2.9828,3.0238,3.0481,3.1078,3.1047,3.0447,2.8511,2.6738,2.5058,2.397,2.3267,2.2904,2.3145,2.3963,2.513,0.0,0.0,0.0,0.0,0.0,0.0,0.0,0.0,0.0,0.0,2.8887,2.9501,3.0339,0.0,0.0,0.0,0.0,0.0,3.6639,3.6857,3.7109,3.814,3.7764,3.7111,3.7111,3.7161,3.7262,3.7563,3.8291,3.912,3.9973,4.0827,4.2233,4.4794,4.6577,4.8008,4.9113,5.0444,5.1423,5.1699,5.2427,5.2929,5.2929,5.2653,5.2477,5.2477,5.1975,5.1523,5.1222,5.0946,5.0419,4.9565,4.9289,4.8736,4.7883,4.7883,4.7757,4.7481,4.7255,4.6979,4.6677,4.6426,4.6301,4.6301,4.6301,4.6301,4.6225,4.5095,4.4618,4.4518,4.3413,4.2986,4.2986,4.2986,4.2986,4.2986,0.0,0.0,0.0,0.0,0.0,0.0,0.0,0.0,0.0,0.0,0.0,0.0,0.0,0.0,0.0,0.0,0.0,0.0,0.0,2.2549,2.4134,2.5953,2.7467,2.8728,2.975,3.0644,3.1268,3.1725,3.2543,3.2618,3.186,2.969,2.813,2.7084,2.5612,2.4593,2.3976,2.3976,2.4471,2.5269,0.0,0.0,0.0,0.0,0.0,0.0,0.0,0.0,0.0,0.0,0.0,0.0,0.0,0.0,0.0,3.4048,3.4872,3.5688,3.6438,3.6609,3.6734,3.7287,3.6985,3.6631,3.6757,3.7033,3.7387,3.8065,3.8668,3.9396,4.0501,4.1932,4.389,4.6853,4.8234,4.9364,5.0469,5.1473,5.2101,5.2101,5.2477,5.2729,5.2729,5.2226,5.1925,5.1925,5.1398,5.082,5.0243,5.0092,4.959,4.8611,4.846,4.7983,4.7093,4.7004,4.6892,4.6892,4.6892,4.6728,4.6301,4.6301,4.6301,4.6301,4.6301,4.6225,4.6024,4.5045,4.4543,4.4342,4.3363,4.2986,4.2986,4.2986,4.2986,4.2986,0.0,0.0,0.0,0.0,0.0,0.0,0.0,0.0,0.0,0.0,0.0,0.0,0.0,0.0,0.0,0.0,0.0,0.0,0.0,2.2186,2.3854,2.6329,2.7778,2.9043,3.0296,3.1053,3.2266,3.3887,3.439,3.4115,3.3169,3.1763,3.0077,2.8043,2.7509,2.6442,2.501,2.501,2.5194,2.5591,2.5801,0.0,0.0,0.0,0.0,0.0,0.0,0.0,0.0,0.0,0.0,0.0,0.0,0.0,3.3258,3.3838,3.4576,3.5205,3.4936,3.4901,3.4981,3.5533,3.6433,3.7262,3.7764,3.7513,3.7487,3.8642,3.9245,3.9973,4.1025,4.3463,4.5824,4.7556,4.8812,4.9941,5.1071,5.1724,5.2101,5.2101,5.2126,5.2176,5.2176,5.1674,5.1348,5.1348,5.0795,5.0243,4.969,4.9163,4.8611,4.7983,4.7506,4.7143,4.7068,4.6627,4.6376,4.6376,4.6376,4.6351,4.6301,4.6301,4.6301,4.6301,4.6301,4.6024,4.5497,4.4869,4.4317,4.379,4.3212,4.2986,4.2986,4.2986,4.2986,4.2986,0.0,0.0,0.0,0.0,0.0,0.0,0.0,0.0,0.0,0.0,0.0,0.0,0.0,0.0,0.0,0.0,0.0,0.0,0.0,2.1727,2.329,2.5234,2.6936,2.8715,3.0558,3.1725,3.3027,3.4453,3.5269,3.5284,3.4656,3.2877,3.1386,3.0058,2.8933,2.7748,2.6598,2.6355,2.6233,2.6156,2.6449,2.7011,0.0,0.0,0.0,0.0,0.0,0.0,0.0,0.0,2.8269,2.8968,3.0349,3.1667,3.2984,3.4149,3.4676,3.4994,3.5165,3.4931,3.4731,3.4931,3.5697,3.6572,3.7335,3.8012,3.8741,3.95,4.0644,4.1822,4.2974,4.4859,4.6768,4.8409,4.9794,5.1021,5.2151,5.2176,5.2101,5.2101,5.18,5.1599,5.1599,5.1071,5.0745,5.0745,4.9916,4.9314,4.9088,4.8535,4.7983,4.7431,4.723,4.6979,4.6627,4.6426,4.6301,4.6301,4.6301,4.6301,4.6301,4.6301,4.6301,4.6301,4.5949,4.5673,4.5422,4.4493,4.3991,4.374,4.3187,4.2986,4.2986,4.2986,4.2986,4.2986,0.0,0.0,0.0,0.0,0.0,0.0,0.0,0.0,0.0,0.0,0.0,0.0,0.0,0.0,0.0,0.0,0.0,0.0,2.0274,2.1284,2.2602,2.4193,2.6167,2.8126,3.0148,3.1807,3.3369,3.4922,3.5665,3.583,3.5182,3.3432,3.2131,3.1157,2.9976,2.8913,2.8044,2.7604,2.7339,2.7289,2.7217,2.7467,0.0,0.0,0.0,0.0,0.0,0.0,0.0,0.0,2.7853,2.8582,3.0119,3.1448,3.2755,3.3934,3.4457,3.465,3.4715,3.45,3.4299,3.4625,3.5183,3.6024,3.74,3.8659,3.9852,4.0824,4.2346,4.3832,4.4898,4.6083,4.7445,4.9249,5.047,5.1456,5.2387,5.2294,5.2051,5.1875,5.1348,5.0946,5.077,5.0243,4.9816,4.964,4.8912,4.8435,4.8259,4.7883,4.7431,4.6878,4.6878,4.6602,4.605,4.605,4.5949,4.5773,4.5773,4.5974,4.6301,4.6301,4.6225,4.6024,4.5648,4.5296,4.4895,4.4116,4.3689,4.3514,4.3112,4.2986,4.2986,4.2986,4.2986,4.2986,0.0,0.0,0.0,0.0,0.0,0.0,0.0,0.0,2.1109,2.1109,2.1109,0.0,0.0,0.0,0.0,0.0,0.0,0.0,2.0274,2.0909,2.1994,2.3492,2.5426,2.7281,2.9076,3.1214,3.3334,3.5391,3.5801,3.5547,3.4668,3.3379,3.2141,3.0988,3.0565,3.002,2.9335,2.8634,2.8572,2.8902,2.8077,2.8087,2.8596,0.0,0.0,0.0,0.0,0.0,0.0,0.0,2.714,2.786,2.9428,3.106,3.257,3.3053,3.3698,3.409,3.3326,3.3093,3.3345,3.4449,3.4906,3.576,3.8213,3.9481,4.0657,4.2631,4.4335,4.5821,4.674,4.7088,4.7867,4.9852,5.0563,5.1144,5.1702,5.1993,5.1875,5.1322,5.0745,5.0193,4.964,4.9088,4.8535,4.7958,4.7908,4.7657,4.7093,4.7043,4.6853,4.6301,4.6301,4.6024,4.5497,4.5472,4.5196,4.4618,4.4618,4.5221,4.6301,4.6301,4.5999,4.5472,4.5472,4.4844,4.379,4.379,4.3463,4.2986,4.2986,4.2986,4.2986,4.2986,4.2986,4.2986,0.0,0.0,0.0,0.0,0.0,0.0,0.0,0.0,2.1109,2.1109,2.1109,0.0,0.0,0.0,0.0,0.0,0.0,0.0,1.9932,2.0392,2.1187,2.2566,2.4229,2.627,2.8701,3.1603,3.3817,3.5391,3.5195,3.4805,3.4238,3.2949,3.199,3.1306,3.0957,3.0509,3.006,2.9583,2.9315,2.9158,2.8557,2.8389,2.8514,0.0,0.0,0.0,0.0,0.0,0.0,0.0,0.0,0.0,2.8425,2.9676,3.0934,3.2065,3.2809,3.3269,3.335,3.3239,3.3244,3.3972,3.4736,3.5929,3.8037,3.9559,4.1554,4.4897,4.6192,4.701,4.8174,4.8436,4.8976,5.0631,5.1161,5.1524,5.2046,5.1666,5.0983,5.0233,4.959,4.9038,4.846,4.8259,4.8083,4.7908,4.7205,4.6728,4.6577,4.5799,4.5296,4.5121,4.5121,4.5045,4.4895,4.4895,4.4794,4.4618,4.4618,4.4794,4.5121,4.5121,4.5045,4.4869,4.4468,4.4116,4.3765,4.3388,4.3112,4.2986,4.2986,4.2986,4.2986,4.2986,4.2986,4.2986,0.0,0.0,0.0,0.0,0.0,0.0,0.0,0.0,2.1109,2.1109,2.1109,2.1109,0.0,0.0,0.0,0.0,0.0,0.0,1.9813,1.9988,2.0665,2.1949,2.3567,2.593,2.9099,3.144,3.3144,3.4121,3.416,3.3887,3.3301,3.2344,3.168,3.125,3.0996,3.0665,3.0277,2.9909,2.9621,2.9355,2.8761,2.8584,2.8652,0.0,0.0,0.0,0.0,0.0,0.0,0.0,0.0,0.0,2.795,2.8897,2.9844,3.1129,3.1994,3.2599,3.2961,3.3165,3.3389,3.4053,3.5117,3.6636,3.9092,4.1074,4.3318,4.6504,4.7503,4.8195,4.9581,4.9668,4.9968,5.1383,5.1563,5.1554,5.1652,5.101,5.0279,4.9403,4.8761,4.8209,4.7657,4.7606,4.7431,4.6979,4.6351,4.5874,4.5648,4.4995,4.4618,4.4618,4.4618,4.4518,4.4292,4.4292,4.4192,4.3966,4.3966,4.3966,4.3991,4.4418,4.4493,4.4267,4.3714,4.3463,4.3438,4.3112,4.2836,4.2715,4.2886,4.2836,4.274,4.2886,4.2986,4.2986,0.0,0.0,2.0802,2.1069,0.0,0.0,0.0,0.0,2.1109,2.1109,2.1109,2.1109,0.0,0.0,0.0,0.0,0.0,0.0,0.0,1.978,2.038,2.1584,2.3395,2.6143,2.9948,3.0967,3.1639,3.2051,3.2851,3.2851,3.215,3.166,3.125,3.0898,3.0898,3.0625,3.0176,2.9746,2.9607,2.9434,2.8613,2.8516,2.8828,2.8437,0.0,0.0,0.0,0.0,0.0,0.0,0.0,0.0,2.7803,2.846,2.9094,3.0111,3.1136,3.2003,3.2259,3.2857,3.3667,3.444,3.5764,3.7664,4.0829,4.3218,4.5369,4.7384,4.8336,4.9214,5.0811,5.0675,5.0756,5.2072,5.1925,5.1409,5.0839,5.0378,4.9749,4.8812,4.8171,4.7556,4.7029,4.6867,4.6502,4.5472,4.5372,4.5095,4.4568,4.4493,4.4468,4.4468,4.4468,4.4242,4.374,4.374,4.3463,4.2986,4.2986,4.2986,4.3011,4.4016,4.4192,4.3689,4.3187,4.2961,4.2911,4.2911,4.264,4.2187,4.274,4.2665,4.2263,4.2816,4.2986,4.2986,0.0,0.0,2.1042,2.1096,0.0,0.0,0.0,0.0,0.0,2.1109,0.0,0.0,0.0,0.0,0.0,0.0,0.0,0.0,0.0,1.9792,2.025,2.1247,2.4322,2.7131,2.9665,3.0648,3.1149,3.1172,3.168,3.1836,3.1641,3.123,3.0976,3.0898,3.0898,3.0625,3.0176,2.9746,2.9375,2.9023,2.8496,2.834,2.8418,2.832,2.8301,0.0,0.0,0.0,0.0,0.0,0.0,0.0,2.6963,2.7321,2.7794,2.8596,2.9712,3.0762,3.1386,3.239,3.3464,3.4284,3.6252,3.8595,4.0656,4.249,4.4432,4.6587,4.8249,4.9622,5.0659,5.0856,5.1266,5.2591,5.2152,5.1479,5.1153,5.0643,4.9663,4.8059,4.7344,4.6753,4.5899,4.5422,4.507,4.4819,4.4418,4.4116,4.3991,4.3564,4.3338,4.3338,4.3338,4.3263,4.3162,4.3162,4.3087,4.2986,4.2986,4.2986,4.2986,4.3212,4.3263,4.3162,4.3037,4.2791,4.2389,4.2389,4.2007,4.1555,4.2108,4.2313,4.2263,4.2816,4.2986,4.2986,0.0,0.0,0.0,0.0,0.0,0.0,0.0,0.0,0.0,0.0,0.0,0.0,0.0,0.0,0.0,0.0,2.0201,0.0,0.0,0.0,2.0516,2.2111,2.5098,2.7459,2.9028,2.9976,3.049,3.0566,3.0586,3.0684,3.0879,3.0664,3.0684,3.0898,3.0898,3.0527,2.9883,2.9668,2.9199,2.8594,2.8379,2.8301,2.8301,2.8301,2.8301,2.8301,2.8301,0.0,0.0,0.0,0.0,0.0,0.0,0.0,2.7003,2.7809,2.8724,2.9646,3.0532,3.191,3.3436,3.5117,3.6984,3.8773,4.0174,4.169,4.3325,4.4793,4.7044,4.9215,5.0709,5.0928,5.1258,5.2362,5.1966,5.1288,5.0419,4.9725,4.8688,4.7163,4.6358,4.575,4.5095,4.4794,4.4518,4.4242,4.3966,4.3689,4.3413,4.3137,4.2986,4.2986,4.2766,4.264,4.264,4.2333,4.2333,4.264,4.264,4.2766,4.2986,4.2986,4.2891,4.264,4.264,4.2258,4.1756,4.1756,4.143,4.1028,4.1831,4.2037,4.1856,4.2685,4.2986,4.2986,0.0,0.0,0.0,0.0,0.0,0.0,0.0,0.0,0.0,0.0,0.0,0.0,0.0,0.0,2.0535,0.0,0.0,0.0,0.0,0.0,0.0,2.3095,2.5428,2.7228,2.8372,2.9177,2.9737,2.998,2.9707,2.9746,3.0098,3.0156,3.0449,3.0898,3.0898,3.0391,2.9626,2.9626,2.9082,2.8301,2.8301,2.8301,2.8301,2.8301,2.8301,2.8301,2.8301,2.8301,2.8223,2.7865,0.0,0.0,0.0,0.0,2.6544,2.7214,2.7951,2.8724,2.9669,3.1367,3.3527,3.6086,3.74,3.8334,3.9428,4.08,4.206,4.2906,4.5507,4.8283,5.015,5.0517,5.0798,5.1659,5.1519,5.0909,4.9774,4.8842,4.7837,4.661,4.5687,4.4954,4.4608,4.4317,4.4016,4.3564,4.3438,4.3187,4.271,4.2685,4.2685,4.2685,4.2313,4.2062,4.2062,4.1555,4.1555,4.2062,4.2062,4.2258,4.2685,4.2685,4.2509,4.2213,4.2112,4.1706,4.115,4.115,4.0877,4.0475,4.158,4.1731,4.1426,4.2585,4.2986,4.2986,0.0,0.0,0.0,0.0,0.0,0.0,0.0,0.0,0.0,0.0,2.1109,2.1002,0.0,0.0,0.0,1.9907,1.9826,1.9693,1.9439,0.0,0.0,2.311,2.4591,2.6144,2.7858,2.8563,2.8994,2.9082,2.9414,2.9646,2.9668,3.0019,3.0449,3.0898,3.0898,3.0391,2.9626,2.9626,2.9082,2.8301,2.8301,2.8301,2.8301,2.8301,2.8301,2.8301,2.8301,2.8301,2.8223,2.7865,2.7383,0.0,0.0,0.0,2.6207,2.6544,2.7167,2.7904,2.8678,3.0835,3.348,3.5868,3.657,3.7035,3.8543,3.9561,4.0568,4.1918,4.4618,4.6933,4.748,4.8641,4.9835,5.0816,5.0718,5.0522,5.0502,4.9752,4.8654,4.7227,4.5973,4.4934,4.437,4.3229,4.2514,4.2439,4.1932,4.1576,4.1501,4.1501,4.1501,4.1501,4.1426,4.1401,4.1401,4.1326,4.1326,4.1401,4.1401,4.1426,4.1501,4.1501,4.1781,4.2187,4.1656,4.1128,4.0626,4.0626,4.03,3.9923,4.1028,4.1351,4.1426,4.2585,4.2986,4.2986,0.0,0.0,0.0,0.0,0.0,0.0,0.0,0.0,0.0,0.0,0.0,2.161,0.0,0.0,0.0,1.9671,1.9559,1.9573,1.9613,2.0137,2.1212,2.2867,2.3974,2.5456,2.7458,2.7893,2.8407,2.8926,2.9101,2.9336,2.959,3.0273,3.0703,3.0898,3.0898,3.0527,2.9902,2.9668,2.9219,2.8633,2.8398,2.8301,2.8301,2.8301,2.8301,2.8301,2.8301,2.8301,2.8223,2.7865,2.7383,2.6934,2.6523,0.0,0.0,0.0,2.664,2.7303,2.8769,3.0665,3.27,3.4463,3.5522,3.6408,3.7369,3.8306,3.9221,4.0294,4.2376,4.4647,4.6622,4.7656,4.8507,4.9545,4.994,4.9927,4.9457,4.9048,4.818,4.6435,4.5341,4.4271,4.3201,4.2392,4.1843,4.1706,4.148,4.1275,4.1275,4.1275,4.1275,4.1275,4.1,4.0824,4.0824,4.0576,4.0576,4.0877,4.115,4.1275,4.1275,4.0974,4.1003,4.1229,4.0978,4.0576,4.0049,4.0049,3.9923,3.9798,4.0849,4.1275,4.1426,4.2585,4.2986,4.2986,0.0,0.0,0.0,0.0,0.0,0.0,0.0,0.0,0.0,0.0,0.0,0.0,0.0,0.0,0.0,0.0,1.9707,1.9744,1.9784,2.0055,2.0823,2.2253,2.3288,2.4734,2.6749,2.7209,2.788,2.8641,2.8813,2.9141,2.9646,3.0351,3.0781,3.0898,3.0996,3.0742,3.0176,2.9746,2.9316,2.8867,2.834,2.8125,2.8125,2.8008,2.7969,2.7988,2.8086,2.8125,2.8086,2.7826,2.7383,2.6934,2.6523,2.6094,0.0,0.0,0.0,2.6703,2.8571,3.0056,3.143,3.3005,3.4414,3.559,3.6355,3.7119,3.793,3.872,4.015,4.2152,4.501,4.6175,4.7119,4.8208,4.8878,4.9064,4.8515,4.8325,4.7624,4.5976,4.485,4.3782,4.2446,4.1817,4.137,4.1128,4.0949,4.0874,4.0874,4.0874,4.0874,4.0874,4.0526,4.03,4.03,3.9898,3.9898,4.03,4.0727,4.0874,4.0902,4.0501,4.03,4.03,4.03,4.0074,3.9697,3.9697,3.9697,3.9798,4.0752,4.1175,4.1401,4.2409,4.2861,4.2986,0.0,0.0,0.0,0.0,0.0,0.0,0.0,0.0,0.0,0.0,0.0,0.0,2.2572,2.22,2.164,2.0716,2.0601,2.0385,1.9836,1.9816,2.0287,2.1319,2.2527,0.0,2.5355,2.6563,2.7399,2.7945,2.8602,2.9141,2.9646,3.0019,3.0469,3.0918,3.1309,3.1016,3.0176,2.9746,2.9316,2.8848,2.8027,2.7748,2.7708,2.7246,2.709,2.7129,2.7559,2.7748,2.7748,2.7728,2.7383,2.6934,2.6523,2.6094,2.5693,0.0,0.0,0.0,2.7442,2.8416,2.9609,3.1979,3.3216,3.4198,3.5711,3.6164,3.6606,3.759,3.858,3.9674,4.1142,4.3436,4.5578,4.6872,4.7285,4.7776,4.8727,4.8214,4.7433,4.6543,4.5089,4.3902,4.3023,4.1748,4.0841,4.0551,4.0074,3.9772,3.9772,3.9772,3.9772,3.9772,3.9747,3.9747,3.9747,3.9697,3.9697,3.9747,3.9772,3.9772,3.9772,3.9747,3.9747,3.9747,3.9747,3.9722,3.9697,3.9697,3.9697,3.9747,4.0325,4.0824,4.1351,4.1982,4.259,4.2986,0.0,0.0,0.0,0.0,0.0,0.0,0.0,0.0,0.0,0.0,0.0,0.0,0.0,2.3492,2.2803,2.139,2.0773,2.027,1.9809,1.9641,2.0068,2.1261,2.186,2.3116,2.523,2.6054,2.6956,2.7906,2.8548,2.9004,2.918,3.0176,3.0566,3.0469,3.0918,3.0937,3.0605,3.0156,2.9726,2.9297,2.8711,2.8144,2.7708,2.75,2.7441,2.7461,2.7669,2.7885,2.8066,2.8066,2.7598,2.6992,2.6836,2.6309,2.5635,2.5391,2.5433,2.5651,2.6023,2.7112,2.8434,2.9831,3.1588,3.3146,3.386,3.4708,3.5449,3.591,3.6779,3.7698,3.864,4.1481,4.4099,4.5309,4.6426,4.7227,4.7585,4.7949,4.7765,4.6583,4.5384,4.4125,4.2755,4.1589,4.0722,4.0284,3.9901,3.9697,3.9697,3.9697,3.9697,3.9697,3.9697,3.9697,3.9697,3.9697,3.9697,3.9697,3.9697,3.9697,3.9697,3.9697,3.9697,3.9697,3.9697,3.9697,3.9697,3.9697,3.9697,3.9798,4.0701,4.1125,4.1401,4.2359,4.2866,4.2986,0.0,0.0,0.0,2.5139,0.0,2.5778,2.6311,2.6719,2.7021,2.7039,0.0,0.0,0.0,0.0,2.4301,2.2626,2.1631,2.0831,2.0429,2.004,2.0194,2.0914,2.1463,2.2632,2.4461,2.5564,2.6591,2.7584,2.8358,2.8789,2.8945,2.9824,3.0137,3.0,3.0312,3.0625,3.0859,3.0525,3.0209,2.9895,2.9387,2.8807,2.8304,2.8109,2.801,2.7926,2.8066,2.8147,2.8245,2.8402,2.7885,2.7207,2.707,2.6376,2.5596,2.5195,2.522,2.531,2.5131,2.6064,2.7291,2.8283,2.9935,3.1556,3.2229,3.3123,3.3866,3.425,3.5021,3.5869,3.6641,3.9101,4.1638,4.342,4.4942,4.6086,4.6545,4.7214,4.7329,4.643,4.5476,4.422,4.2674,4.1594,4.0769,4.0134,3.9826,3.9697,3.9697,3.9697,3.9697,3.9697,3.9697,3.9697,3.9697,3.9697,3.9697,3.9697,3.9697,3.9697,3.9697,3.9697,3.9697,3.9697,3.9697,3.9697,3.9697,3.9697,3.9798,4.0049,4.0724,4.1304,4.1706,4.2434,4.2866,4.2986,2.3949,2.464,2.5419,2.649,2.6622,2.6918,2.79,2.808,2.8319,2.8916,0.0,0.0,0.0,0.0,0.0,2.453,2.3271,2.2312,2.1687,2.106,2.0601,2.0328,2.1474,2.2384,2.2974,2.5038,2.6373,2.6989,2.7853,2.8496,2.8906,2.8906,2.9141,2.9551,2.957,3.0039,3.082,3.0754,3.069,3.0608,2.9931,2.9647,2.9556,2.898,2.8578,2.8389,2.8768,2.8571,2.8185,2.8589,2.8292,2.765,2.7148,2.6376,2.5615,2.5195,2.5106,2.5075,0.0,0.0,0.0,2.7353,2.8386,2.948,3.0951,3.1483,3.1849,3.2575,3.3291,3.4085,3.5037,3.6253,3.8097,4.1136,4.2748,4.4157,4.5713,4.5951,4.6046,4.6152,4.5326,4.4266,4.2985,4.194,4.1021,4.016,3.9878,3.9697,3.9697,3.9697,3.9697,3.9697,3.9697,3.9697,3.9697,3.9697,3.9697,3.9697,3.9697,3.9697,3.9697,3.9697,3.9697,3.9697,3.9697,3.9697,3.9697,3.9722,4.0023,4.0526,4.0551,4.1229,4.2213,4.2238,4.2564,4.2986,2.439,2.572,2.7008,2.7548,2.8026,2.8498,2.8957,2.9194,2.945,0.0,0.0,0.0,2.8774,2.7582,2.6611,2.5943,2.4473,2.3429,2.3085,2.1979,2.1345,2.1231,2.1816,2.2498,2.3255,2.4944,2.6227,2.6989,2.7853,2.8359,2.8476,2.8769,2.8984,2.9121,2.9434,2.9707,2.9998,3.0497,3.0625,3.0605,3.0933,3.0681,3.0172,2.9973,2.9761,2.961,2.9483,2.9497,2.9475,2.9355,2.8745,2.7831,2.6898,2.6406,2.6055,2.5341,2.5106,2.5028,2.4624,0.0,0.0,0.0,0.0,0.0,2.9067,2.9695,3.0278,3.0811,3.135,3.195,3.2766,3.4107,3.5564,3.7076,4.0124,4.2752,4.3978,4.5187,4.5954,4.5799,4.5636,4.5081,4.3984,4.2792,4.1693,4.0719,4.0236,3.9878,3.9697,3.9697,3.9697,3.9697,3.9697,3.9697,3.9697,3.9697,3.9697,3.9697,3.9697,3.9697,3.9697,3.9697,3.9697,3.9697,3.9697,3.9697,3.9722,4.0124,4.0375,4.0601,4.1379,4.1936,4.2263,4.2665,4.2836,4.2986,2.5104,2.6551,2.7906,2.8597,2.9198,2.9714,2.9804,3.0113,3.0348,0.0,0.0,0.0,2.9508,2.8668,2.793,2.748,2.6316,2.5269,2.4621,2.3593,2.272,2.2013,2.2328,2.2724,2.3199,2.4834,2.6063,2.6826,2.7799,2.8301,2.8301,2.8535,2.8652,2.8672,2.8926,2.9043,2.9117,2.9826,3.0474,3.102,3.1768,3.1888,3.1653,3.172,3.1534,3.1221,3.1019,3.0837,3.0608,3.037,2.9404,2.8129,2.7377,2.6898,2.6523,2.582,2.5625,2.5488,2.4863,2.5114,2.5599,2.5637,0.0,0.0,2.7458,2.7891,2.8376,2.8812,2.933,3.0006,3.0937,3.205,3.3302,3.4529,3.7257,3.9999,4.2147,4.3988,4.524,4.5418,4.5682,4.5475,4.4545,4.3416,4.2333,4.1298,4.0643,4.0083,3.9749,3.9697,3.9697,3.9697,3.9697,3.9697,3.9697,3.9697,3.9697,3.9697,3.9697,3.9697,3.9697,3.9697,3.9697,3.9697,3.9697,3.9697,3.9747,4.0551,4.0799,4.0953,4.1806,4.2363,4.259,4.2861,4.2986,4.2986,0.0,2.7234,2.8435,2.9489,3.0204,3.0691,3.0584,3.0894,3.1128,0.0,3.0996,3.0781,3.0332,3.0006,2.9623,2.8956,2.8294,2.7409,2.6222,2.553,2.4421,2.2821,2.3006,2.3175,2.3143,2.4834,2.6063,2.6663,2.7745,2.8301,2.8301,2.8301,2.8301,2.8301,2.8301,2.8301,2.832,2.9016,3.0143,3.1502,3.225,3.2835,3.3312,3.3465,3.3226,3.2873,3.2851,3.2398,3.1739,3.133,3.0097,2.8652,2.8281,2.7744,2.7114,2.6682,2.6565,2.6388,2.5633,2.5595,2.58,2.5646,2.5853,0.0,2.6162,2.6361,2.6588,2.6877,2.745,2.8229,2.9255,3.0045,3.1116,3.2774,3.4344,3.6665,4.0265,4.2482,4.4037,4.488,4.5477,4.5479,4.4737,4.3843,4.2895,4.1895,4.0946,4.0236,3.9749,3.9697,3.9697,3.9697,3.9697,3.9697,3.9697,3.9697,3.9697,3.9697,3.9697,3.9697,3.9697,3.9697,3.9697,3.9697,3.9697,3.9697,3.9772,4.0824,4.1275,4.1351,4.2007,4.2615,4.2986,4.2986,4.2986,4.2986,2.6392,2.7787,2.9151,3.0267,3.0955,3.1422,3.1815,3.1912,3.1951,3.1934,3.1621,3.123,3.0801,3.0451,3.0238,3.0084,2.9199,2.8422,2.7787,2.665,2.5565,2.4406,2.4184,2.4072,2.4039,2.5313,2.6318,2.6935,2.7853,2.8301,2.8301,2.8301,2.8301,2.8301,2.8301,2.8301,2.8301,2.8647,2.9467,3.0622,3.1345,3.2051,3.2608,3.2864,3.3044,3.322,3.3396,3.3224,3.27,3.1586,3.0669,2.9891,2.9034,2.8511,2.8113,2.7743,2.7603,2.7583,2.7402,2.6993,2.6557,2.6527,2.6162,0.0,2.6088,2.6164,2.6215,2.6311,2.6635,2.6894,2.6943,2.7897,2.8925,2.9819,3.191,3.469,3.8195,4.0637,4.2293,4.2797,4.4182,4.4905,4.4367,4.4198,4.3634,4.2382,4.0971,4.0032,3.9749,3.9697,3.9697,3.9697,3.9697,3.9697,3.9697,3.9697,3.9697,3.9697,3.9697,3.9697,3.9697,3.9697,3.9697,3.9697,3.9697,3.9697,3.9772,4.0824,4.1275,4.1376,4.2434,4.2942,4.2986,4.2986,4.2986,4.2986,2.7365,2.8527,2.9501,3.0426,3.1279,3.1836,3.1836,3.2207,3.2402,3.2268,3.1797,3.1445,3.123,3.0879,3.0645,3.0645,3.0219,2.9527,2.871,2.7902,2.6899,2.5531,2.5183,2.4962,2.4778,2.5753,2.6536,2.6989,2.7853,2.8301,2.8301,2.8301,2.8301,2.8301,2.8461,2.8514,2.8514,2.8781,2.9326,3.0048,3.1091,3.204,3.2842,3.3389,3.3683,3.3915,3.4286,3.4304,3.4043,3.3113,3.2266,3.1521,3.087,3.0068,2.9405,2.9083,2.8807,2.8594,2.8519,2.8143,2.776,2.776,2.7189,0.0,0.0,2.6124,2.5737,2.5381,2.5513,2.5671,2.5606,2.6301,2.7134,2.8073,2.9737,3.1901,3.4715,3.8119,4.0601,4.1311,4.2685,4.3662,4.4032,4.3768,4.3066,4.1963,4.087,4.0134,3.9749,3.9697,3.9697,3.9697,3.9697,3.9697,3.9697,3.9697,3.9697,3.9697,3.9697,3.9697,3.9697,3.9697,3.9697,3.9697,3.9697,3.9697,3.9772,4.0824,4.1275,4.1401,4.2534,4.2986,4.2986,4.2986,4.2986,4.2986,2.8509,2.9186,2.9781,3.0428,3.1383,3.1953,3.168,3.2226,3.2559,3.2207,3.1855,3.1621,3.1523,3.1133,3.0898,3.0898,3.0898,3.0431,2.9352,2.8992,2.8108,2.6555,2.6154,2.5844,2.5551,2.6318,2.6862,2.7152,2.7906,2.8301,2.8301,2.8301,2.8354,2.8408,2.8674,2.8834,2.8887,2.9185,2.9501,2.9858,3.1127,3.2063,3.2893,3.3805,3.4186,3.4335,3.4969,3.5307,3.5344,3.4819,3.3958,3.3034,3.2797,3.1845,3.0773,3.0571,3.0261,2.9872,2.9742,2.9444,2.9132,2.9132,2.8479,2.7729,0.0,0.0,0.0,2.4856,2.4774,2.4808,2.4719,2.5198,2.5874,2.6806,2.7957,2.9377,3.1245,3.5001,3.8069,3.959,4.0868,4.1991,4.302,4.275,4.2093,4.1212,4.0718,4.0262,3.9749,3.9697,3.9697,3.9697,3.9697,3.9697,3.9697,3.9697,3.9697,3.9697,3.9697,3.9697,3.9697,3.9697,3.9697,3.9697,3.9697,3.9747,3.9923,4.0874,4.1351,4.1605,4.2585,4.2986,4.2986,4.2986,4.2986,4.2986,2.9319,2.9628,3.0092,3.0813,3.1265,3.1699,3.2051,3.2168,3.2226,3.2229,3.2129,3.1953,3.1562,3.1133,3.0898,3.0898,3.0898,3.0664,3.0099,2.9447,2.8687,2.7899,2.7249,2.6826,2.6826,2.7152,2.7476,2.7799,2.8121,2.8301,2.8301,2.8301,2.8408,2.8674,2.892,2.9237,2.9501,3.0026,3.0287,3.0391,3.1262,3.1511,3.1555,3.2826,3.3457,3.3843,3.4823,3.5649,3.6186,3.5618,3.492,3.4162,3.3907,3.3056,3.2145,3.2151,3.2079,3.2056,3.2012,3.1428,3.0749,3.0749,2.9835,2.8726,2.8042,0.0,2.6689,2.5637,0.0,2.4839,2.4081,0.0,0.0,2.5452,2.6946,2.8443,2.9319,3.0884,3.3197,3.6629,3.8483,3.9666,4.0204,4.1159,4.1357,4.0563,4.0511,4.0262,3.9749,3.9697,3.9697,3.9697,3.9697,3.9697,3.9697,3.9697,3.9697,3.9697,3.9697,3.9697,3.9697,3.9697,3.9697,3.9697,3.9697,3.9973,4.0475,4.1025,4.163,4.2187,4.2735,4.2986,4.2986,4.2986,4.2986,4.2986,2.999,3.0094,3.0332,3.0878,3.1229,3.1582,3.1758,3.2012,3.2229,3.2229,3.2229,3.209,3.1914,3.1738,3.1523,3.1269,3.125,3.0957,3.0234,2.9925,2.9312,2.838,2.806,2.7687,2.7206,2.753,2.7745,2.7906,2.8174,2.8301,2.8301,0.0,2.8461,2.8727,2.9185,2.9659,3.013,3.0806,3.1116,3.1167,3.1964,3.2218,3.224,3.3252,3.4205,3.5066,3.5524,3.6061,3.6603,3.6358,3.5841,3.5294,3.5194,3.4416,3.3598,3.377,3.3549,3.335,3.3499,3.3139,3.2731,3.2731,3.1901,3.0887,3.0319,2.911,2.7766,2.6574,0.0,0.0,0.0,0.0,0.0,0.0,2.6061,2.6941,2.8084,2.8828,3.0504,3.3834,3.5522,3.6968,3.8392,3.9533,3.9935,3.928,3.9597,3.9626,3.9271,3.9521,3.9697,3.9697,3.9697,3.9697,3.9697,3.9697,3.9697,3.9697,3.9697,3.9697,3.9697,3.9697,3.9697,3.9697,3.9697,3.9998,4.0551,4.105,4.1656,4.2263,4.276,4.2986,4.2986,4.2986,4.2986,4.2986,3.0509,3.0509,3.0626,3.084,3.1133,3.1348,3.1348,3.1816,3.2229,3.2229,3.2266,3.2344,3.2344,3.2307,3.2031,3.1719,3.1582,3.125,3.0605,3.0332,2.9809,2.8983,2.8732,2.8353,2.7809,2.7964,2.8014,2.8014,2.8174,2.8301,2.8301,0.0,0.0,2.8834,2.9469,3.0078,3.0806,3.1578,3.2053,3.2316,3.2942,3.3273,3.3522,3.4017,3.5066,3.6227,3.6077,3.6399,3.692,3.692,3.6603,3.6211,3.6211,3.5526,3.4751,3.4969,3.4751,3.4507,3.4702,3.4556,3.436,3.436,3.3613,3.2724,3.2075,3.0634,2.8988,2.76,2.6655,0.0,0.0,0.0,2.4984,2.5322,0.0,2.5948,2.7025,2.7349,2.8534,3.1428,3.3078,3.4675,3.637,3.765,3.8276,3.8009,3.8614,3.8969,3.8919,3.9245,3.9546,3.9697,3.9697,3.9697,3.9697,3.9697,3.9697,3.9697,3.9697,3.9697,3.9697,3.9697,3.9697,3.9697,3.9697,4.0099,4.0777,4.1125,4.1756,4.2464,4.2866,4.2986,4.2986,4.2986,4.2986,4.2986,3.082,3.0898,3.0898,3.0898,3.0898,3.0918,3.0918,3.1621,3.2229,3.2229,3.2519,3.2773,3.2773,3.2422,3.2168,3.2148,3.1758,3.1504,3.1484,3.0664,3.0176,3.0156,2.9355,2.8852,2.8852,2.8496,2.8301,2.8301,2.8301,2.8301,2.8301,0.0,0.0,0.0,2.9732,3.0547,3.1629,3.2443,3.3242,3.3935,3.4003,3.4506,3.5114,3.4872,3.56,3.6723,3.6202,3.6495,3.7186,3.7186,3.6992,3.6773,3.6773,3.6232,3.5572,3.5572,3.5572,3.5572,3.5572,3.538,3.5163,3.5163,3.458,3.3679,3.2704,3.1686,3.0432,2.8724,2.7903,2.713,2.5737,2.5773,2.5816,0.0,2.543,0.0,0.0,2.6159,2.711,2.9667,3.1734,3.3169,3.3792,3.543,3.6603,3.6847,3.764,3.8366,3.8894,3.8944,3.9145,3.9672,3.9697,3.9697,3.9697,3.9697,3.9697,3.9697,3.9697,3.9697,3.9697,3.9697,3.9697,3.9697,3.9697,4.03,4.125,4.1275,4.1982,4.2961,4.2961,4.2986,4.2986,4.2986,4.2986,4.2986,3.0898,3.0898,3.0898,3.0898,3.0898,3.0898,3.0898,3.1367,3.1836,3.2129,3.2773,3.332,3.3613,3.3769,3.3613,3.3047,3.2617,3.2129,3.1562,3.0976,3.0527,3.0215,2.9648,2.9219,2.8926,2.8516,2.8301,2.8301,2.8301,2.8301,0.0,0.0,0.0,0.0,2.9732,3.0599,3.168,3.2645,3.3646,3.4614,3.5127,3.5503,3.5766,3.5819,3.6135,3.6538,3.6338,3.6436,3.6681,3.6681,3.6586,3.6538,3.6538,3.6366,3.6121,3.6121,3.6121,3.6121,3.6121,3.6073,3.5978,3.5978,3.5644,3.509,3.4244,3.3233,3.2108,3.0668,2.9418,2.8305,2.7318,2.6721,2.6244,0.0,0.0,2.5742,0.0,2.6014,2.6452,2.7268,2.9445,3.1203,3.2078,3.3606,3.4696,3.5186,3.6309,3.7146,3.7493,3.8417,3.8994,3.9145,3.9496,3.9697,3.9697,3.9697,3.9697,3.9697,3.9697,3.9697,3.9697,3.9697,3.9697,3.9722,4.0074,4.0651,4.13,4.1731,4.2308,4.2986,4.2986,4.2986,4.2986,4.2986,4.2986,4.3037,3.0918,3.0898,3.0898,3.0898,3.0898,3.0937,3.1094,3.1601,3.2129,3.2559,3.3359,3.3984,3.4258,3.4531,3.4414,3.3711,3.3262,3.2656,3.1797,3.1348,3.0918,3.0469,3.0019,2.9668,2.9375,2.8809,2.8516,2.8516,2.8359,2.8301,0.0,0.0,0.0,0.0,2.9574,3.0495,3.168,3.2876,3.4152,3.5527,3.6374,3.6555,3.6326,3.6479,3.6475,3.6405,3.6405,3.6405,3.6405,3.6405,3.6405,3.6405,3.6405,3.6405,3.6405,3.6405,3.6405,3.6405,3.6405,3.6405,3.6405,3.6405,3.6193,3.5812,3.5211,3.4438,3.3452,3.2218,3.0971,2.9855,2.8858,2.7828,2.7056,0.0,0.0,2.582,0.0,2.5868,2.5965,2.5965,2.7785,2.933,3.0264,3.1748,3.2997,3.3783,3.5113,3.6137,3.6773,3.7941,3.8668,3.8919,3.9396,3.9697,3.9697,3.9697,3.9697,3.9697,3.9697,3.9697,3.9697,3.9697,3.9697,3.9722,4.0275,4.0774,4.1326,4.1932,4.2539,4.2986,4.2986,4.2986,4.2986,4.2986,4.3112,4.3388,3.0976,3.0898,3.0898,3.0898,3.0898,3.1035,3.1445,3.2246,3.2949,3.3398,3.4199,3.4746,3.4766,3.4746,3.457,3.4141,3.3691,3.3066,3.2226,3.1758,3.1328,3.0918,3.0449,3.0176,3.0176,2.9355,2.8906,2.8887,2.8496,2.8301,0.0,0.0,0.0,0.0,2.9343,3.0318,3.1659,3.2993,3.4644,3.6461,3.758,3.7492,3.6822,3.6773,3.6595,3.6405,3.6405,3.6405,3.6405,3.6405,3.6405,3.6405,3.6405,3.6405,3.6405,3.6405,3.6405,3.6405,3.6405,3.6405,3.6405,3.6405,3.6193,3.5955,3.5668,3.5235,3.4534,3.3262,3.2563,3.1769,3.0324,2.9186,2.8334,0.0,0.0,0.0,2.5791,2.5693,2.5693,2.5693,2.6761,2.7708,2.8265,2.9904,3.1439,3.2734,3.4003,3.5308,3.6675,3.7541,3.8266,3.8869,3.9396,3.9697,3.9697,3.9697,3.9697,3.9697,3.9697,3.9697,3.9697,3.9697,3.9697,3.9772,4.0325,4.0877,4.1376,4.1957,4.2564,4.2986,4.2986,4.2986,4.3011,4.3011,4.3388,4.4041,3.0976,3.0898,3.0898,3.0898,3.0898,3.1035,3.1445,3.2246,3.3066,3.3809,3.4668,3.5332,3.5644,3.541,3.5039,3.459,3.3848,3.3066,3.2226,3.1758,3.1328,3.0918,3.0449,3.0059,2.9726,2.9199,2.8769,2.8457,2.834,2.8301,2.8301,0.0,0.0,0.0,2.9343,3.0109,3.1094,3.2228,3.4009,3.6231,3.7268,3.7469,3.7039,3.6639,3.6436,3.6405,3.6405,3.6405,3.6405,3.6405,3.6405,3.6405,3.6405,3.6405,3.6405,3.6405,3.6405,3.6405,3.6405,3.6405,3.6405,3.6405,3.6358,3.6241,3.5955,3.5764,3.5475,3.4752,3.391,3.3049,3.2259,3.0957,2.9763,2.8839,2.7387,2.6304,2.6062,2.582,2.5693,2.5693,2.5986,2.6554,2.7443,2.8788,3.0219,3.1659,3.2776,3.4053,3.5526,3.6949,3.7867,3.8216,3.9195,3.9697,3.9697,3.9697,3.9697,3.9697,3.9697,3.9697,3.9697,3.9697,3.9923,4.0325,4.0824,4.1455,4.1982,4.259,4.2916,4.2986,4.2986,4.3212,4.3589,4.3589,4.4217,4.5095,3.1016,3.0898,3.0957,3.1133,3.1328,3.1582,3.2012,3.2793,3.3672,3.4531,3.5234,3.5762,3.5996,3.5644,3.5215,3.4746,3.4101,3.3262,3.2307,3.1934,3.1523,3.0918,3.0644,3.0293,2.9863,2.9434,2.8984,2.8574,2.8379,2.8301,2.8301,0.0,0.0,0.0,2.8993,2.9659,3.0578,3.2469,3.4567,3.6594,3.7072,3.7368,0.0,3.6707,3.6405,3.6405,3.6405,3.6405,3.6405,3.6405,3.6405,3.6405,3.6405,3.6405,3.6405,3.6405,3.6405,3.6405,3.6405,3.6405,3.6405,3.6405,3.6405,3.6358,3.6193,3.6193,3.6051,3.562,3.504,3.4366,3.3812,3.2545,3.1125,2.9693,2.8446,2.739,2.6701,2.6339,2.6084,2.5888,2.5868,2.6161,2.6838,2.7852,2.9098,3.0658,3.189,3.321,3.4751,3.6505,3.7543,3.7792,3.9044,3.9697,3.9697,3.9697,3.9697,3.9697,3.9697,3.9697,3.9697,3.9697,3.9998,4.0551,4.105,4.1656,4.2263,4.2816,4.2986,4.3011,4.3237,4.3689,4.4192,4.4443,4.4945,4.5522,3.1211,3.1055,3.1172,3.1543,3.2012,3.25,3.2969,3.3672,3.4453,3.5293,3.5762,3.6016,3.6016,3.5586,3.5137,3.4726,3.4219,3.3418,3.2307,3.2109,3.1719,3.0918,3.0898,3.0644,3.0137,2.9766,2.9336,2.8848,2.8476,2.8301,0.0,0.0,0.0,0.0,0.0,2.9237,3.0287,3.3016,3.5286,3.6994,3.6776,3.7169,3.7789,3.6807,3.6405,3.6405,3.6405,3.6405,3.6405,3.6405,3.6405,3.6405,3.6405,3.6405,3.6405,3.6405,3.6405,3.6405,3.6405,3.6405,3.6405,3.6405,3.6405,3.6405,3.6405,3.6405,3.631,3.6098,3.586,3.5524,3.5017,3.3884,3.2379,3.0563,2.9621,2.876,2.7557,2.7072,2.6735,2.6229,2.617,0.0,2.6496,2.7081,2.8097,2.9682,3.1029,3.2555,3.419,3.6109,3.7244,3.7593,3.8942,3.9697,3.9697,3.9697,3.9697,3.9697,3.9697,3.9697,3.9697,3.9772,4.0099,4.0651,4.1204,4.1756,4.2363,4.2841,4.3011,4.3137,4.3689,4.4242,4.4794,4.5372,4.5598,4.5673,3.1973,3.1934,3.1973,3.2051,3.2695,3.3457,3.4258,3.4492,3.4785,3.5332,3.5762,3.6016,3.6016,3.5312,3.4785,3.4707,3.3672,3.2773,3.2268,3.1836,3.1406,3.0918,3.0898,3.0508,2.9687,2.9665,2.918,2.8398,2.832,2.8301,0.0,0.0,0.0,0.0,0.0,2.9448,3.0754,3.2369,3.405,3.5583,3.5987,3.6603,3.7262,3.6656,3.6405,3.6405,3.6405,3.6405,3.6405,3.6405,3.6405,3.6405,3.6405,3.6405,3.6405,3.6405,3.6405,3.6405,3.6405,3.6405,3.6405,3.6405,3.6405,3.6405,3.6405,3.6405,3.6405,3.631,3.6146,3.5908,3.5812,3.4582,3.3217,3.2231,3.07,2.9387,2.8462,2.7713,2.7122,2.6735,2.6626,2.6585,2.6536,2.6605,2.7378,2.9091,2.991,3.131,3.3601,3.5559,3.6943,3.7593,3.8942,3.9697,3.9697,3.9697,3.9697,3.9697,3.9697,3.9697,3.9722,4.0174,4.0676,4.1175,4.1781,4.2333,4.2891,4.2936,4.3237,4.3714,4.4267,4.4819,4.5397,4.5974,4.6175,4.6175,3.2229,3.2229,3.2305,3.2734,3.334,3.4062,3.4922,3.5254,3.5547,3.5996,3.6035,3.6016,3.6016,3.5234,3.4707,3.4707,3.3535,3.2617,3.2268,3.1758,3.1328,3.0918,3.0898,3.0469,2.9646,2.9626,2.916,2.8301,2.8301,2.8354,2.8514,2.8514,0.0,2.8708,0.0,2.9711,3.0651,3.2002,3.3503,3.5046,3.5599,3.6356,3.7136,3.6631,3.6405,3.6405,3.6405,3.6405,3.6405,3.6405,3.6405,3.6405,3.6405,3.6405,3.6405,3.6405,3.6405,3.6405,3.6405,3.6405,3.6405,3.6405,3.6405,3.6405,3.6405,3.6405,3.6405,3.6405,3.631,3.6146,3.6003,3.5304,3.4438,3.364,3.2381,3.1147,3.0013,2.9291,2.8643,2.8041,2.7705,2.7529,2.749,2.7147,2.7441,2.8815,2.9565,3.0943,3.3055,3.4872,3.6349,3.7394,3.8616,3.9396,3.9697,3.9697,3.9697,3.9697,3.9697,3.9697,3.9722,4.0275,4.0774,4.13,4.1907,4.2514,4.3011,4.3288,4.3564,4.389,4.4744,4.5246,4.5547,4.61,4.6301,4.6301,3.2559,3.2637,3.2949,3.3711,3.4199,3.4746,3.5547,3.5937,3.625,3.6504,3.623,3.6016,3.6016,3.5234,3.4707,3.4707,3.3457,3.2519,3.2187,3.168,3.123,3.0898,3.0898,3.0508,2.9726,2.9609,2.9199,2.8418,2.834,2.8461,2.8674,2.8674,2.8834,2.9132,2.9448,2.9983,3.0747,3.1965,3.3389,3.4946,3.5454,3.6206,3.696,3.6581,3.6405,3.6405,3.6405,3.6405,3.6405,3.6405,3.6405,3.6405,3.6405,3.6405,3.6405,3.6405,3.6405,3.6405,3.6405,3.6405,3.6405,3.6405,3.6405,3.6405,3.6405,3.6405,3.6405,3.6405,3.6405,3.631,3.6098,3.586,3.5453,3.4821,3.4082,3.3097,3.1822,3.1055,3.0384,2.9563,2.9028,2.8621,2.8431,2.7938,2.7987,2.8736,2.9442,3.0723,3.2627,3.4237,3.5759,3.7244,3.8316,3.9145,3.9697,3.9697,3.9697,3.9697,3.9697,3.9747,3.9898,4.045,4.1003,4.1555,4.2082,4.269,4.3187,4.3614,4.394,4.4242,4.5146,4.5573,4.5723,4.615,4.6301,4.6301,3.3809,3.4199,3.4609,3.5117,3.5566,3.5996,3.6484,3.6582,3.6484,3.6133,3.6035,3.6016,3.6016,3.5234,3.4707,3.4707,3.3184,3.2268,3.2229,3.1406,3.0937,3.0898,3.0898,3.0644,3.0156,2.9766,2.9336,2.8867,2.8476,2.8461,2.8674,2.8674,2.8834,2.9132,2.9448,3.0307,3.155,3.2419,3.368,3.5218,3.5767,3.616,3.648,3.643,3.6405,3.6405,3.6405,3.6405,3.6405,3.6405,3.6405,3.6405,3.6405,3.6405,3.6405,3.6405,3.6405,3.6405,3.6405,3.6405,3.6405,3.6405,3.6405,3.6405,3.6405,3.6405,3.6405,3.6405,3.6405,3.6405,3.6358,3.6146,3.5937,3.5867,3.5173,3.4435,3.3817,3.2826,3.1815,3.0845,3.0253,2.9515,2.8494,2.8649,2.8901,2.8985,2.9097,3.0149,3.2303,3.3985,3.5559,3.7244,3.8316,3.9145,3.9697,3.9697,3.9697,3.9697,3.9697,3.9948,4.045,4.0949,4.1555,4.2162,4.266,4.3212,4.374,4.379,4.4418,4.5347,4.5447,4.5799,4.6225,4.6301,4.6301,4.6301,3.4785,3.5,3.5332,3.6035,3.6074,3.6172,3.6601,3.6445,3.6211,3.6035,3.6016,3.6016,3.6016,3.5234,3.4707,3.4707,3.3379,3.2441,3.2248,3.1601,3.1152,3.0898,3.0898,3.0664,3.0215,2.9785,2.9355,2.8926,2.8496,2.8514,2.892,2.892,2.9343,3.013,3.0926,3.1736,3.2663,3.3918,3.5035,3.5949,3.6333,3.6649,3.6883,3.6531,3.6405,3.6405,3.6405,3.6405,3.6405,3.6405,3.6405,3.6405,3.6405,3.6405,3.6405,3.6405,3.6405,3.6405,3.6405,3.6405,3.6405,3.6405,3.6405,3.6405,3.6405,3.6405,3.6405,3.6405,3.6405,3.6405,3.6405,3.631,3.632,3.6455,3.6088,3.5711,3.5525,3.469,3.3839,3.3147,3.2174,3.1229,3.051,3.0133,3.0002,3.0134,3.0028,3.0708,3.2527,3.3834,3.5397,3.7244,3.7992,3.8793,3.9697,3.9697,3.9697,3.9697,3.9697,3.9973,4.0526,4.1025,4.1806,4.274,4.3237,4.3589,4.384,4.4543,4.507,4.5522,4.5849,4.6125,4.6351,4.6677,4.6803,4.6853,3.5684,3.5859,3.6152,3.6758,3.6601,3.6465,3.6641,3.6406,3.6172,3.6035,3.6016,3.5976,3.5859,3.5156,3.4648,3.4531,3.3457,3.2617,3.2268,3.1758,3.1328,3.0918,3.0898,3.0742,3.041,2.9863,2.9414,2.9101,2.8555,2.8495,2.8973,2.9273,3.0084,3.1263,3.2184,3.3085,3.4025,3.5357,3.6296,3.6909,3.6998,3.7094,3.7136,3.6631,3.6405,3.6405,3.6405,3.6405,3.6405,3.6405,3.6405,3.6405,3.6405,3.6405,3.6405,3.6405,3.6405,3.6405,3.6405,3.6405,3.6405,3.6405,3.6405,3.6405,3.6405,3.6405,3.6405,3.6405,3.6405,3.6405,3.6405,3.6405,3.6486,3.6747,3.6775,3.6702,3.6592,3.6074,3.5411,3.4664,3.3621,3.265,3.195,3.1439,3.1176,3.1263,3.1235,3.1706,3.2878,3.3986,3.5425,3.7244,3.7917,3.8718,3.9697,3.9697,3.9697,3.9697,3.9848,4.0224,4.0777,4.1505,4.2333,4.3237,4.3639,4.3991,4.4367,4.5171,4.5573,4.5773,4.615,4.6401,4.6602,4.6943,4.723,4.7405,3.6562,3.6992,3.7285,3.7285,3.7285,3.7148,3.6738,3.666,3.6504,3.6074,3.6016,3.5859,3.5449,3.498,3.4531,3.4121,3.3301,3.2617,3.2268,3.1758,3.1328,3.0918,3.0898,3.0898,3.0879,3.0019,2.9626,2.957,2.8711,2.8461,2.8747,2.9735,3.0917,3.2189,3.2835,3.4008,3.5633,3.6449,3.7232,3.798,3.7691,3.7443,3.7136,3.6631,3.6405,3.6405,3.6405,3.6405,3.6405,3.6405,3.6405,3.6405,3.6405,3.6405,3.6405,3.6405,3.6405,3.6405,3.6405,3.6405,3.6405,3.6405,3.6405,3.6405,3.6405,3.6405,3.6405,3.6405,3.6405,3.6405,3.6405,3.6405,3.6511,3.6748,3.7221,3.7369,3.6866,3.6816,3.6295,3.4964,3.4296,3.3461,3.2195,3.2319,3.2368,3.2101,3.2563,3.2989,3.3178,3.4463,3.5859,3.7244,3.8316,3.912,3.9697,3.9697,3.9697,3.9697,4.0249,4.0802,4.13,4.2459,4.3263,4.379,4.379,4.4443,4.5472,4.5472,4.5799,4.6301,4.6301,4.6652,4.7068,4.7068,4.7456,4.7908,3.707,3.7207,3.7305,3.7305,3.7051,3.6816,3.6699,3.6426,3.6172,3.6035,3.5762,3.543,3.4961,3.4785,3.4531,3.4101,3.3281,3.2617,3.2268,3.1758,3.1328,3.0918,3.0898,3.0742,3.043,2.9863,2.9414,2.9121,2.8574,2.8706,2.9487,3.022,3.1228,3.2534,3.369,3.4772,3.5915,3.7302,3.8153,3.8497,3.8041,3.7816,3.7638,3.6757,3.6405,3.6405,3.6405,3.6405,3.6405,3.6405,3.6405,3.6405,3.6405,3.6405,3.6405,3.6405,3.6405,3.6405,3.6405,3.6405,3.6405,3.6405,3.6405,3.6405,3.6405,3.6405,3.6405,3.6405,3.6405,3.6405,3.6405,3.6405,3.6533,3.7014,3.7191,3.7392,3.7618,3.7295,3.685,3.626,3.5527,3.4848,3.4268,3.4123,3.4025,3.3977,3.4074,3.4213,3.4283,3.5199,3.6377,3.781,3.8515,3.9145,3.9697,3.9697,3.9873,4.0249,4.0425,4.1003,4.1907,4.266,4.3288,4.3815,4.4192,4.4794,4.5522,4.5899,4.615,4.6301,4.6301,4.6652,4.7118,4.7531,4.8008,4.856,3.7461,3.7402,3.7246,3.709,3.6855,3.6621,3.6445,3.6191,3.6016,3.6016,3.5801,3.5391,3.4766,3.4707,3.4473,3.3887,3.3203,3.2617,3.2268,3.1758,3.1328,3.0918,3.0898,3.0762,3.0469,2.9883,2.9434,2.916,2.8574,2.8863,2.9893,3.0275,3.1311,3.2831,3.3956,3.5016,3.6086,3.7352,3.8089,3.8292,3.7765,3.7543,3.7441,3.6566,3.631,3.6405,3.6405,3.6405,3.6405,3.6405,3.6405,3.6405,3.6405,3.6405,3.6405,3.6405,3.6405,3.6405,3.6405,3.6405,3.6405,3.6405,3.6405,3.6405,3.6405,3.6405,3.6405,3.6405,3.6405,3.6405,3.6405,3.6405,3.6531,3.6883,3.7061,3.7236,3.7362,3.7262,3.7014,3.6573,3.6231,3.5964,3.5673,3.5697,3.5721,3.5721,3.5721,3.5864,3.6042,3.6327,3.702,3.8183,3.8866,3.9346,3.9697,3.9898,4.0174,4.0526,4.0927,4.1605,4.2539,4.3037,4.3589,4.4141,4.4694,4.5271,4.5824,4.6175,4.6301,4.6326,4.6552,4.6954,4.7481,4.8033,4.8586,4.9138,3.7695,3.7519,3.7129,3.6699,3.6621,3.6484,3.6074,3.6016,3.6016,3.6016,3.5996,3.5644,3.4785,3.4668,3.4316,3.3496,3.3008,3.2578,3.2187,3.1738,3.1309,3.0918,3.0898,3.0879,3.084,3.0039,2.959,2.9531,2.8691,2.8893,2.9976,3.0016,3.107,3.3021,3.3663,3.4747,3.6068,3.6742,3.721,3.7463,3.6933,3.6749,3.6725,3.6228,3.6196,3.6433,3.6505,3.6531,3.6531,3.6531,3.6531,3.6531,3.6531,3.6531,3.6505,3.643,3.6405,3.6405,3.6405,3.6405,3.6405,3.6405,3.6405,3.6405,3.6405,3.6405,3.6405,3.6405,3.6405,3.6405,3.6405,3.6405,3.6405,3.6405,3.6832,3.6983,3.648,3.6857,3.6839,3.6125,3.6523,3.6749,3.6481,3.6998,3.7369,3.7369,3.7369,3.7565,3.8157,3.7639,3.7715,3.8539,3.9318,3.9722,3.9747,4.0249,4.0551,4.0651,4.1756,4.259,4.3062,4.3614,4.4166,4.4719,4.5246,4.5799,4.6301,4.6301,4.6301,4.6376,4.6928,4.7456,4.7983,4.856,4.9113,4.959,3.6992,3.6894,3.668,3.625,3.6172,3.6133,3.6035,3.6016,3.6016,3.6016,3.5742,3.5332,3.4766,3.4414,3.4004,3.3476,3.2734,3.2285,3.2229,3.1465,3.0996,3.0898,3.0898,3.0723,3.0371,3.0156,2.9726,2.9082,2.8555,2.8716,2.9575,2.9877,3.0706,3.202,3.2916,3.3741,3.458,3.563,3.6294,3.6517,3.6307,3.6314,3.6448,3.6358,3.6502,3.6794,3.7414,3.7613,3.7613,3.7613,3.7613,3.7613,3.7613,3.7613,3.7462,3.6656,3.6405,3.6405,3.6405,3.6405,3.6405,3.6405,3.6405,3.6405,3.6405,3.6405,3.6405,3.6405,3.6405,3.6405,3.6405,3.6405,3.6405,3.6405,3.6505,3.6556,3.643,3.6531,3.6508,3.6335,3.6812,3.7089,3.7041,3.7492,3.7817,3.7817,3.7817,3.8116,3.8692,3.8592,3.8716,3.9111,3.9519,3.9898,4.0325,4.045,4.0927,4.1835,4.2886,4.3489,4.3639,4.4192,4.4744,4.5296,4.5422,4.5799,4.6301,4.6301,4.6301,4.6376,4.6928,4.7456,4.7983,4.856,4.9113,4.959,3.668,3.6504,3.6289,3.6055,3.6016,3.6016,3.6016,3.6016,3.6016,3.6016,3.582,3.543,3.4766,3.4492,3.4101,3.3476,3.2656,3.2229,3.2229,3.1367,3.0898,3.0898,3.0898,3.0781,3.0527,3.0312,2.9883,2.9219,2.8984,2.9192,2.979,2.9971,3.0608,3.1482,3.2183,3.2856,3.3459,3.4246,3.4781,3.5084,3.5131,3.5416,3.5801,3.605,3.6453,3.6899,3.7568,3.7817,3.7817,3.7965,3.8015,3.8015,3.8015,3.8015,3.7889,3.7287,3.6935,3.6732,3.648,3.6405,3.6405,3.6405,3.6405,3.6405,3.6405,3.6405,3.6405,3.6405,3.6405,3.6405,3.6405,3.6405,3.6405,3.6405,3.6405,3.6405,3.6405,3.6405,3.6405,3.6405,3.7061,3.7563,3.7563,3.8291,3.8768,3.8768,3.8768,3.8919,3.922,3.9245,3.9319,3.9465,3.9871,4.0224,4.0526,4.1028,4.1806,4.2911,4.3514,4.394,4.4192,4.4769,4.5196,4.5497,4.5748,4.6024,4.6301,4.6301,4.6451,4.6753,4.728,4.7832,4.836,4.8937,4.9339,4.959,3.6504,3.6269,3.6016,3.6016,3.6016,3.6016,3.6016,3.6016,3.6016,3.6016,3.6016,3.5684,3.4805,3.4707,3.4355,3.3496,3.2715,3.2226,3.2168,3.1367,3.0898,3.0898,3.0898,3.0898,3.0898,3.043,3.0019,2.9668,2.9646,2.9746,3.0098,3.0176,3.0505,3.1168,3.1536,3.2018,3.2514,3.2835,3.317,3.3473,3.3792,3.4316,3.4981,3.5611,3.6302,3.6887,3.7591,3.7841,3.7891,3.8166,3.8266,3.8266,3.8266,3.8266,3.8241,3.8165,3.7814,3.7312,3.6807,3.6656,3.6656,3.6656,3.6606,3.6531,3.6531,3.6455,3.6405,3.6405,3.648,3.6505,3.643,3.648,3.6505,3.643,3.6405,3.6405,3.6405,3.6405,3.6405,3.6405,3.7337,3.8015,3.8015,3.9019,3.9697,3.9697,3.9697,3.9697,3.9697,3.9697,3.9747,3.9823,4.0275,4.0601,4.0752,4.1835,4.2841,4.379,4.389,4.4217,4.4769,4.5347,4.5623,4.5648,4.61,4.6301,4.6326,4.6401,4.6702,4.7143,4.7807,4.8335,4.8837,4.9389,4.959,4.959,3.6113,3.6074,3.6016,3.6016,3.6016,3.6016,3.6016,3.6016,3.6016,3.6016,3.6016,3.5684,3.4805,3.4707,3.4355,3.3496,3.2988,3.2539,3.2187,3.1367,3.0898,3.0898,3.0898,3.0898,3.0898,3.043,3.0156,3.0098,2.9746,2.9609,2.9668,3.0039,3.0234,3.037,3.1108,3.1441,3.1556,3.2113,3.2358,3.2483,3.2818,3.3398,3.4095,3.5389,3.6255,3.7028,3.8475,3.9009,3.9061,3.9318,3.9446,3.9446,3.9446,3.9446,3.9346,3.8868,3.8668,3.8542,3.7914,3.7739,3.7739,3.7739,3.7387,3.7109,3.7109,3.6757,3.6405,3.6405,3.6782,3.6958,3.648,3.6782,3.6958,3.648,3.6405,3.6405,3.6405,3.6405,3.6405,3.6405,3.7337,3.8015,3.8015,3.9019,3.9697,3.9697,3.9697,3.9697,3.9697,3.9697,3.9898,4.0375,4.0475,4.0953,4.1936,4.259,4.3162,4.3815,4.4267,4.4794,4.5372,4.5924,4.6175,4.6175,4.6276,4.6301,4.6351,4.6803,4.6993,4.7168,4.8234,4.8686,4.8837,4.9389,4.959,4.959,3.6016,3.6016,3.6016,3.6016,3.6016,3.6016,3.6016,3.6016,3.6016,3.6016,3.6016,3.5684,3.4805,3.4707,3.4355,3.3496,3.3047,3.2617,3.2268,3.1582,3.1133,3.0898,3.0898,3.0898,3.0898,3.0684,3.0566,3.0566,3.0371,3.0273,3.0293,3.0488,3.0566,3.0586,3.0897,3.1112,3.1112,3.1383,3.1556,3.1747,3.2287,3.2861,3.3531,3.4833,3.5725,3.647,3.7878,3.8579,3.8893,3.931,3.9594,3.9697,3.9697,3.9697,3.9647,3.9396,3.8894,3.8341,3.809,3.8015,3.8015,3.8015,3.7814,3.7538,3.7262,3.6985,3.6857,3.6857,3.7059,3.7186,3.7236,3.7462,3.7437,3.6933,3.6857,3.6757,3.6455,3.6405,3.6505,3.6832,3.7513,3.814,3.8442,3.922,3.9697,3.9697,3.9697,3.9697,3.9697,3.9697,4.0074,4.0874,4.1254,4.1781,4.264,4.3137,4.3689,4.4242,4.4819,4.5372,4.5949,4.62,4.6301,4.6326,4.6627,4.6753,4.6803,4.733,4.7732,4.8058,4.856,4.8962,4.9238,4.9515,4.959,4.959,3.6016,3.6016,3.6016,3.6016,3.6016,3.6016,3.6016,3.6016,3.6016,3.6016,3.6016,3.5684,3.4805,3.4707,3.4355,3.3496,3.3125,3.2754,3.2344,3.1914,3.1426,3.0918,3.0898,3.0898,3.0898,3.0898,3.0898,3.0898,3.0898,3.0898,3.0898,3.0898,3.0898,3.0898,3.0898,3.0898,3.0898,3.0898,3.0995,3.1267,3.1767,3.2342,3.3006,3.419,3.508,3.585,3.7042,3.7868,3.8473,3.9102,3.949,3.9697,3.9697,3.9697,3.9697,3.9697,3.9069,3.8391,3.8391,3.8391,3.8391,3.8391,3.8291,3.809,3.7663,3.7462,3.7387,3.7387,3.7487,3.7663,3.7939,3.8115,3.8015,3.7462,3.7262,3.7036,3.6656,3.6606,3.6757,3.7136,3.7789,3.8391,3.8869,3.9371,3.9697,3.9697,3.9697,3.9697,3.9697,3.9823,4.04,4.1505,4.2057,4.2665,4.3162,4.3589,4.4141,4.4819,4.5271,4.5773,4.6326,4.6451,4.6502,4.6527,4.7079,4.7305,4.7355,4.7883,4.836,4.8786,4.8912,4.9213,4.959,4.959,4.959,4.959,3.6016,3.6016,3.6016,3.6016,3.6016,3.6016,3.6016,3.6016,3.6016,3.6016,3.6016,3.5684,3.4805,3.4707,3.4355,3.3496,3.3398,3.3203,3.2773,3.2363,3.1758,3.0918,3.0898,3.0898,3.0898,3.0898,3.0898,3.0898,3.0898,3.0898,3.0898,3.0898,3.0898,3.0898,3.0898,3.0898,3.0898,3.0898,3.0898,3.0957,3.1267,3.171,3.2399,3.3346,3.4413,3.5598,3.6719,3.7684,3.8473,3.9102,3.949,3.9697,3.9697,3.9697,3.9697,3.9697,3.9647,3.9572,3.9572,3.9572,3.9572,3.9572,3.9195,3.8844,3.8793,3.8341,3.7939,3.7939,3.8366,3.8592,3.809,3.8442,3.8617,3.804,3.7513,3.7161,3.7136,3.7136,3.7136,3.7186,3.814,3.8818,3.8919,3.9371,3.9697,3.9697,3.9697,3.9697,3.9697,4.0174,4.0953,4.2112,4.269,4.3187,4.374,4.379,4.4342,4.5422,4.5472,4.5773,4.6326,4.6828,4.7018,4.7043,4.7631,4.7857,4.7908,4.846,4.8736,4.8812,4.9339,4.9565,4.959,4.959,4.959,4.959,3.6016,3.6016,3.6016,3.6016,3.6016,3.6016,3.6016,3.6016,3.6016,3.6016,3.6016,3.5801,3.5195,3.4863,3.4473,3.3867,3.3574,3.3242,3.2832,3.2402,3.1777,3.0918,3.0898,3.0898,3.0898,3.0898,3.0898,3.0898,3.0898,3.0898,3.0898,3.0898,3.0898,3.0898,3.0898,3.0898,3.0898,3.0898,3.0898,3.0937,3.1208,3.1441,3.171,3.2457,3.3346,3.4413,3.5411,3.6557,3.7679,3.8291,3.8788,3.9154,3.9387,3.9413,3.9465,3.9645,3.9697,3.9697,3.9697,3.9697,3.9697,3.9697,3.9546,3.9295,3.8994,3.8693,3.8542,3.8542,3.8718,3.8919,3.9044,3.9245,3.9195,3.8642,3.8366,3.8115,3.7739,3.7688,3.7814,3.8191,3.8668,3.9045,3.9346,3.9572,3.9697,3.9697,4.0023,4.0199,4.0199,4.1053,4.1936,4.269,4.3212,4.3589,4.379,4.4493,4.507,4.5497,4.5824,4.6276,4.6828,4.7029,4.7305,4.7631,4.8209,4.8435,4.8485,4.9038,4.9289,4.9314,4.9515,4.959,4.959,4.959,4.959,4.959,3.6016,3.6016,3.6016,3.6016,3.6016,3.6016,3.6016,3.6016,3.6016,3.6016,3.6016,3.5801,3.5234,3.4883,3.4473,3.3926,3.3594,3.3301,3.3008,3.248,3.1777,3.0918,3.0898,3.0898,3.0898,3.0898,3.0898,3.0898,3.0898,3.0898,3.0898,3.0898,3.0898,3.0898,3.0898,3.0898,3.0898,3.0898,3.0898,3.0898,3.1112,3.1208,3.1325,3.1767,3.2571,3.3572,3.4357,3.5576,3.6904,3.7495,3.8157,3.8736,3.8945,3.9154,3.9362,3.9645,3.9697,3.9697,3.9697,3.9697,3.9697,3.9697,3.9697,3.9597,3.922,3.912,3.912,3.912,3.912,3.9245,3.9622,3.9697,3.9572,3.9195,3.8994,3.8793,3.8341,3.8266,3.8417,3.8818,3.9019,3.927,3.9647,3.9848,3.9948,3.9948,4.0475,4.0852,4.1028,4.181,4.2539,4.3212,4.3765,4.4141,4.4342,4.5095,4.5573,4.5748,4.6301,4.6753,4.7093,4.7481,4.7832,4.8209,4.8786,4.9038,4.9063,4.9439,4.959,4.959,4.959,4.959,4.959,4.959,4.959,4.959,3.6016,3.6016,3.6016,3.6016,3.6016,3.6016,3.6016,3.6016,3.6016,3.6016,3.6016,3.5684,3.4805,3.4707,3.4355,3.3496,3.3418,3.3418,3.3418,3.2637,3.1777,3.0937,3.0898,3.0898,3.0898,3.0898,3.0898,3.0898,3.0898,3.0898,3.0898,3.0898,3.0898,3.0898,3.0898,3.0898,3.0898,3.0898,3.0898,3.0898,3.0898,3.1054,3.1325,3.1325,3.2055,3.3176,3.3797,3.4969,3.6286,3.685,3.7655,3.8368,3.8421,3.8788,3.9362,3.9645,3.9697,3.9697,3.9697,3.9697,3.9697,3.9697,3.9697,3.9697,3.9697,3.9697,3.9697,3.9697,3.9697,3.9697,3.9697,3.9697,3.9697,3.9697,3.922,3.8919,3.8919,3.8919,3.8919,3.8919,3.9371,3.9697,3.9697,4.0199,4.0526,4.0526,4.0974,4.158,4.2187,4.2213,4.2715,4.3765,4.4342,4.4895,4.5497,4.5497,4.5773,4.6326,4.6878,4.7068,4.7118,4.8259,4.8761,4.8875,4.9364,4.959,4.959,4.959,4.959,4.959,4.959,4.959,4.959,4.959,4.959,4.959,3.6016,3.6016,3.6016,3.6016,3.6016,3.6016,3.6016,3.6016,3.6016,3.6016,3.6016,3.5801,3.5254,3.4902,3.4473,3.3926,3.3594,3.3301,3.3008,3.248,3.1914,3.1348,3.1055,3.0898,3.0898,3.0898,3.0898,3.0898,3.0898,3.0898,3.0898,3.0898,3.0898,3.0898,3.0898,3.0898,3.0898,3.0898,3.0898,3.0898,3.0898,3.0937,3.0995,3.0995,3.1614,3.2514,3.297,3.3909,3.508,3.5411,3.6013,3.6719,3.7548,3.8344,3.8998,3.931,3.9542,3.9772,4.0174,4.0275,4.0174,3.9798,3.9697,3.9697,3.9697,3.9697,3.9697,3.9697,3.9697,3.9697,3.9697,3.9697,3.9697,3.9697,3.9546,3.9446,3.9446,3.9446,3.9446,3.9446,3.9597,3.9848,4.0224,4.0425,4.0676,4.1025,4.1605,4.2158,4.271,4.2791,4.3237,4.4342,4.4543,4.5095,4.605,4.6075,4.615,4.6326,4.6878,4.733,4.7707,4.8435,4.8987,4.9364,4.9515,4.959,4.959,4.959,4.959,4.959,4.959,4.959,4.959,4.959,4.959,4.959,3.6016,3.6016,3.6016,3.6016,3.6016,3.6016,3.6016,3.6016,3.6016,3.6016,3.6016,3.5801,3.5176,3.4863,3.4453,3.3867,3.3574,3.3242,3.2832,3.2559,3.2226,3.1797,3.1367,3.1055,3.0898,3.0898,3.0898,3.0898,3.0898,3.0898,3.0898,3.0898,3.0898,3.0898,3.1055,3.1133,3.1152,3.1328,3.1387,3.1387,3.1387,3.1387,3.1387,3.1387,3.1781,3.2408,3.2758,3.3571,3.4547,3.481,3.5489,3.6407,3.7457,3.8329,3.9053,3.9586,3.9957,4.0242,4.0699,4.0852,4.0752,4.0425,4.035,4.03,4.0074,4.0023,4.0023,4.0023,4.0023,4.0099,4.03,4.035,4.035,4.035,4.0149,4.0023,4.0023,3.9823,3.9772,3.9998,4.0023,4.0249,4.0724,4.1028,4.1379,4.1957,4.2283,4.269,4.2961,4.3187,4.3714,4.4593,4.4844,4.5397,4.6301,4.6301,4.6301,4.6326,4.7079,4.7606,4.7933,4.8736,4.9289,4.959,4.959,4.959,4.959,4.959,4.959,4.959,4.959,4.959,4.959,4.959,4.959,4.959,3.6016,3.6016,3.6016,3.6016,3.6016,3.6016,3.6016,3.6016,3.6016,3.5976,3.5957,3.5625,3.4746,3.4648,3.4316,3.3496,3.3418,3.3262,3.2871,3.2812,3.2617,3.2246,3.1816,3.1387,3.1016,3.0937,3.0898,3.0898,3.0937,3.0937,3.0937,3.0996,3.1016,3.1016,3.1406,3.1582,3.1601,3.1992,3.2229,3.2229,3.2229,3.2229,3.2229,3.2229,3.235,3.2633,3.2935,3.3634,3.4407,3.4682,3.5561,3.6742,3.7633,3.8424,3.9173,4.0056,4.0627,4.0952,4.1297,4.1351,4.1376,4.1426,4.1426,4.1275,4.0727,4.0601,4.0601,4.0601,4.0601,4.0752,4.12,4.1275,4.1275,4.1275,4.0874,4.0601,4.0601,4.0149,4.0023,4.0526,4.0601,4.0802,4.13,4.1907,4.2514,4.3011,4.3062,4.3062,4.3112,4.3614,4.4141,4.4694,4.5221,4.5748,4.6301,4.6301,4.6301,4.6326,4.7355,4.7857,4.7933,4.9038,4.954,4.959,4.959,4.959,4.959,4.959,4.959,4.959,4.959,4.959,4.959,4.959,4.959,4.959,3.6016,3.6016,3.6016,3.6016,3.6016,3.6016,3.6016,3.6016,3.5898,3.5566,3.5527,3.5195,3.4316,3.4219,3.4004,3.3476,3.3418,3.3379,3.3301,3.2969,3.2754,3.2656,3.2246,3.1992,3.1894,3.123,3.0898,3.0898,3.123,3.1387,3.1387,3.1738,3.1894,3.1894,3.1992,3.2031,3.2031,3.219,3.2229,3.2229,3.2229,3.2229,3.2229,3.2229,3.235,3.2613,3.2693,3.2975,3.3455,3.3733,3.4327,3.5173,3.6027,3.7235,3.848,3.9395,4.03,4.1051,4.1802,4.1982,4.2082,4.2509,4.2635,4.2359,4.1379,4.11,4.11,4.11,4.11,4.115,4.125,4.1275,4.1275,4.1275,4.1175,4.11,4.11,4.1,4.0974,4.11,4.11,4.1379,4.1932,4.2484,4.3037,4.3589,4.3614,4.3815,4.4242,4.4367,4.4719,4.5271,4.5422,4.5748,4.6301,4.6301,4.6301,4.6326,4.6979,4.7506,4.7933,4.8636,4.9188,4.959,4.959,4.959,4.959,4.959,4.959,4.959,4.959,4.959,4.959,4.959,4.959,4.959,3.6016,3.6016,3.6016,3.6016,3.6016,3.6016,3.6016,3.6016,3.5937,3.5723,3.5684,3.543,3.4766,3.4512,3.4121,3.3476,3.3418,3.3418,3.3418,3.3223,3.3086,3.3086,3.2695,3.2461,3.2461,3.1836,3.1504,3.1504,3.1719,3.1816,3.1836,3.207,3.2229,3.2187,3.2383,3.2461,3.248,3.2676,3.2773,3.2773,3.2773,3.2773,3.2773,3.2773,3.2878,3.3001,3.3001,3.3186,3.3555,3.3841,3.439,3.5056,3.5815,3.7177,3.8655,3.9741,4.0724,4.1632,4.2349,4.2615,4.2665,4.2911,4.2986,4.276,4.1907,4.1731,4.1731,4.1731,4.1731,4.1806,4.2082,4.2133,4.2133,4.2133,4.1907,4.1731,4.1731,4.1505,4.1376,4.1706,4.1731,4.1932,4.2564,4.3037,4.3489,4.379,4.4041,4.4317,4.4618,4.4895,4.5171,4.5472,4.5748,4.6024,4.6301,4.6301,4.6451,4.6702,4.7255,4.7631,4.7933,4.8786,4.9314,4.959,4.959,4.959,4.959,4.959,4.959,4.959,4.959,4.959,4.959,4.959,4.959,4.959,3.6016,3.6016,3.6016,3.6016,3.6016,3.6016,3.6016,3.6016,3.5996,3.5918,3.5918,3.5742,3.5332,3.4863,3.4316,3.3594,3.3457,3.3418,3.3418,3.3418,3.3418,3.3418,3.3086,3.291,3.291,3.2559,3.2305,3.2229,3.2246,3.2285,3.2285,3.2344,3.2383,3.2402,3.2754,3.291,3.293,3.3281,3.3418,3.3418,3.3418,3.3418,3.3418,3.3418,3.3418,3.3418,3.3418,3.3607,3.3859,3.4173,3.4735,3.5356,3.6135,3.7473,3.8967,4.0339,4.1344,4.2224,4.2818,4.2986,4.3011,4.3087,4.3112,4.3011,4.2715,4.2489,4.2363,4.2464,4.2489,4.2665,4.3162,4.3263,4.3263,4.3263,4.2886,4.259,4.2514,4.2032,4.1932,4.2439,4.2564,4.276,4.3212,4.3664,4.3991,4.4091,4.4518,4.4819,4.492,4.5372,4.5623,4.5623,4.6075,4.6351,4.6451,4.6451,4.6728,4.728,4.7807,4.8058,4.8083,4.9012,4.9515,4.959,4.959,4.959,4.959,4.959,4.959,4.959,4.959,4.959,4.959,4.959,4.959,4.959,3.6016,3.6016,3.6016,3.6016,3.6016,3.6016,3.6016,3.6016,3.5898,3.5527,3.5488,3.5312,3.4844,3.4414,3.4101,3.4004,3.3633,3.3418,3.3418,3.3418,3.3418,3.3418,3.3359,3.334,3.334,3.3281,3.2891,3.2229,3.2539,3.2715,3.2715,3.3086,3.3242,3.3262,3.332,3.334,3.334,3.3398,3.3418,3.3418,3.3418,3.3418,3.3418,3.3418,3.3418,3.3418,3.3418,3.3418,3.3544,3.3859,3.4235,3.4735,3.6013,3.727,3.8648,4.0257,4.1344,4.2224,4.2818,4.2986,4.3087,4.3564,4.3689,4.379,4.4192,4.3564,4.3011,4.3489,4.3589,4.374,4.4292,4.4392,4.4392,4.4392,4.4342,4.4116,4.3639,4.3514,4.3489,4.3564,4.3991,4.4317,4.4392,4.4468,4.4719,4.5221,4.5321,4.5573,4.605,4.615,4.62,4.62,4.6276,4.6552,4.7029,4.7029,4.728,4.7807,4.8385,4.8661,4.8661,4.8812,4.9138,4.959,4.959,4.959,4.959,4.959,4.959,4.959,4.959,4.959,4.959,4.959,4.959,4.959,3.6016,3.6016,3.6016,3.6016,3.6016,3.6016,3.6016,3.6016,3.5957,3.5762,3.5742,3.5664,3.5449,3.5059,3.4707,3.4453,3.4258,3.4141,3.4141,3.4141,3.4043,3.3789,3.3789,3.3672,3.3437,3.3418,3.3242,3.2871,3.3047,3.3144,3.3144,3.334,3.3418,3.3418,3.3418,3.3418,3.3418,3.3418,3.3418,3.3418,3.3418,3.3418,3.3418,3.3418,3.3418,3.3457,3.3691,3.3945,3.4166,3.425,3.4489,3.4934,3.5871,3.7184,3.8672,3.9649,4.0901,4.2068,4.2504,4.2928,4.3362,4.3911,4.4152,4.4317,4.4568,4.4242,4.3966,4.4217,4.4267,4.4342,4.4593,4.4618,4.4618,4.4618,4.4618,4.4543,4.4292,4.4267,4.4267,4.4267,4.4468,4.4618,4.4618,4.492,4.5221,4.5472,4.5773,4.605,4.6301,4.6301,4.6451,4.6753,4.6778,4.7029,4.7556,4.7556,4.7832,4.8385,4.8661,4.8761,4.8786,4.9088,4.9364,4.959,4.959,4.959,4.959,4.959,4.959,4.959,4.959,4.959,4.959,4.959,4.959,4.959]}]]